Date StartTime U_cm/s V_cm/s W_cm/s Ustd_cm/s Vstd_cm/s Wstd_cm/s Uvar_(cm/s)^2 Vvar_(cm/s)^2 Wvar_(cm/s)^2 KE_(m/s)^2 TurbulentKE_(m/s)^2 HorizWindSpeed_cm/s FrictionSpeec_cm/s DragCoef SpeedOfSound_m/s SonicTemperature_C Pressure_mb 
04/28/2014  00:00:00     -144.484      -46.673        1.731       86.864       55.701       41.712     7545.362     3102.596     1739.878        1.772        0.619      151.836       43.591        0.082      336.089        7.154      861.962
04/28/2014  00:01:00     -167.273      -43.536       -4.117       89.122       51.126       41.563     7942.799     2613.905     1727.501        2.109        0.614      172.845       40.607        0.055      336.083        7.144      861.998
04/28/2014  00:02:00     -158.085      -74.491        8.695      153.008       87.066       51.184    23411.380     7580.467     2619.846        3.211        1.681      174.756       69.873        0.160      336.091        7.157      862.008
04/28/2014  00:03:00     -236.927      -20.146      -12.656       74.103       63.648       38.189     5491.300     4051.099     1458.403        3.385        0.550      237.782       34.907        0.022      336.066        7.114      862.031
04/28/2014  00:04:00     -131.396      -49.559       -5.889       69.793       46.762       26.531     4870.995     2186.686      703.897        1.376        0.388      140.432       26.093        0.035      336.064        7.114      862.069
04/28/2014  00:05:00     -102.276      -26.937        7.606       90.887       64.083       41.290     8260.373     4106.624     1704.875        1.266        0.704      105.764       47.005        0.198      336.002        7.011      862.107
04/28/2014  00:06:00     -166.017      -66.249        0.068       93.670       84.307       51.078     8774.027     7107.621     2608.985        2.522        0.925      178.747       54.345        0.092      336.016        7.031      862.158
04/28/2014  00:07:00     -186.642      -75.644       -7.516      143.212      102.908       78.798    20509.655    10590.159     6209.142        3.895        1.865      201.388       92.768        0.212      336.047        7.084      862.180
04/28/2014  00:08:00     -159.013      -17.458        2.433      118.008       77.661       53.793    13925.939     6031.258     2893.641        2.422        1.143      159.969       62.317        0.152      335.991        6.992      862.189
04/28/2014  00:09:00     -204.912      -65.661      -10.436       56.684       57.321       33.659     3213.024     3285.727     1132.910        2.702        0.382      215.175       27.484        0.016      336.031        7.057      862.209
04/28/2014  00:10:00     -129.681       -7.215        5.377       83.768       91.568       45.178     7017.101     8384.744     2041.068        1.717        0.872      129.881       47.481        0.134      335.976        6.967      862.257
04/28/2014  00:11:00     -173.271      -23.614       -8.621       66.952       55.908       37.218     4482.507     3125.661     1385.164        1.982        0.450      174.873       37.882        0.047      335.994        6.997      862.283
04/28/2014  00:12:00      -94.730      -60.951        0.719       88.688       67.811       43.810     7865.538     4598.356     1919.280        1.353        0.719      112.645       43.434        0.149      336.032        7.060      862.298
04/28/2014  00:13:00     -199.551     -101.322      -11.246       68.404       65.956       36.596     4679.082     4350.171     1339.299        3.029        0.518      223.800       29.995        0.018      336.033        7.060      862.333
04/28/2014  00:14:00     -188.903      -36.277       -6.853       96.110       71.725       42.453     9237.164     5144.544     1802.280        2.661        0.809      192.354       44.485        0.053      335.996        6.999      862.339
04/28/2014  00:15:00      -83.499      -23.880       21.379       88.761       50.511       36.759     7878.443     2551.356     1351.235        0.989        0.589       86.846       48.915        0.317      336.002        7.011      862.343
04/28/2014  00:16:00     -125.184        8.955       -4.039       62.024       78.253       37.222     3847.024     6123.603     1385.488        1.356        0.568      125.503       35.471        0.080      336.019        7.039      862.353
04/28/2014  00:17:00      -78.808       -8.505      -14.402       80.138       43.608       39.292     6422.094     1901.667     1543.868        0.818        0.493       79.266       42.774        0.291      335.951        6.927      862.332
04/28/2014  00:18:00      -93.867      -19.225      -11.886       27.336       30.017       24.195      747.266      901.036      585.395        0.578        0.112       95.815       16.967        0.031      336.004        7.014      862.323
04/28/2014  00:19:00     -152.859       -2.882      -14.235       43.659       36.886       22.185     1906.128     1360.557      492.152        1.367        0.188      152.886       13.469        0.008      335.981        6.976      862.354
04/28/2014  00:20:00      -62.435      -25.020       10.682       52.463       37.911       27.073     2752.364     1437.271      732.920        0.478        0.246       67.262       31.690        0.222      335.955        6.934      862.388
04/28/2014  00:21:00     -122.788        4.294       -1.004       49.945       41.324       27.624     2494.489     1707.676      763.098        1.003        0.248      122.864       26.981        0.048      335.984        6.980      862.401
04/28/2014  00:22:00      -88.432        1.614       -1.543       44.089       29.576       20.260     1943.878      874.713      410.453        0.553        0.161       88.447       14.283        0.026      335.944        6.915      862.409
04/28/2014  00:23:00      -54.197      -26.529        6.893       60.907       35.630       22.834     3709.661     1269.491      521.373        0.459        0.275       60.341       23.531        0.152      335.957        6.937      862.432
04/28/2014  00:24:00      -66.948      -26.454       -9.696       36.620       20.413       17.499     1341.008      416.699      306.201        0.367        0.103       71.985       19.395        0.073      335.990        6.990      862.444
04/28/2014  00:25:00     -105.739      -64.627        0.156       43.884       42.085       28.271     1925.772     1771.111      799.243        0.993        0.225      123.925       26.883        0.047      335.985        6.983      862.469
04/28/2014  00:26:00      -45.802      -51.527        5.506       46.481       34.675       20.305     2160.479     1202.347      412.298        0.428        0.189       68.941       15.584        0.051      336.009        7.023      862.492
04/28/2014  00:27:00      -22.627       22.661       -3.006       19.527       20.898       16.741      381.312      436.742      280.260        0.107        0.055       32.023        5.761        0.032      336.003        7.012      862.497
04/28/2014  00:28:00      -56.841       18.336       -2.894       21.397       24.473       14.563      457.832      598.945      212.071        0.242        0.063       59.725       12.211        0.042      336.031        7.059      862.510
04/28/2014  00:29:00      -46.719       63.232       -8.879       42.892       28.831       21.804     1839.700      831.225      475.394        0.470        0.157       78.619       27.857        0.126      335.981        6.975      862.509
04/28/2014  00:30:00      -51.432      111.402       -9.494       28.523       44.933       22.038      813.589     2019.007      485.660        0.923        0.166      122.701       24.785        0.041      336.014        7.030      862.515
04/28/2014  00:31:00      -85.559       52.264      -20.205       20.784       38.345       15.219      431.973     1470.323      231.614        0.630        0.107      100.259        5.074        0.003      336.010        7.024      862.536
04/28/2014  00:32:00      -49.395       91.991      -13.613       32.260       40.211       19.231     1040.689     1616.923      369.847        0.706        0.151      104.414       12.494        0.014      335.984        6.981      862.552
04/28/2014  00:33:00      -41.675       71.087       -5.604       49.378       32.517       22.237     2438.224     1057.342      494.475        0.541        0.200       82.403       15.138        0.034      335.993        6.996      862.546
04/28/2014  00:34:00      -48.531       92.715      -10.209       38.206       58.199       30.811     1459.687     3387.126      949.318        0.842        0.290      104.649       22.001        0.044      336.044        7.080      862.539
04/28/2014  00:35:00      -62.728       57.712       -8.260       38.675       39.682       21.097     1495.774     1574.689      445.072        0.542        0.176       85.237       17.684        0.043      336.043        7.079      862.537
04/28/2014  00:36:00      -43.416       84.861      -16.700       55.721      100.153       29.486     3104.848    10030.637      869.451        1.168        0.700       95.323       32.792        0.118      336.062        7.111      862.531
04/28/2014  00:37:00      -53.320        9.469       -4.179       66.570       30.354       26.531     4431.579      921.392      703.874        0.450        0.303       54.154       33.632        0.386      336.026        7.051      862.530
04/28/2014  00:38:00      -75.152       76.346      -18.693       38.041       45.226       21.825     1447.090     2045.423      476.333        0.790        0.198      107.128       19.938        0.035      336.031        7.060      862.516
04/28/2014  00:39:00     -116.815      133.637      -26.388       45.688       41.880       28.081     2087.355     1753.932      788.537        1.841        0.231      177.495       19.702        0.012      336.100        7.176      862.519
04/28/2014  00:40:00      -82.394       32.540      -12.528       44.496       24.441       24.667     1979.884      597.375      608.478        0.559        0.159       88.586       15.592        0.031      336.112        7.195      862.514
04/28/2014  00:41:00      -40.772       13.099      -10.701       30.204       29.441       19.490      912.309      866.797      379.876        0.205        0.108       42.825       20.488        0.229      336.106        7.184      862.515
04/28/2014  00:42:00      -61.609       -6.485      -10.817       35.695       19.886       15.067     1274.166      395.460      227.003        0.293        0.095       61.949       19.167        0.096      336.107        7.187      862.520
04/28/2014  00:43:00       -9.574       -4.990       -6.049       16.710       21.821       14.655      279.213      476.144      214.764        0.056        0.049       10.797        9.129        0.715      336.097        7.169      862.524
04/28/2014  00:44:00      -97.810      -28.765       -1.199       54.396       38.521       16.505     2958.966     1483.871      272.412        0.755        0.236      101.952       18.295        0.032      336.030        7.057      862.541
04/28/2014  00:45:00     -104.567      -17.988        0.044       79.144       41.572       32.154     6263.769     1728.250     1033.855        1.014        0.451      106.103       33.646        0.101      335.926        6.883      862.570
04/28/2014  00:46:00      -64.138       32.746      -10.754       32.341       38.794       23.514     1045.950     1504.951      552.909        0.420        0.155       72.014       26.753        0.138      335.913        6.864      862.612
04/28/2014  00:47:00      -95.367      212.595      -28.198       50.486       93.206       43.650     2548.831     8687.396     1905.347        3.411        0.657      233.005       39.081        0.028      336.008        7.019      862.656
04/28/2014  00:48:00      -79.183      118.065      -16.956       40.328       48.652       25.884     1626.375     2367.013      669.972        1.258        0.233      142.159       19.621        0.019      335.941        6.910      862.665
04/28/2014  00:49:00      -67.673       22.419       -3.487       51.633       33.715       21.691     2665.935     1136.733      470.490        0.468        0.214       71.290       22.124        0.096      335.930        6.891      862.656
04/28/2014  00:50:00      -37.673      108.874      -13.073       34.145       44.132       22.354     1165.899     1947.614      499.679        0.853        0.181      115.208       16.589        0.021      336.012        7.027      862.657
04/28/2014  00:51:00      -58.161       84.238       -7.817       37.111       38.745       29.297     1377.230     1501.185      858.286        0.714        0.187      102.366       23.814        0.054      335.914        6.863      862.673
04/28/2014  00:52:00      -44.723       44.002       -6.699       59.878       35.782       24.381     3585.368     1280.382      594.443        0.472        0.273       62.740       23.213        0.137      335.855        6.766      862.696
04/28/2014  00:53:00      -84.238      119.623      -23.204       62.897       50.577       34.452     3955.978     2558.062     1186.922        1.482        0.385      146.307       25.091        0.029      335.871        6.792      862.703
04/28/2014  00:54:00      -79.700      210.015      -25.769       54.748      122.455       43.878     2997.349    14995.340     1925.287        3.552        0.996      224.629       44.727        0.040      335.827        6.717      862.704
04/28/2014  00:55:00     -112.241      154.564      -34.727       47.759       52.894       28.910     2280.931     2797.816      835.805        2.180        0.296      191.018       30.424        0.025      335.787        6.652      862.708
04/28/2014  00:56:00     -100.147      118.236      -18.937       33.314       43.708       25.602     1109.832     1910.412      655.466        1.402        0.184      154.949       18.622        0.014      335.746        6.585      862.699
04/28/2014  00:57:00     -120.359      100.765      -32.552       37.161       53.093       24.579     1380.969     2818.892      604.124        1.525        0.240      156.971       17.331        0.012      335.729        6.556      862.718
04/28/2014  00:58:00     -136.398       25.307      -14.582       46.071       49.691       29.179     2122.513     2469.222      851.427        1.245        0.272      138.726       28.569        0.042      335.693        6.497      862.739
04/28/2014  00:59:00     -127.627       36.447      -19.565       41.398       45.091       27.537     1713.834     2033.219      758.285        1.125        0.225      132.729       22.994        0.030      335.637        6.403      862.773
04/28/2014  01:00:00     -100.242       24.623      -18.025       43.727       57.371       28.523     1912.019     3291.473      813.549        0.850        0.301      103.222       20.558        0.040      335.668        6.457      862.792
04/28/2014  01:01:00     -147.090       41.423      -16.088       51.193       50.822       29.745     2620.754     2582.915      884.777        1.485        0.304      152.812       23.298        0.023      335.629        6.391      862.808
04/28/2014  01:02:00     -147.492       31.111      -20.838       51.366       42.752       29.504     2638.423     1827.714      870.464        1.425        0.267      150.737       27.406        0.033      335.592        6.328      862.821
04/28/2014  01:03:00      -74.700       23.836       -8.948       33.296       44.249       18.600     1108.617     1957.954      345.945        0.482        0.171       78.410       13.618        0.030      335.536        6.234      862.827
04/28/2014  01:04:00     -108.205       28.694      -11.881       24.837       35.354       18.810      616.879     1249.870      353.830        0.745        0.111      111.945       14.871        0.018      335.508        6.186      862.846
04/28/2014  01:05:00     -103.423       39.839      -12.465       29.567       46.920       21.435      874.197     2201.502      459.460        0.799        0.177      110.831       22.504        0.041      335.515        6.201      862.866
04/28/2014  01:06:00      -97.612       43.746      -13.811       32.851       43.139       20.506     1079.198     1860.962      420.488        0.750        0.168      106.966        9.003        0.007      335.669        6.457      862.876
04/28/2014  01:07:00     -165.037       -9.657      -14.425       57.948       42.289       27.060     3357.953     1788.358      732.220        1.671        0.294      165.320       30.325        0.034      335.513        6.195      862.879
04/28/2014  01:08:00     -109.710      -22.730        4.546       81.699       68.077       45.224     6674.687     4634.483     2045.170        1.296        0.668      112.040       47.604        0.181      335.401        6.009      862.888
04/28/2014  01:09:00      -98.140        6.849      -17.187       36.325       26.423       27.067     1319.515      698.150      732.645        0.636        0.138       98.379       16.494        0.028      335.420        6.040      862.913
04/28/2014  01:10:00      -95.217       35.451      -13.793       36.641       33.298       19.356     1342.599     1108.741      374.647        0.667        0.141      101.603       16.182        0.025      335.415        6.035      862.937
04/28/2014  01:11:00     -154.041     -109.277      -16.034       84.330       76.508       46.081     7111.494     5853.487     2123.470        2.550        0.754      188.866       37.048        0.038      335.383        5.978      862.948
04/28/2014  01:12:00     -179.019      -74.650        5.224      113.897       73.987       48.423    12972.501     5474.059     2344.748        2.922        1.040      193.960       59.154        0.093      335.406        6.015      862.949
04/28/2014  01:13:00     -130.767      -30.136       -8.247       57.543       43.432       22.701     3311.195     1886.317      515.336        1.189        0.286      134.195       26.272        0.038      335.374        5.964      862.972
04/28/2014  01:14:00     -108.447      -18.635       -5.053       65.506       52.519       31.871     4291.073     2758.270     1015.779        1.010        0.403      110.037       29.982        0.074      335.314        5.864      862.989
04/28/2014  01:15:00      -93.064        5.447       -8.627       65.518       37.659       27.138     4292.574     1418.218      736.485        0.760        0.322       93.224       21.609        0.054      335.359        5.939      862.998
04/28/2014  01:16:00      -47.596       -4.960        0.652       34.778       56.816       24.007     1209.487     3228.019      576.329        0.365        0.251       47.854       26.384        0.304      335.385        5.982      863.020
04/28/2014  01:17:00      -79.761      103.034      -11.705       58.274       82.120       38.415     3395.874     6743.664     1475.696        1.436        0.581      130.299       28.056        0.046      335.395        5.999      863.057
04/28/2014  01:18:00      -72.365       37.916       12.981       65.812       68.152       40.634     4331.237     4644.708     1651.118        0.873        0.531       81.696       34.720        0.181      335.362        5.946      863.084
04/28/2014  01:19:00      -83.736       12.812       -0.888       46.303       32.817       27.386     2143.922     1076.965      749.983        0.557        0.199       84.710       17.460        0.042      335.367        5.953      863.087
04/28/2014  01:20:00     -189.305       44.312      -20.592      106.654       41.603       43.564    11375.177     1730.794     1897.846        2.661        0.750      194.422       44.751        0.053      335.364        5.946      863.078
04/28/2014  01:21:00      -78.935       13.242       -6.841       44.739       31.652       21.692     2001.587     1001.879      470.563        0.496        0.174       80.038       21.624        0.073      335.353        5.930      863.051
04/28/2014  01:22:00     -110.097       19.899      -19.739       51.075       40.377       29.354     2608.645     1630.316      861.635        0.900        0.255      111.881       31.038        0.077      335.316        5.867      863.028
04/28/2014  01:23:00      -69.449      126.481      -13.291       53.778       92.479       42.392     2892.031     8552.394     1797.064        1.712        0.662      144.293       45.581        0.100      335.345        5.915      863.021
04/28/2014  01:24:00     -110.763      119.239      -29.161       45.887       58.460       28.531     2105.649     3417.515      814.038        1.684        0.317      162.747       31.630        0.038      335.383        5.978      863.023
04/28/2014  01:25:00     -215.376       89.872      -36.108       73.295       83.783       38.360     5372.197     7019.595     1471.468        3.481        0.693      233.375       37.344        0.026      335.363        5.944      863.033
04/28/2014  01:26:00     -124.482       69.783      -20.143       37.823       84.922       41.121     1430.603     7211.687     1690.942        1.555        0.517      142.708       15.871        0.012      335.354        5.932      863.041
04/28/2014  01:27:00     -132.433       44.161      -23.909       44.555       38.969       24.320     1985.106     1518.607      591.444        1.208        0.205      139.602       22.927        0.027      335.399        6.007      863.055
04/28/2014  01:28:00     -146.444       22.422      -16.383       57.818       40.994       25.845     3342.894     1680.472      667.973        1.395        0.285      148.151       20.709        0.020      335.402        6.011      863.045
04/28/2014  01:29:00      -29.739       34.900        0.089       43.550       74.525       28.948     1896.611     5553.928      838.006        0.519        0.414       45.853       25.905        0.319      335.462        6.111      862.978
04/28/2014  01:30:00     -105.991      -24.781       -8.367       46.355       55.739       27.940     2148.801     3106.794      780.659        0.898        0.302      108.850       22.007        0.041      335.458        6.104      862.933
04/28/2014  01:31:00     -142.004       24.546      -27.059       45.021       42.808       23.126     2026.856     1832.530      534.827        1.295        0.220      144.110       13.682        0.009      335.508        6.188      862.889
04/28/2014  01:32:00      -81.506       -3.698      -10.683       63.947       65.669       37.743     4089.261     4312.446     1424.508        0.830        0.491       81.590       19.519        0.057      335.438        6.072      862.869
04/28/2014  01:33:00     -117.612       67.015      -16.958       45.732       49.571       27.017     2091.460     2457.241      729.916        1.194        0.264      135.365       23.542        0.030      335.390        5.992      862.876
04/28/2014  01:34:00      -71.244        5.650       -9.659       43.660       35.252       25.544     1906.237     1242.720      652.495        0.450        0.190       71.468       23.638        0.109      335.465        6.117      862.872
04/28/2014  01:35:00     -169.269       -6.977      -14.550       77.320       69.829       32.642     5978.376     4876.111     1065.528        2.041        0.596      169.413       32.609        0.037      335.427        6.053      862.864
04/28/2014  01:36:00     -216.758       64.131      -34.119       93.487       51.769       34.277     8739.908     2679.978     1174.918        3.243        0.630      226.046       35.908        0.025      335.386        5.983      862.859
04/28/2014  01:37:00     -109.316       20.144      -15.641       86.368       66.210       37.275     7459.377     4383.776     1389.462        1.291        0.662      111.157       41.160        0.137      335.345        5.916      862.807
04/28/2014  01:38:00     -154.685      -21.788       -8.947       63.324       64.582       34.465     4009.881     4170.827     1187.803        1.692        0.468      156.212       32.304        0.043      335.254        5.765      862.773
04/28/2014  01:39:00     -120.466       24.715      -16.066       71.392       61.771       33.637     5096.751     3815.617     1131.464        1.271        0.502      122.975       32.934        0.072      335.260        5.775      862.747
04/28/2014  01:40:00     -184.954       46.434      -32.579       60.575       64.376       32.581     3669.351     4144.244     1061.541        2.315        0.444      190.693       28.553        0.022      335.339        5.904      862.721
04/28/2014  01:41:00     -147.217      -39.395       -3.670       60.487       63.655       38.109     3658.721     4051.936     1452.288        1.620        0.458      152.397       31.663        0.043      335.211        5.693      862.693
04/28/2014  01:42:00     -160.606      -62.734      -10.753       55.739       52.836       29.415     3106.789     2791.649      865.243        1.830        0.338      172.423       21.324        0.015      335.135        5.568      862.703
04/28/2014  01:43:00      -94.959        9.066      -11.235       44.618       49.921       22.645     1990.810     2492.112      512.798        0.711        0.250       95.390       13.972        0.021      335.179        5.641      862.723
04/28/2014  01:44:00     -147.699       -0.535      -20.508       54.516       54.627       24.334     2971.974     2984.148      592.144        1.439        0.327      147.700       21.884        0.022      335.254        5.765      862.744
04/28/2014  01:45:00      -74.071       32.356      -11.130       52.554       49.411       25.633     2761.940     2441.405      657.037        0.626        0.293       80.830       21.128        0.068      335.236        5.734      862.751
04/28/2014  01:46:00     -118.982      -20.212      -21.518       39.778       49.293       26.554     1582.296     2429.813      705.105        0.987        0.236      120.687       14.587        0.015      335.241        5.744      862.730
04/28/2014  01:47:00     -107.085       51.122       -7.687      104.911       59.389       46.354    11006.416     3527.028     2148.708        1.541        0.834      118.662       52.060        0.192      335.281        5.810      862.729
04/28/2014  01:48:00     -142.872       41.433      -12.263      101.777       57.573       36.523    10358.558     3314.612     1333.962        1.864        0.750      148.759       37.057        0.062      335.355        5.931      862.754
04/28/2014  01:49:00     -195.799      -67.706      -16.041       53.925       61.087       37.752     2907.853     3731.639     1425.248        2.562        0.403      207.175       21.610        0.011      335.351        5.925      862.770
04/28/2014  01:50:00     -148.332      -34.433       -5.173       69.240       65.115       37.304     4794.127     4239.991     1391.597        1.682        0.521      152.276       28.837        0.036      335.185        5.651      862.814
04/28/2014  01:51:00     -171.072      -49.745      -18.068       46.971       38.268       26.099     2206.250     1464.427      681.142        1.821        0.218      178.158       21.957        0.015      335.057        5.439      862.841
04/28/2014  01:52:00     -137.306      -58.058        2.703       39.781       48.294       25.312     1582.494     2332.305      640.678        1.339        0.228      149.076       24.491        0.027      334.988        5.324      862.837
04/28/2014  01:53:00     -103.532      -22.990      -13.185       39.243       31.190       22.615     1540.034      972.827      511.431        0.722        0.151      106.054       19.179        0.033      335.014        5.366      862.839
04/28/2014  01:54:00      -90.648      -20.749       -0.475       64.691       50.458       30.798     4184.972     2545.967      948.537        0.816        0.384       92.993       28.577        0.094      335.175        5.634      862.828
04/28/2014  01:55:00     -103.790      -38.024       -3.649       89.813       51.094       27.448     8066.422     2610.646      753.419        1.183        0.572      110.536       29.356        0.071      335.202        5.678      862.832
04/28/2014  01:56:00     -186.362       18.910      -28.119       56.087       58.840       40.513     3145.733     3462.132     1641.294        2.206        0.412      187.319       37.518        0.040      335.252        5.759      862.865
04/28/2014  01:57:00     -243.591        0.594      -32.920       60.069       65.117       38.372     3608.331     4240.182     1472.389        3.487        0.466      243.592       25.567        0.011      335.134        5.564      862.899
04/28/2014  01:58:00     -133.386       -9.568       -3.608       98.308       56.800       38.975     9664.469     3226.216     1519.070        1.615        0.720      133.729       50.777        0.144      335.069        5.459      862.905
04/28/2014  01:59:00     -127.493        3.975      -16.063       56.531       57.649       42.206     3195.699     3323.417     1781.380        1.241        0.415      127.555       44.219        0.120      335.126        5.552      862.894
04/28/2014  02:00:00     -113.130      -17.287       -4.210       55.546       39.661       26.134     3085.320     1573.032      682.987        0.923        0.267      114.443       31.030        0.074      335.101        5.512      862.890
04/28/2014  02:01:00     -124.829      -25.727       -6.788       31.580       41.028       21.369      997.301     1683.280      456.631        0.971        0.157      127.453       10.476        0.007      335.163        5.614      862.900
04/28/2014  02:02:00     -122.207      -17.885       -5.002       30.650       41.411       23.765      939.429     1714.870      564.795        0.925        0.161      123.509       14.882        0.015      335.092        5.497      862.902
04/28/2014  02:03:00      -99.134      -13.178      -16.692       22.890       27.942       17.462      523.943      780.779      304.934        0.594        0.080      100.006       11.773        0.014      335.103        5.516      862.885
04/28/2014  02:04:00      -92.159      -34.307      -26.685       44.330       31.489       18.691     1965.188      991.562      349.335        0.684        0.165       98.338       17.797        0.033      335.124        5.551      862.878
04/28/2014  02:05:00      -38.427       52.352       -1.576       54.917       57.264       39.001     3015.829     3279.112     1521.054        0.602        0.391       64.941       36.371        0.314      335.148        5.589      862.886
04/28/2014  02:06:00     -120.622      144.925      -30.979       49.492       75.924       32.677     2449.487     5764.434     1067.772        2.290        0.464      188.555       35.561        0.036      335.263        5.778      862.897
04/28/2014  02:07:00     -151.016      156.673      -38.366       56.584       65.411       36.791     3201.763     4278.590     1353.601        2.883        0.442      217.606       37.265        0.029      335.362        5.943      862.925
04/28/2014  02:08:00     -128.522      130.333      -22.670       55.663       45.488       38.091     3098.326     2069.165     1450.914        2.032        0.331      183.043       33.123        0.033      335.340        5.907      862.953
04/28/2014  02:09:00     -118.571      120.607      -26.210       70.383       47.370       35.921     4953.801     2243.913     1290.354        1.889        0.424      169.131       34.583        0.042      335.335        5.899      862.972
04/28/2014  02:10:00     -134.365      155.179      -30.132       77.566       84.471       49.296     6016.454     7135.270     2430.101        2.931        0.779      205.267       44.762        0.048      335.370        5.957      862.972
04/28/2014  02:11:00     -135.226      180.769      -34.658       47.223       55.907       36.074     2230.056     3125.611     1301.312        2.941        0.333      225.751       23.572        0.011      335.365        5.947      862.963
04/28/2014  02:12:00     -138.764      122.702      -23.123       62.929       45.945       32.182     3960.025     2110.972     1035.703        2.097        0.355      185.233       24.705        0.018      335.340        5.906      862.953
04/28/2014  02:13:00     -128.066      115.067      -19.249       58.373       60.174       36.635     3407.380     3620.917     1342.101        1.919        0.419      172.167       25.763        0.022      335.334        5.897      862.950
04/28/2014  02:14:00     -132.132       56.391      -16.586       50.992       55.895       35.361     2600.199     3124.223     1250.433        1.394        0.349      143.662       26.838        0.035      335.340        5.908      862.950
04/28/2014  02:15:00     -145.951      114.951      -37.131       56.933       75.556       40.766     3241.401     5708.693     1661.889        2.325        0.531      185.783       37.332        0.040      335.379        5.970      862.950
04/28/2014  02:16:00     -162.575       85.458      -18.702       62.356       45.688       39.388     3888.308     2087.409     1551.425        2.080        0.376      183.668       38.148        0.043      335.380        5.974      862.971
04/28/2014  02:17:00     -171.011        3.556       -8.205       52.498       70.894       32.533     2756.066     5026.015     1058.417        1.908        0.442      171.048       33.170        0.038      335.379        5.973      862.980
04/28/2014  02:18:00     -122.297       31.921      -11.574       43.304       44.078       25.244     1875.254     1942.883      637.282        1.028        0.223      126.394       22.158        0.031      335.343        5.912      862.981
04/28/2014  02:19:00      -87.568       11.986       -7.161       34.703       39.192       16.671     1204.331     1536.048      277.930        0.544        0.151       88.385       14.718        0.028      335.307        5.854      862.974
04/28/2014  02:20:00     -111.530        6.648       -1.678       46.154       49.423       21.539     2130.189     2442.673      463.912        0.876        0.252      111.728       21.366        0.037      335.291        5.826      862.972
04/28/2014  02:21:00      -98.230      -25.438      -15.461       52.403       40.952       26.352     2746.045     1677.070      694.438        0.783        0.256      101.470       24.143        0.057      335.248        5.755      862.965
04/28/2014  02:22:00     -130.938      -19.763       -5.511       41.280       28.223       25.451     1704.065      796.522      647.731        1.036        0.157      132.421       17.717        0.018      335.130        5.561      862.983
04/28/2014  02:23:00     -112.038       19.899      -10.438       49.792       49.590       28.975     2479.285     2459.130      839.523        0.942        0.289      113.792       28.041        0.061      335.129        5.557      863.014
04/28/2014  02:24:00     -132.330       29.683      -21.981       50.877       52.026       31.364     2588.486     2706.700      983.696        1.258        0.314      135.618       18.985        0.020      335.151        5.594      863.036
04/28/2014  02:25:00      -93.752        8.588       -4.522       44.633       48.592       29.861     1992.097     2361.196      891.683        0.706        0.262       94.144       24.165        0.066      335.177        5.636      863.068
04/28/2014  02:26:00     -117.633       41.886      -12.344       70.619       38.137       31.008     4987.089     1454.412      961.511        1.157        0.370      124.868       32.181        0.066      335.193        5.664      863.063
04/28/2014  02:27:00     -120.513       35.221      -10.265       47.727       36.936       33.106     2277.839     1364.261     1096.019        1.030        0.237      125.554       31.108        0.061      335.228        5.721      863.051
04/28/2014  02:28:00      -57.542       90.081      -16.529       30.372       42.206       23.986      922.455     1781.324      575.318        0.749        0.164      106.891       21.994        0.042      335.291        5.827      863.047
04/28/2014  02:29:00      -88.962      113.694      -10.768       42.146       72.034       36.520     1776.304     5188.885     1333.677        1.463        0.415      144.362       37.601        0.068      335.260        5.774      863.040
04/28/2014  02:30:00      -78.700      107.297      -15.010       36.639       52.464       28.411     1342.416     2752.516      807.184        1.142        0.245      133.065       23.024        0.030      335.278        5.805      863.040
04/28/2014  02:31:00     -120.685      115.721      -25.068       54.237       47.953       32.147     2941.624     2299.492     1033.409        1.743        0.314      167.201       34.441        0.042      335.207        5.687      863.046
04/28/2014  02:32:00     -107.147      127.100      -25.193       81.459       57.919       39.106     6635.616     3354.589     1529.310        1.989        0.576      166.237       42.038        0.064      335.206        5.685      863.057
04/28/2014  02:33:00     -103.218      120.248      -27.867       72.337       49.449       41.844     5232.594     2445.248     1750.879        1.766        0.471      158.473       32.388        0.042      335.197        5.669      863.083
04/28/2014  02:34:00     -117.169      141.008      -25.761       59.693       64.593       36.227     3563.234     4172.207     1312.388        2.166        0.452      183.335       31.160        0.029      335.206        5.683      863.107
04/28/2014  02:35:00     -137.021      148.253      -31.451       71.281       65.097       43.809     5081.010     4237.605     1919.263        2.649        0.562      201.875       42.982        0.045      335.205        5.680      863.113
04/28/2014  02:36:00     -126.178      196.609      -29.745       54.620       64.516       44.452     2983.382     4162.314     1975.944        3.229        0.456      233.615       32.082        0.019      335.242        5.742      863.112
04/28/2014  02:37:00     -192.106      202.735      -44.531       79.697       78.221       42.871     6351.645     6118.590     1837.964        4.715        0.715      279.296       45.138        0.026      335.271        5.790      863.108
04/28/2014  02:38:00     -155.024      175.088      -33.481       62.182       82.131       43.775     3866.551     6745.433     1916.284        3.417        0.626      233.855       34.652        0.022      335.269        5.789      863.103
04/28/2014  02:39:00     -153.861      147.477      -39.112       61.937       62.864       38.923     3836.224     3951.920     1515.003        2.813        0.465      213.126       40.714        0.036      335.288        5.820      863.094
04/28/2014  02:40:00     -152.862      130.044      -22.645       68.514       78.118       38.984     4694.118     6102.440     1519.756        2.655        0.616      200.694       31.290        0.024      335.303        5.844      863.079
04/28/2014  02:41:00     -134.634      132.083      -28.321       65.451       69.430       35.107     4283.789     4820.561     1232.496        2.335        0.517      188.605       36.680        0.038      335.335        5.900      863.068
04/28/2014  02:42:00     -146.538       98.224      -26.687       78.216       44.853       34.674     6117.761     2011.768     1202.261        2.058        0.467      176.412       27.899        0.025      335.347        5.919      863.035
04/28/2014  02:43:00     -110.795      157.508      -25.137       52.296       62.445       44.308     2734.824     3899.408     1963.218        2.316        0.430      192.573       40.905        0.045      335.326        5.883      863.013
04/28/2014  02:44:00     -144.621      160.707      -42.117       55.183       51.206       27.294     3045.118     2622.006      744.936        2.746        0.321      216.199       22.295        0.011      335.347        5.917      863.001
04/28/2014  02:45:00     -149.681      130.781      -27.526       58.053       65.653       36.029     3370.192     4310.362     1298.114        2.462        0.449      198.766       37.834        0.036      335.346        5.916      863.013
04/28/2014  02:46:00     -142.864      143.337      -31.211       49.657       71.134       37.134     2465.819     5060.033     1378.922        2.542        0.445      202.375       42.924        0.045      335.376        5.967      863.026
04/28/2014  02:47:00     -187.033      138.535      -47.386       64.577       65.451       41.646     4170.198     4283.843     1734.429        3.330        0.509      232.752       42.267        0.033      335.370        5.954      863.057
04/28/2014  02:48:00     -124.175      100.167      -25.332       72.523       62.458       40.420     5259.551     3901.035     1633.756        1.844        0.540      159.539       42.041        0.069      335.343        5.911      863.088
04/28/2014  02:49:00     -145.671      165.442      -43.462       50.359       90.629       34.032     2535.990     8213.683     1158.211        3.119        0.595      220.434       32.357        0.022      335.322        5.876      863.111
04/28/2014  02:50:00     -116.021      136.384      -21.589       61.854       82.004       41.648     3825.864     6724.706     1734.543        2.240        0.614      179.057       28.581        0.025      335.300        5.840      863.146
04/28/2014  02:51:00     -146.644      229.339      -30.405       65.697      101.391       48.589     4316.063    10280.057     2360.891        4.599        0.848      272.214       53.495        0.039      335.318        5.868      863.180
04/28/2014  02:52:00     -142.515      162.235      -29.507       72.971       70.028       48.411     5324.739     4903.871     2343.587        3.003        0.629      215.942       41.695        0.037      335.337        5.901      863.184
04/28/2014  02:53:00     -158.278      127.137      -27.351      100.762       52.902       39.538    10153.068     2798.608     1563.288        2.824        0.726      203.017       43.330        0.046      335.353        5.929      863.169
04/28/2014  02:54:00     -138.412      160.786      -30.798       55.028       63.978       42.985     3028.110     4093.140     1847.718        2.746        0.448      212.156       35.837        0.029      335.342        5.910      863.149
04/28/2014  02:55:00     -122.333      171.299      -21.490       54.831       88.668       39.043     3006.426     7861.932     1524.323        2.858        0.620      210.496       31.871        0.023      335.344        5.911      863.150
04/28/2014  02:56:00     -196.547      206.694      -45.985       67.500       71.856       49.705     4556.215     5163.265     2470.581        4.783        0.610      285.225       39.838        0.020      335.351        5.924      863.183
04/28/2014  02:57:00     -143.806      147.287      -36.086       66.291       73.314       37.353     4394.511     5374.909     1395.266        2.742        0.558      205.849       43.264        0.044      335.318        5.870      863.207
04/28/2014  02:58:00     -111.429       97.853      -20.603       55.095       44.361       31.759     3035.505     1967.858     1008.660        1.421        0.301      148.295       21.577        0.021      335.340        5.908      863.216
04/28/2014  02:59:00     -139.996      178.209      -28.418       56.341       74.271       42.218     3174.325     5516.131     1782.357        3.132        0.524      226.621       34.884        0.024      335.285        5.813      863.226
04/28/2014  03:00:00     -135.709      142.167      -26.142       59.836       81.719       37.484     3580.326     6678.054     1405.017        2.549        0.583      196.541       39.362        0.040      335.300        5.841      863.247
04/28/2014  03:01:00     -132.920      112.080      -16.534       64.950       50.429       38.389     4218.462     2543.110     1473.731        1.937        0.412      173.867       35.971        0.043      335.236        5.733      863.239
04/28/2014  03:02:00     -126.802      117.810      -35.773       66.295       69.062       39.068     4395.059     4769.510     1526.307        2.096        0.535      173.084       40.325        0.054      335.262        5.776      863.239
04/28/2014  03:03:00     -101.942       55.706      -10.056       71.936       49.664       30.400     5174.734     2466.483      924.182        1.108        0.428      116.169       30.532        0.069      335.269        5.789      863.263
04/28/2014  03:04:00     -119.260       71.822       -7.551       93.603       57.024       46.181     8761.442     3251.726     2132.693        1.679        0.707      139.217       53.981        0.150      335.302        5.844      863.297
04/28/2014  03:05:00      -55.085       47.911        3.216       51.008       45.706       31.728     2601.814     2089.040     1006.684        0.552        0.285       73.006       29.627        0.165      335.243        5.746      863.318
04/28/2014  03:06:00      -18.667       65.009       12.459       48.261       65.011       33.440     2329.092     4226.392     1118.228        0.620        0.384       67.636       28.589        0.179      335.258        5.772      863.321
04/28/2014  03:07:00      -89.103       43.978      -21.156       36.830       51.978       30.587     1356.446     2701.746      935.544        0.766        0.250       99.365       20.969        0.045      335.279        5.806      863.321
04/28/2014  03:08:00      -60.961       68.429      -24.290       36.147       65.865       31.230     1306.622     4338.233      975.315        0.780        0.331       91.644       25.980        0.080      335.351        5.925      863.334
04/28/2014  03:09:00      -70.710      -16.667      -12.335       24.854       42.960       20.530      617.712     1845.521      421.462        0.416        0.144       72.648       14.455        0.040      335.363        5.946      863.351
04/28/2014  03:10:00        6.859       -9.707       11.326       32.685       17.327       15.185     1068.340      300.235      230.584        0.093        0.080       11.886        6.171        0.270      335.292        5.828      863.365
04/28/2014  03:11:00       -3.848      -14.265       -2.136       34.030       18.626       18.826     1158.026      346.933      354.400        0.104        0.093       14.775       16.321        1.220      335.401        6.010      863.362
04/28/2014  03:12:00      -39.315       -8.384      -10.046       22.503       24.497       11.991      506.404      600.093      143.775        0.148        0.063       40.199       10.093        0.063      335.327        5.886      863.358
04/28/2014  03:13:00      -21.383        2.708       -2.290       22.760       23.796       15.346      518.019      566.233      235.486        0.089        0.066       21.554       10.380        0.232      335.283        5.811      863.361
04/28/2014  03:14:00      -48.957       -9.777       -1.942       24.950       22.776       13.326      622.499      518.758      177.590        0.191        0.066       49.924        8.630        0.030      335.138        5.571      863.376
04/28/2014  03:15:00      -34.002      -31.868       -3.246       31.638       18.858       12.334     1000.951      355.632      152.136        0.185        0.075       46.602        6.296        0.018      335.117        5.538      863.416
04/28/2014  03:16:00      -37.978       -8.848       -2.364       17.415       24.255        9.315      303.267      588.329       86.764        0.125        0.049       38.995        8.239        0.045      335.079        5.476      863.447
04/28/2014  03:17:00      -44.952      -41.229       -2.447       29.981       39.391       13.910      898.858     1551.645      193.476        0.318        0.132       60.996       14.015        0.053      335.017        5.372      863.480
04/28/2014  03:18:00      -24.068      -38.285        7.694       38.916       30.570       18.702     1514.468      934.519      349.749        0.245        0.140       45.221       22.094        0.239      334.941        5.247      863.491
04/28/2014  03:19:00      -46.654      -27.795        4.321       46.803       13.887       16.357     2190.476      192.840      267.551        0.281        0.133       54.306       20.220        0.139      334.937        5.238      863.503
04/28/2014  03:20:00      -16.299      -25.667        7.992       37.734       30.784       19.789     1423.833      947.643      391.612        0.188        0.138       30.405       14.975        0.243      334.932        5.231      863.509
04/28/2014  03:21:00      -44.212      -30.617       11.507       46.310       39.858       25.564     2144.657     1588.688      653.524        0.370        0.219       53.778       22.913        0.182      334.879        5.142      863.513
04/28/2014  03:22:00      -85.940      -22.914        8.938       51.851       45.111       27.315     2688.526     2034.982      746.085        0.673        0.273       88.943       26.463        0.089      334.838        5.075      863.498
04/28/2014  03:23:00       -3.868       -9.820       11.247       40.749       35.097       27.103     1660.515     1231.792      734.595        0.193        0.181       10.555       19.199        3.309      334.877        5.139      863.472
04/28/2014  03:24:00      -32.157      -35.471       -3.671       37.123       18.261       12.828     1378.148      333.472      164.557        0.209        0.094       47.878       15.221        0.101      334.881        5.146      863.453
04/28/2014  03:25:00        3.883      -14.727       11.030       21.366       21.069       22.885      456.509      443.899      523.708        0.089        0.071       15.230       20.836        1.872      334.884        5.151      863.457
04/28/2014  03:26:00      -16.314      -23.822        5.259       21.910       27.426       19.654      480.055      752.207      386.262        0.124        0.081       28.872       16.934        0.344      334.849        5.092      863.487
04/28/2014  03:27:00      -39.402      -17.054        5.596       35.354       22.468       18.346     1249.910      504.802      336.580        0.198        0.105       42.934       22.108        0.265      334.889        5.159      863.523
04/28/2014  03:28:00      -77.003       54.549      -17.859       43.260       53.944       21.780     1871.462     2909.999      474.358        0.724        0.263       94.366       25.706        0.074      334.905        5.187      863.549
04/28/2014  03:29:00      -20.427       11.751       -3.934       33.972       48.384       28.025     1154.103     2341.011      785.390        0.242        0.214       23.566       23.768        1.017      334.939        5.244      863.562
04/28/2014  03:30:00        0.693      -37.438        4.569       25.744       16.663       16.552      662.755      277.659      273.964        0.132        0.061       37.444       13.561        0.131      334.993        5.333      863.572
04/28/2014  03:31:00        2.522      -27.391        7.050       18.305       26.588       12.357      335.070      706.907      152.702        0.100        0.060       27.507        6.165        0.050      335.024        5.383      863.588
04/28/2014  03:32:00      -20.293      -56.223       -6.046       30.872       33.301       22.419      953.070     1108.968      502.625        0.309        0.128       59.773       19.632        0.108      334.925        5.220      863.598
04/28/2014  03:33:00      -26.327      -74.497       -7.600       34.755       24.082       16.433     1207.879      579.932      270.041        0.418        0.103       79.012       16.806        0.045      334.898        5.176      863.612
04/28/2014  03:34:00      -59.291      -66.215        7.981       28.568       39.188       21.853      816.151     1535.717      477.557        0.540        0.141       88.881        8.848        0.010      334.877        5.140      863.600
04/28/2014  03:35:00      -99.824      -98.883      -23.211       36.015       48.250       29.007     1297.087     2328.079      841.423        1.237        0.223      140.509       20.123        0.021      334.884        5.151      863.613
04/28/2014  03:36:00      -60.256     -114.294       -4.680       45.715       67.302       27.652     2089.906     4529.598      764.659        1.205        0.369      129.205       23.752        0.034      334.796        5.004      863.636
04/28/2014  03:37:00      -50.550      -44.558       -0.355       47.607       50.824       23.878     2266.444     2583.117      570.167        0.498        0.271       67.385       30.456        0.204      334.749        4.927      863.650
04/28/2014  03:38:00      -44.264      -45.587       -4.055       49.839       34.904       19.469     2483.907     1218.306      379.060        0.407        0.204       63.541       12.861        0.041      334.796        5.006      863.655
04/28/2014  03:39:00      -23.061      -20.943       15.883       36.986       24.837       25.709     1367.997      616.868      660.953        0.193        0.132       31.152       25.320        0.661      334.775        4.971      863.656
04/28/2014  03:40:00      -55.772      -64.245       -0.140       40.870       40.118       24.012     1670.325     1609.483      576.577        0.555        0.193       85.076       17.513        0.042      334.780        4.977      863.645
04/28/2014  03:41:00      -43.682      -45.372       -2.641       32.689       37.187       23.542     1068.567     1382.874      554.249        0.349        0.150       62.982       23.998        0.145      334.816        5.039      863.640
04/28/2014  03:42:00      -47.990      -58.121        9.070       41.799       51.533       25.509     1747.166     2655.682      650.706        0.541        0.253       75.373       31.308        0.173      334.758        4.942      863.634
04/28/2014  03:43:00      -47.714      -56.255       -7.627       30.043       55.390       30.797      902.598     3068.023      948.455        0.521        0.246       73.765        5.084        0.005      334.817        5.039      863.648
04/28/2014  03:44:00      -20.955      -70.652       -2.965       39.074       39.354       39.636     1526.741     1548.774     1570.982        0.504        0.232       73.694       26.784        0.132      334.784        4.985      863.650
04/28/2014  03:45:00      -63.218      -86.700      -12.027       46.416       44.448       24.727     2154.486     1975.591      611.406        0.820        0.237      107.301       11.983        0.012      334.766        4.955      863.656
04/28/2014  03:46:00      -17.868      -76.993       -3.045       43.632       47.080       22.833     1903.755     2216.552      521.341        0.545        0.232       79.039       13.713        0.030      334.759        4.943      863.670
04/28/2014  03:47:00      -32.424      -15.602       14.098       37.443       38.617       25.166     1401.978     1491.291      633.341        0.251        0.176       35.982       24.539        0.465      334.699        4.844      863.673
04/28/2014  03:48:00      -20.883        8.409        7.830       21.550       14.828       19.185      464.419      219.883      368.049        0.081        0.053       22.512       14.743        0.429      334.711        4.863      863.677
04/28/2014  03:49:00      -16.842       13.688        1.758       15.296       13.340       12.054      233.969      177.966      145.304        0.052        0.028       21.703        7.111        0.107      334.669        4.796      863.683
04/28/2014  03:50:00       -5.124        7.957       -6.078       15.396        8.395        8.405      237.045       70.478       70.638        0.025        0.019        9.464        4.593        0.236      334.643        4.749      863.691
04/28/2014  03:51:00       28.143       22.236       15.356       37.683       23.672       37.718     1420.016      560.383     1422.638        0.246        0.170       35.867       29.959        0.698      334.586        4.656      863.703
04/28/2014  03:52:00       81.252       57.362       49.738       40.639       35.314       31.032     1651.532     1247.091      962.961        0.811        0.193       99.460       21.042        0.045      334.538        4.577      863.710
04/28/2014  03:53:00       17.542       43.394       54.631       36.029       33.178       20.411     1298.098     1100.796      416.609        0.399        0.141       46.806       18.624        0.158      334.525        4.556      863.726
04/28/2014  03:54:00       20.650       81.218       80.187       30.676       28.851       19.719      941.019      832.404      388.855        0.781        0.108       83.802       15.407        0.034      334.553        4.601      863.747
04/28/2014  03:55:00       10.720       50.859       66.593       24.230       27.017       17.442      587.084      729.906      304.209        0.438        0.081       51.976       14.804        0.081      334.524        4.553      863.755
04/28/2014  03:56:00        7.562        1.252       36.412       22.564       48.793       33.794      509.116     2380.739     1142.009        0.271        0.202        7.664       35.984       22.043      334.610        4.697      863.758
04/28/2014  03:57:00       19.873      -67.867       21.010       28.636       35.447       23.256      820.044     1256.470      540.852        0.403        0.131       70.717       20.961        0.088      334.773        4.967      863.752
04/28/2014  03:58:00        9.780      -40.373       14.389       24.752       38.783       21.799      612.673     1504.138      475.187        0.226        0.130       41.540       13.671        0.108      334.675        4.803      863.756
04/28/2014  03:59:00      -16.326       15.450       16.838       15.912       15.742       10.730      253.190      247.803      115.142        0.070        0.031       22.478        2.837        0.016      334.545        4.589      863.779
04/28/2014  04:00:00      -41.429       43.973        0.920       28.137       18.431       13.638      791.683      339.703      185.994        0.248        0.066       60.415       17.561        0.084      334.548        4.593      863.810
04/28/2014  04:01:00      -68.929       41.407      -14.293       16.662       17.294        9.278      277.615      299.081       86.088        0.367        0.033       80.410        5.480        0.005      334.520        4.546      863.829
04/28/2014  04:02:00      -52.551        5.765       -4.371       16.328       14.859        9.425      266.602      220.804       88.825        0.169        0.029       52.866        6.960        0.017      334.488        4.495      863.825
04/28/2014  04:03:00      -31.245       -5.213        0.391       14.215       11.646        8.745      202.077      135.629       76.483        0.071        0.021       31.677        5.803        0.034      334.492        4.502      863.799
04/28/2014  04:04:00      -25.168      -32.543       -2.009       19.698       20.428       14.927      388.009      417.302      222.818        0.136        0.051       41.139       12.581        0.094      334.590        4.661      863.779
04/28/2014  04:05:00      -49.801      -23.779        3.714       17.365       32.201       14.423      301.527     1036.917      208.011        0.230        0.077       55.187        8.320        0.023      334.635        4.737      863.782
04/28/2014  04:06:00      -17.955      -12.803       12.778       30.312       19.654       16.775      918.835      386.264      281.413        0.112        0.079       22.052       19.230        0.760      334.548        4.593      863.805
04/28/2014  04:07:00      -57.125      -41.329        9.140       57.986       30.508       20.071     3362.359      930.712      402.853        0.487        0.235       70.507       22.836        0.105      334.618        4.709      863.826
04/28/2014  04:08:00      -23.864      -37.361       12.849       26.406       23.384       20.206      697.289      546.834      408.286        0.189        0.083       44.332       14.834        0.112      334.671        4.798      863.855
04/28/2014  04:09:00      -46.267      -44.321        5.541       31.813       17.248       19.294     1012.094      297.478      372.268        0.291        0.084       64.070       18.347        0.082      334.629        4.728      863.873
04/28/2014  04:10:00      -51.477      -38.045        4.740       37.541       15.280       17.647     1409.324      233.487      311.410        0.304        0.098       64.011       19.924        0.097      334.553        4.602      863.898
04/28/2014  04:11:00      -41.878      -42.384        0.844       32.109       22.090       20.557     1031.020      487.961      422.589        0.275        0.097       59.583       15.752        0.070      334.637        4.740      863.929
04/28/2014  04:12:00        4.618       -5.635       13.182       16.398       15.590       13.346      268.887      243.053      178.107        0.046        0.035        7.286        9.759        1.794      334.638        4.743      863.940
04/28/2014  04:13:00      -40.817      -54.556        4.365       40.641       38.493       20.637     1651.675     1481.705      425.874        0.411        0.178       68.135       22.839        0.112      334.564        4.620      863.930
04/28/2014  04:14:00      -54.828      -57.625        2.888       36.513       28.899       21.789     1333.206      835.137      474.782        0.449        0.132       79.541       21.979        0.076      334.515        4.537      863.931
04/28/2014  04:15:00      -68.312      -72.872       -8.998       30.284       27.687       16.022      917.112      766.586      256.698        0.600        0.097       99.884       18.525        0.034      334.506        4.524      863.933
04/28/2014  04:16:00      -76.457      -60.125        0.054       19.579       21.967       15.522      383.351      482.552      240.938        0.528        0.055       97.266       10.704        0.012      334.500        4.514      863.941
04/28/2014  04:17:00      -61.511      -52.647        4.125       35.886       33.270       21.548     1287.818     1106.887      464.323        0.472        0.143       80.965       21.281        0.069      334.512        4.534      863.949
04/28/2014  04:18:00      -62.971      -42.026       -2.119       28.678       25.160       14.232      822.433      633.011      202.557        0.370        0.083       75.707       13.924        0.034      334.477        4.475      863.962
04/28/2014  04:19:00      -26.166      -38.496       -0.466       29.048       24.544       12.171      843.809      602.428      148.145        0.188        0.080       46.547       13.492        0.084      334.521        4.548      863.977
04/28/2014  04:20:00      -20.801       -8.224        4.134       15.583       13.454       10.617      242.817      180.998      112.712        0.053        0.027       22.368        8.358        0.140      334.514        4.537      863.992
04/28/2014  04:21:00       23.780       28.045       17.719       11.279       11.086        9.811      127.207      122.909       96.253        0.101        0.017       36.769        3.273        0.008      334.536        4.573      864.011
04/28/2014  04:22:00       50.279       33.180       15.153       14.099       11.273       16.249      198.785      127.079      264.034        0.222        0.029       60.240        7.098        0.014      334.539        4.579      864.018
04/28/2014  04:23:00       35.840       24.148       25.574       27.430       14.849       14.105      752.406      220.488      198.959        0.185        0.059       43.216       11.095        0.066      334.505        4.523      864.015
04/28/2014  04:24:00       39.556       32.077        6.652        7.843        8.243        7.664       61.516       67.955       58.734        0.141        0.009       50.927        4.070        0.006      334.406        4.359      863.998
04/28/2014  04:25:00       22.288       19.779       14.555       18.897       11.042        7.283      357.106      121.928       53.039        0.082        0.027       29.798       10.023        0.113      334.474        4.471      863.994
04/28/2014  04:26:00       16.880       14.595       10.607       17.233       13.292        9.138      296.979      176.683       83.504        0.058        0.028       22.314       10.532        0.223      334.506        4.523      863.992
04/28/2014  04:27:00        3.319       23.582        8.982       10.373        6.755        5.941      107.601       45.625       35.294        0.042        0.009       23.815        5.616        0.056      334.456        4.440      863.994
04/28/2014  04:28:00      -23.069       18.674        4.262       11.440        8.682        7.192      130.865       75.385       51.723        0.058        0.013       29.680        6.137        0.043      334.459        4.447      863.993
04/28/2014  04:29:00      -13.703       24.697       -3.771        6.701       12.592        6.176       44.899      158.549       38.146        0.053        0.012       28.244        6.001        0.045      334.382        4.320      863.993
04/28/2014  04:30:00        9.950       64.832      -15.379       15.757       20.310       11.366      248.282      412.503      129.190        0.266        0.039       65.592        5.664        0.007      334.047        3.761      863.995
04/28/2014  04:31:00        3.924       53.425       -6.386       12.690       17.635       12.743      161.026      310.985      162.379        0.177        0.032       53.569        5.939        0.012      334.306        4.192      863.983
04/28/2014  04:32:00      -26.010       15.425        4.070       21.876       18.302       13.537      478.564      334.959      183.240        0.096        0.050       30.240        9.575        0.100      334.246        4.093      863.980
04/28/2014  04:33:00      -49.161       54.978       -1.538       18.283       22.027       15.513      334.266      485.175      240.660        0.325        0.053       73.752        8.865        0.014      334.306        4.192      863.975
04/28/2014  04:34:00      -54.797        0.874       -5.437       16.479       12.620        9.436      271.561      159.258       89.041        0.178        0.026       54.804        8.157        0.022      334.409        4.364      863.983
04/28/2014  04:35:00      -53.359        8.839       -6.938       12.619       10.565        9.943      159.228      111.615       98.872        0.167        0.018       54.086        7.924        0.021      334.406        4.356      863.992
04/28/2014  04:36:00      -52.909        9.241      -13.934       11.590       17.078        8.591      134.329      291.660       73.803        0.179        0.025       53.710        6.472        0.015      334.412        4.369      864.002
04/28/2014  04:37:00      -20.206      -34.993       -0.466       23.986       14.805       15.564      575.340      219.190      242.226        0.133        0.052       40.408        3.325        0.007      334.447        4.427      864.005
04/28/2014  04:38:00       -0.475      -40.812        8.024       12.305       16.550       14.280      151.403      273.893      203.923        0.118        0.031       40.815        9.941        0.059      334.535        4.572      864.010
04/28/2014  04:39:00        5.121      -24.013       11.000       15.137       20.272       18.049      229.133      410.951      325.761        0.084        0.048       24.553       14.079        0.329      334.549        4.594      864.008
04/28/2014  04:40:00        4.604        8.763       19.087       21.171       22.636       16.812      448.199      512.396      282.627        0.085        0.062        9.899       15.645        2.498      334.515        4.539      864.001
04/28/2014  04:41:00        6.364      -16.342        5.290       18.450       24.470       19.097      340.419      598.783      364.683        0.082        0.065       17.537       14.557        0.689      334.587        4.659      863.984
04/28/2014  04:42:00      -22.198      -18.775       -6.971       23.841       25.406       15.212      568.392      645.452      231.408        0.117        0.072       29.073       13.960        0.231      334.528        4.561      863.981
04/28/2014  04:43:00       10.810       13.452        3.806        7.792       11.507       11.313       60.718      132.418      127.991        0.032        0.016       17.257        8.135        0.222      334.431        4.401      863.968
04/28/2014  04:44:00       -3.438       15.462        3.053       11.090        8.805        7.136      122.980       77.521       50.928        0.026        0.013       15.840        5.638        0.127      334.381        4.318      863.964
04/28/2014  04:45:00       -3.609        4.391        3.858       10.691        8.683       10.414      114.302       75.395      108.448        0.017        0.015        5.684        8.120        2.041      334.282        4.152      863.937
04/28/2014  04:46:00      -42.917      -19.192       -2.999       23.057       23.098       10.966      531.608      533.528      120.261        0.170        0.059       47.012        6.024        0.016      334.256        4.109      863.936
04/28/2014  04:47:00      -68.406      -23.724       -9.327       10.185       10.370        9.489      103.729      107.544       90.033        0.282        0.015       72.403        2.550        0.001      334.275        4.140      863.930
04/28/2014  04:48:00      -68.505      -16.646       -7.816       10.179       13.525        8.004      103.622      182.926       64.068        0.269        0.018       70.498        4.633        0.004      334.231        4.069      863.927
04/28/2014  04:49:00      -57.240      -17.853       -6.876        9.164        8.331        7.014       83.974       69.403       49.196        0.192        0.010       59.960        5.135        0.007      334.308        4.196      863.915
04/28/2014  04:50:00      -31.002      -15.469       -3.037       12.668       11.029        8.679      160.485      121.634       75.331        0.078        0.018       34.647        4.270        0.015      334.368        4.294      863.909
04/28/2014  04:51:00      -29.395       -0.648       -6.913       11.177        7.354       11.000      124.934       54.086      121.006        0.061        0.015       29.402       10.503        0.128      334.318        4.211      863.906
04/28/2014  04:52:00      -39.454       -4.887       -5.392       12.757        9.339        8.787      162.746       87.225       77.218        0.097        0.016       39.756        7.841        0.039      334.261        4.118      863.920
04/28/2014  04:53:00      -59.545      -27.926       -3.836       19.239       11.769       11.949      370.129      138.501      142.777        0.250        0.033       65.769        8.383        0.016      334.299        4.181      863.944
04/28/2014  04:54:00      -32.158      -29.975        3.500       36.884       22.646       15.982     1360.436      512.828      255.427        0.204        0.106       43.962       12.514        0.081      334.244        4.088      863.964
04/28/2014  04:55:00      -55.495      -50.279       -2.774       15.927       20.120       12.348      253.680      404.812      152.466        0.321        0.041       74.885        7.442        0.010      334.245        4.092      863.977
04/28/2014  04:56:00      -27.330      -37.626        2.397       23.048       26.813       17.677      531.210      718.940      312.465        0.187        0.078       46.504       12.089        0.068      334.213        4.039      863.981
04/28/2014  04:57:00      -36.606      -41.704        4.906       31.734       26.473       12.388     1007.028      700.800      153.472        0.248        0.093       55.491       12.001        0.047      334.173        3.972      863.991
04/28/2014  04:58:00      -45.413      -73.487        2.599       41.116       31.625       24.092     1690.528     1000.152      580.413        0.537        0.164       86.387       23.888        0.076      334.267        4.128      864.013
04/28/2014  04:59:00      -59.953      -90.555       -3.245       50.884       40.977       26.192     2589.203     1679.143      686.028        0.838        0.248      108.603       20.638        0.036      334.201        4.018      864.041
04/28/2014  05:00:00      -35.754      -59.088        9.601       51.898       45.737       24.841     2693.374     2091.867      617.066        0.513        0.270       69.063       22.668        0.108      334.126        3.892      864.071
04/28/2014  05:01:00     -106.205     -119.513       -7.044       51.822       49.131       35.802     2685.507     2413.814     1281.751        1.600        0.319      159.884       34.822        0.047      333.991        3.669      864.079
04/28/2014  05:02:00     -119.446     -100.333       -8.702       49.343       49.711       24.254     2434.746     2471.157      588.256        1.495        0.275      155.994       22.654        0.021      333.925        3.561      864.081
04/28/2014  05:03:00      -90.651      -55.305        3.176       38.427       25.051       18.120     1476.602      627.577      328.338        0.686        0.122      106.190       13.691        0.017      333.993        3.674      864.079
04/28/2014  05:04:00      -89.744      -90.219       -0.717       44.866       32.870       22.864     2012.973     1080.418      522.764        0.990        0.181      127.253       23.525        0.034      333.998        3.682      864.078
04/28/2014  05:05:00      -80.733      -89.103        9.028       53.350       42.340       27.217     2846.251     1792.702      740.749        0.996        0.269      120.238       27.857        0.054      333.905        3.526      864.071
04/28/2014  05:06:00     -102.086      -83.771       -3.437       40.593       45.288       28.142     1647.821     2051.047      791.992        1.097        0.225      132.058       27.455        0.043      333.875        3.477      864.049
04/28/2014  05:07:00      -99.869      -75.259       -1.970       33.659       36.901       23.827     1132.954     1361.684      567.737        0.935        0.153      125.051       17.401        0.019      333.888        3.500      864.043
04/28/2014  05:08:00      -87.337      -71.092        0.197       32.328       46.286       21.603     1045.106     2142.358      466.673        0.817        0.183      112.614       20.605        0.033      333.826        3.395      864.069
04/28/2014  05:09:00     -105.562     -111.671        0.097       50.726       43.973       31.149     2573.084     1933.636      970.258        1.454        0.274      153.667       25.968        0.029      333.739        3.250      864.114
04/28/2014  05:10:00     -130.530     -107.844      -16.939       39.911       32.031       20.550     1592.860     1025.979      422.315        1.600        0.152      169.318       18.681        0.012      333.668        3.135      864.163
04/28/2014  05:11:00     -107.222      -88.315       -6.919       35.391       46.627       22.379     1252.544     2174.113      500.820        1.163        0.196      138.911       19.598        0.020      333.700        3.186      864.203
04/28/2014  05:12:00      -63.702     -101.231      -12.551       32.960       28.541       25.324     1086.379      814.612      641.296        0.850        0.127      119.606        9.525        0.006      333.714        3.209      864.222
04/28/2014  05:13:00      -45.703      -54.647        7.407       41.739       31.180       18.785     1742.121      972.210      352.861        0.410        0.153       71.239       22.201        0.097      333.790        3.337      864.224
04/28/2014  05:14:00      -57.394      -36.556        6.529       35.624       36.895       20.516     1269.082     1361.226      420.911        0.386        0.153       68.047       22.394        0.108      333.736        3.247      864.231
04/28/2014  05:15:00      -60.333      -14.409        2.653       34.313       21.807       16.935     1177.374      475.563      286.806        0.290        0.097       62.030       16.179        0.068      333.649        3.101      864.232
04/28/2014  05:16:00      -88.305      -59.061       -1.629       29.974       24.191       19.754      898.428      585.207      390.235        0.658        0.094      106.235       13.909        0.017      333.672        3.140      864.228
04/28/2014  05:17:00      -43.321      -30.254        3.070       36.224       26.706       18.577     1312.186      713.228      345.122        0.259        0.119       52.839       20.029        0.144      333.644        3.094      864.222
04/28/2014  05:18:00      -65.855      -53.753       -3.803       37.133       23.662       19.977     1378.825      559.882      399.069        0.479        0.117       85.007       19.442        0.052      333.687        3.166      864.211
04/28/2014  05:19:00      -81.507      -27.245       -4.182       11.149       15.655       10.126      124.290      245.075      102.536        0.394        0.024       85.940        6.959        0.007      333.708        3.199      864.210
04/28/2014  05:20:00      -94.645      -32.207       -2.204       19.253       14.731       13.453      370.675      217.017      180.996        0.538        0.038       99.975       12.335        0.015      333.676        3.146      864.212
04/28/2014  05:21:00      -63.222      -39.034       -4.579       28.949       24.044       18.777      838.043      578.123      352.588        0.365        0.088       74.301       13.784        0.034      333.714        3.210      864.227
04/28/2014  05:22:00      -62.152      -38.722       -3.848       37.741       19.013       19.064     1424.401      361.478      363.436        0.376        0.107       73.228       19.092        0.068      333.729        3.234      864.241
04/28/2014  05:23:00      -66.901      -41.519       -6.953       33.999       15.340       17.504     1155.954      235.314      306.375        0.397        0.085       78.737       20.922        0.071      333.730        3.237      864.246
04/28/2014  05:24:00      -81.490      -48.910       -7.027       25.934       19.870       22.375      672.583      394.836      500.625        0.532        0.078       95.042       13.211        0.019      333.681        3.154      864.255
04/28/2014  05:25:00      -63.215      -35.602       -4.563       23.098       24.752       14.268      533.505      612.641      203.588        0.332        0.067       72.551        6.419        0.008      333.717        3.214      864.259
04/28/2014  05:26:00      -95.665       -6.651       -7.292       23.775       16.688       13.334      565.251      278.475      177.790        0.514        0.051       95.896       11.871        0.015      333.569        2.971      864.267
04/28/2014  05:27:00      -91.447       -6.536        0.098       38.389       22.753       19.757     1473.699      517.709      390.320        0.539        0.119       91.680       21.331        0.054      333.511        2.873      864.270
04/28/2014  05:28:00      -97.289       -8.411        0.720       37.106       24.829       23.288     1376.849      616.458      542.346        0.604        0.127       97.652       21.854        0.050      333.396        2.683      864.277
04/28/2014  05:29:00      -90.111      -31.504       -0.806       37.913       30.864       18.989     1437.429      952.587      360.575        0.593        0.138       95.460       20.684        0.047      333.476        2.815      864.284
04/28/2014  05:30:00      -80.310      -27.079        3.506       31.022       33.848       24.207      962.351     1145.654      585.971        0.494        0.135       84.753       15.833        0.035      333.552        2.941      864.297
04/28/2014  05:31:00      -73.032      -39.437       -2.735       45.089       32.544       17.704     2033.042     1059.107      313.445        0.515        0.170       83.000       18.922        0.052      333.555        2.945      864.315
04/28/2014  05:32:00     -116.883      -59.608       -3.188       31.472       35.599       22.179      990.479     1267.272      491.890        0.999        0.137      131.205       18.255        0.019      333.552        2.940      864.327
04/28/2014  05:33:00     -153.039      -56.958      -10.508       22.166       25.588       18.525      491.346      654.727      343.167        1.413        0.074      163.295       14.399        0.008      333.545        2.930      864.333
04/28/2014  05:34:00     -118.886      -42.325        6.277       50.019       31.232       20.956     2501.873      975.461      439.133        0.994        0.196      126.196       22.787        0.033      333.609        3.036      864.340
04/28/2014  05:35:00      -78.295      -12.532        4.763       46.200       33.905       19.134     2134.435     1149.573      366.105        0.498        0.183       79.291       23.002        0.084      333.551        2.939      864.349
04/28/2014  05:36:00      -76.577      -31.026        2.499       39.822       33.509       20.371     1585.764     1122.879      414.989        0.498        0.156       82.623       20.982        0.064      333.531        2.907      864.360
04/28/2014  05:37:00      -84.120      -35.656        0.540       31.449       25.444       17.858      989.035      647.376      318.912        0.515        0.098       91.365        6.696        0.005      333.564        2.960      864.371
04/28/2014  05:38:00     -122.529       -5.759       -6.252       32.495       20.135       16.425     1055.932      405.417      269.785        0.841        0.087      122.664       15.545        0.016      333.497        2.850      864.378
04/28/2014  05:39:00      -85.911      -10.003       -2.828       31.706       21.562       17.680     1005.249      464.932      312.575        0.464        0.089       86.492       15.086        0.030      333.449        2.770      864.381
04/28/2014  05:40:00      -63.747      -23.027        2.038       26.585       19.120       12.651      706.768      365.561      160.039        0.292        0.062       67.779       10.316        0.023      333.486        2.833      864.388
04/28/2014  05:41:00      -39.669      -12.920       -6.832       20.281       12.849       12.165      411.338      165.086      147.996        0.126        0.036       41.720        4.208        0.010      333.540        2.920      864.405
04/28/2014  05:42:00      -43.027      -19.311       -0.874       16.862       19.377       13.775      284.338      375.469      189.754        0.154        0.042       47.161       11.554        0.060      333.483        2.827      864.425
04/28/2014  05:43:00      -28.157      -45.811        9.319       23.010       30.906       16.631      529.447      955.200      276.587        0.237        0.088       53.772       18.592        0.120      333.573        2.977      864.448
04/28/2014  05:44:00      -20.459      -27.442        8.940       27.393       28.097       20.246      750.349      789.467      409.919        0.160        0.097       34.229       17.853        0.272      333.570        2.970      864.460
04/28/2014  05:45:00      -45.831      -29.598        1.401       38.291       25.507       17.971     1466.207      650.632      322.973        0.271        0.122       54.558       17.245        0.100      333.492        2.841      864.455
04/28/2014  05:46:00      -51.322      -42.629        5.828       43.879       29.758       23.544     1925.389      885.555      554.318        0.392        0.168       66.717       26.648        0.160      333.496        2.848      864.461
04/28/2014  05:47:00     -148.112      -95.698       -4.888       47.459       46.328       31.805     2252.334     2146.301     1011.542        1.826        0.271      176.339       26.830        0.023      333.347        2.601      864.472
04/28/2014  05:48:00     -139.032      -93.774       -9.163       57.233       47.977       29.203     3275.654     2301.807      852.837        1.732        0.322      167.700       19.533        0.014      333.307        2.536      864.491
04/28/2014  05:49:00     -109.752      -73.439       -0.505       60.396       46.750       27.773     3647.679     2185.586      771.323        1.202        0.330      132.057       30.773        0.054      333.297        2.520      864.511
04/28/2014  05:50:00      -98.374      -54.499       -7.134       56.859       42.353       29.780     3232.917     1793.741      886.843        0.930        0.296      112.461       33.450        0.088      333.253        2.446      864.541
04/28/2014  05:51:00     -107.438      -14.659       -0.054       64.496       27.791       24.076     4159.758      772.324      579.655        0.863        0.276      108.433       27.498        0.064      333.165        2.302      864.576
04/28/2014  05:52:00      -90.556      -40.821        5.152       42.909       43.172       22.638     1841.144     1863.831      512.461        0.705        0.211       99.332       21.980        0.049      333.157        2.288      864.603
04/28/2014  05:53:00      -77.053      -55.192        0.360       64.626       42.217       26.787     4176.512     1782.308      717.567        0.783        0.334       94.780       30.912        0.106      333.204        2.365      864.622
04/28/2014  05:54:00     -109.049      -97.115        2.945       53.717       41.934       30.548     2885.557     1758.433      933.170        1.345        0.279      146.024       27.644        0.036      333.106        2.204      864.639
04/28/2014  05:55:00      -85.869      -89.220       -0.115       72.838       58.551       33.805     5305.362     3428.271     1142.774        1.260        0.494      123.829       40.729        0.108      333.190        2.342      864.653
04/28/2014  05:56:00     -112.243      -74.091        2.377       80.881       41.694       34.849     6541.664     1738.408     1214.421        1.379        0.475      134.492       41.813        0.097      333.178        2.322      864.667
04/28/2014  05:57:00      -94.930      -59.583        0.136       45.658       50.246       20.946     2084.648     2524.677      438.735        0.880        0.252      112.080       15.715        0.020      333.256        2.451      864.666
04/28/2014  05:58:00     -111.826      -13.057        0.678       36.454       34.911       24.167     1328.913     1218.801      584.052        0.790        0.157      112.586       12.771        0.013      333.177        2.321      864.666
04/28/2014  05:59:00     -128.456      -25.240       -8.098       36.228       36.047       23.085     1312.432     1299.378      532.909        1.017        0.157      130.912       16.180        0.015      333.219        2.391      864.655
04/28/2014  06:00:00     -189.828      -32.933      -17.927       31.255       31.444       25.969      976.901      988.715      674.401        2.004        0.132      192.664       15.891        0.007      333.202        2.361      864.648
04/28/2014  06:01:00     -184.970      -43.869      -13.956       49.868       37.109       26.274     2486.828     1377.063      690.334        2.044        0.228      190.101       23.240        0.015      333.183        2.330      864.642
04/28/2014  06:02:00     -171.124      -37.937      -10.917       50.691       35.772       27.582     2569.532     1279.604      760.740        1.772        0.230      175.279       31.246        0.032      333.173        2.313      864.645
04/28/2014  06:03:00     -201.438      -55.648       -8.254       43.461       39.009       34.584     1888.828     1521.683     1196.072        2.417        0.230      208.983       24.750        0.014      333.205        2.365      864.655
04/28/2014  06:04:00     -207.965      -85.694      -10.550       43.053       35.303       25.830     1853.523     1246.319      667.188        2.723        0.188      224.928       22.445        0.010      333.181        2.323      864.684
04/28/2014  06:05:00     -137.792      -64.499       -1.465       70.986       48.034       29.157     5039.056     2307.275      850.141        1.567        0.410      152.140       35.077        0.053      333.203        2.363      864.696
04/28/2014  06:06:00     -174.003      -61.384      -10.115       38.813       28.766       26.389     1506.460      827.478      696.372        1.859        0.152      184.513       21.465        0.014      333.105        2.203      864.703
04/28/2014  06:07:00     -138.115      -30.830      -15.279       68.305       53.852       33.382     4665.521     2900.022     1114.346        1.447        0.434      141.514       36.842        0.068      333.123        2.232      864.706
04/28/2014  06:08:00     -116.740      -20.721       -7.554       51.081       50.512       26.604     2609.255     2551.414      707.772        0.999        0.293      118.565       24.665        0.043      333.120        2.228      864.681
04/28/2014  06:09:00     -123.803      -48.552       -4.403       37.610       37.740       25.144     1414.499     1424.277      632.205        1.059        0.174      132.983       16.067        0.015      333.164        2.298      864.678
04/28/2014  06:10:00      -64.922      -32.325        6.992       58.879       42.907       24.033     3466.772     1840.968      577.605        0.560        0.294       72.524       24.392        0.113      333.173        2.314      864.712
04/28/2014  06:11:00     -108.344      -15.718        3.185       47.413       30.280       23.264     2247.980      916.851      541.206        0.785        0.185      109.478       23.339        0.045      333.191        2.343      864.740
04/28/2014  06:12:00     -117.509      -24.851       -6.323       36.800       27.736       17.909     1354.261      769.277      320.736        0.845        0.122      120.108       16.367        0.019      333.224        2.396      864.755
04/28/2014  06:13:00     -123.797      -36.506       -1.978       47.667       43.511       23.774     2272.110     1893.222      565.182        1.070        0.237      129.067       25.014        0.038      333.190        2.341      864.780
04/28/2014  06:14:00      -78.877      -54.238       -1.675       39.144       33.272       19.893     1532.272     1107.017      395.734        0.610        0.152       95.726       16.761        0.031      333.252        2.443      864.788
04/28/2014  06:15:00      -53.063      -49.766       -8.049       48.474       26.788       22.636     2349.712      717.591      512.381        0.447        0.179       72.748       22.428        0.095      333.322        2.560      864.793
04/28/2014  06:16:00      -51.641      -19.125        1.048       27.023       24.901       18.059      730.225      620.035      326.138        0.235        0.084       55.069       14.158        0.066      333.306        2.533      864.822
04/28/2014  06:17:00      -35.339      -41.338      -10.108       29.369       34.293       19.372      862.523     1176.044      375.286        0.274        0.121       54.385       15.786        0.084      333.341        2.592      864.833
04/28/2014  06:18:00       -3.986      -15.066       -7.418       27.105       36.352       11.058      734.671     1321.461      122.279        0.124        0.109       15.584       13.437        0.743      333.355        2.616      864.854
04/28/2014  06:19:00        8.583      -30.651        4.817       19.224       16.204       17.154      369.578      262.565      294.272        0.098        0.046       31.830       13.220        0.173      333.347        2.602      864.889
04/28/2014  06:20:00      -36.350       -9.757       -1.420       26.803       23.811       13.198      718.383      566.982      174.191        0.144        0.073       37.636       11.611        0.095      333.338        2.586      864.905
04/28/2014  06:21:00      -37.065       -2.870       -2.039       16.314       17.100       14.862      266.132      292.425      220.868        0.108        0.039       37.176        3.656        0.010      333.246        2.434      864.922
04/28/2014  06:22:00      -74.021      -13.549      -14.178       33.172       19.545       18.567     1100.357      382.011      344.726        0.385        0.091       75.251       18.022        0.057      333.267        2.469      864.950
04/28/2014  06:23:00      -47.753      -35.839       -7.108       27.727       21.721       16.952      768.809      471.817      287.357        0.257        0.076       59.706        8.896        0.022      333.397        2.684      864.974
04/28/2014  06:24:00     -108.721      -28.861      -13.886       32.861       19.622       13.715     1079.873      385.021      188.110        0.725        0.083      112.487       14.174        0.016      333.368        2.636      865.000
04/28/2014  06:25:00     -130.551      -48.296       -9.976       23.364       28.241       21.017      545.871      797.540      441.722        1.063        0.089      139.198       13.547        0.009      333.308        2.536      865.010
04/28/2014  06:26:00     -118.574      -36.612       -2.881       31.464       32.326       17.268      990.004     1044.955      298.192        0.887        0.117      124.097       18.525        0.022      333.356        2.616      864.995
04/28/2014  06:27:00     -108.053      -57.291       -3.164       35.607       36.959       22.105     1267.823     1365.997      488.624        0.904        0.156      122.302       21.540        0.031      333.316        2.550      864.977
04/28/2014  06:28:00     -150.078      -16.211       -6.433       39.703       37.806       21.258     1576.336     1429.285      451.888        1.314        0.173      150.951       19.306        0.016      333.315        2.548      864.970
04/28/2014  06:29:00     -123.197      -15.007      -16.547       26.833       15.187       16.935      720.016      230.633      286.779        0.846        0.062      124.107        8.843        0.005      333.347        2.603      864.973
04/28/2014  06:30:00      -75.691      -35.572       -0.648       32.394       19.141       16.258     1049.359      366.366      264.333        0.434        0.084       83.633       15.165        0.033      333.402        2.693      864.984
04/28/2014  06:31:00      -97.293      -14.299       -8.474       18.492       26.738       17.902      341.939      714.930      320.480        0.556        0.069       98.339       15.367        0.024      333.438        2.752      865.009
04/28/2014  06:32:00     -112.086      -39.708       -6.588       23.740       22.570       13.204      563.587      509.414      174.334        0.772        0.062      118.912       10.290        0.007      333.414        2.712      865.044
04/28/2014  06:33:00      -84.097      -35.373       -0.324       22.378       25.204       14.584      500.795      635.225      212.703        0.484        0.067       91.234       10.168        0.012      333.471        2.806      865.065
04/28/2014  06:34:00      -62.066      -29.591       -4.593       24.994       21.620       15.015      624.689      467.431      225.438        0.303        0.066       68.760       13.688        0.040      333.469        2.802      865.086
04/28/2014  06:35:00      -24.907       -7.701        4.571       15.153       14.589       10.582      229.619      212.833      111.981        0.063        0.028       26.070        8.621        0.109      333.575        2.978      865.104
04/28/2014  06:36:00      -13.113       -2.759        4.916       17.766       16.227       12.094      315.643      263.309      146.253        0.046        0.036       13.400        8.728        0.424      333.696        3.182      865.123
04/28/2014  06:37:00       11.285      -27.439       18.482       18.170       23.326       16.955      330.147      544.106      287.462        0.119        0.058       29.669       14.505        0.239      333.773        3.306      865.121
04/28/2014  06:38:00      -19.992      -31.552       13.865       29.405       24.255       18.244      864.665      588.283      332.850        0.169        0.089       37.353       18.580        0.247      333.670        3.136      865.116
04/28/2014  06:39:00      -61.021      -51.067       -5.078       45.194       30.598       20.187     2042.476      936.239      407.527        0.487        0.169       79.570       23.206        0.085      333.555        2.946      865.111
04/28/2014  06:40:00      -40.815      -16.496       -0.689       33.790       25.745       20.456     1141.743      662.782      418.458        0.208        0.111       44.022       21.974        0.249      333.554        2.944      865.109
04/28/2014  06:41:00      -39.744      -36.244       12.271       49.825       35.299       20.446     2482.575     1246.042      418.034        0.359        0.207       53.788       20.049        0.139      333.562        2.957      865.100
04/28/2014  06:42:00      -33.506      -52.667       16.219       45.913       44.084       30.717     2108.022     1943.386      943.555        0.458        0.250       62.422       26.129        0.175      333.580        2.988      865.107
04/28/2014  06:43:00      -67.945      -85.699       12.474       60.785       67.990       33.847     3694.836     4622.629     1145.629        1.079        0.473      109.366       38.419        0.123      333.562        2.957      865.128
04/28/2014  06:44:00     -108.761      -92.641       -1.856       62.549       53.445       33.710     3912.351     2856.391     1136.360        1.416        0.395      142.868       38.128        0.071      333.489        2.836      865.142
04/28/2014  06:45:00     -146.231     -139.758      -10.504       37.778       34.028       27.038     1427.202     1157.887      731.065        2.217        0.166      202.276       23.055        0.013      333.423        2.724      865.165
04/28/2014  06:46:00     -127.737     -115.571       -7.734       33.730       32.258       28.446     1137.722     1040.573      809.195        1.636        0.149      172.260       24.382        0.020      333.465        2.796      865.184
04/28/2014  06:47:00     -100.280     -109.077       -8.018       35.710       36.937       21.743     1275.213     1364.308      472.763        1.256        0.156      148.168       19.059        0.017      333.522        2.892      865.195
04/28/2014  06:48:00      -96.058      -87.242        3.482       43.964       37.497       29.439     1932.843     1406.016      866.684        1.053        0.210      129.763       26.391        0.041      333.535        2.912      865.217
04/28/2014  06:49:00     -121.070     -106.320       -4.317       47.169       36.332       26.154     2224.883     1320.038      684.045        1.510        0.211      161.127       24.462        0.023      333.590        3.003      865.229
04/28/2014  06:50:00     -106.650      -61.101        6.387       49.271       37.227       22.246     2427.670     1385.818      494.884        0.973        0.215      122.912       22.342        0.033      333.700        3.186      865.233
04/28/2014  06:51:00     -104.726      -86.535      -10.853       26.003       27.744       20.627      676.142      769.715      425.469        1.022        0.094      135.852       13.588        0.010      333.706        3.195      865.238
04/28/2014  06:52:00     -101.932      -71.479       -7.738       35.663       28.528       21.757     1271.880      813.844      473.388        0.906        0.128      124.496       12.355        0.010      333.753        3.274      865.254
04/28/2014  06:53:00      -56.487      -62.647       10.952       56.843       53.334       33.111     3231.138     2844.487     1096.360        0.720        0.359       84.353       44.667        0.280      333.837        3.413      865.261
04/28/2014  06:54:00      -96.817     -127.648       -3.699       49.592       53.281       32.433     2459.408     2838.845     1051.904        1.601        0.318      160.211       29.340        0.034      333.581        2.988      865.263
04/28/2014  06:55:00     -128.534     -123.669      -11.535       37.953       35.699       24.089     1440.431     1274.451      580.256        1.762        0.165      178.367       23.461        0.017      333.557        2.949      865.259
04/28/2014  06:56:00     -107.519      -86.598        4.675       51.900       52.431       26.865     2693.563     2749.005      721.743        1.262        0.308      138.056       33.260        0.058      333.577        2.982      865.252
04/28/2014  06:57:00     -111.394     -117.057       -6.685       43.989       48.978       26.696     1934.992     2398.868      712.667        1.560        0.252      161.589       21.489        0.018      333.540        2.920      865.245
04/28/2014  06:58:00     -137.440     -123.202      -11.024       54.177       44.572       32.847     2935.142     1986.692     1078.894        2.009        0.300      184.576       34.966        0.036      333.523        2.893      865.248
04/28/2014  06:59:00     -137.632     -115.638       -2.948       43.136       45.622       26.918     1860.672     2081.324      724.575        1.849        0.233      179.763       24.175        0.018      333.550        2.937      865.256
04/28/2014  07:00:00     -109.852      -83.045        4.094       41.357       40.306       26.250     1710.368     1624.568      689.083        1.150        0.201      137.709       22.311        0.026      333.610        3.038      865.265
04/28/2014  07:01:00      -94.753     -117.138       -3.044       37.302       50.016       24.660     1391.424     2501.589      608.121        1.360        0.225      150.664       17.456        0.013      333.614        3.044      865.260
04/28/2014  07:02:00      -72.165      -92.217       -2.184       36.157       46.356       27.294     1307.340     2148.910      744.942        0.896        0.210      117.097       24.826        0.045      333.656        3.114      865.257
04/28/2014  07:03:00      -87.670      -53.340        1.461       39.098       36.977       27.893     1528.672     1367.317      778.000        0.710        0.184      102.621       25.499        0.062      333.690        3.171      865.270
04/28/2014  07:04:00      -43.153      -61.009       12.194       47.097       41.537       25.316     2218.137     1725.355      640.915        0.516        0.229       74.728       25.926        0.120      333.750        3.269      865.303
04/28/2014  07:05:00      -56.010     -125.707        1.819       40.242       38.014       22.659     1619.408     1445.098      513.427        1.126        0.179      137.621       23.165        0.028      333.645        3.096      865.338
04/28/2014  07:06:00      -18.038     -115.272        0.225       29.794       37.645       19.558      887.685     1417.183      382.503        0.815        0.134      116.674       13.918        0.014      333.731        3.237      865.377
04/28/2014  07:07:00      -49.234     -134.887       -3.777       23.968       36.301       20.547      574.441     1317.775      422.190        1.147        0.116      143.592       17.869        0.015      333.701        3.188      865.387
04/28/2014  07:08:00      -46.579      -98.815        1.819       39.365       47.529       27.274     1549.607     2259.035      743.858        0.824        0.228      109.243       26.208        0.058      333.745        3.261      865.407
04/28/2014  07:09:00      -57.525      -59.594        3.247       37.532       35.478       25.131     1408.650     1258.705      631.572        0.508        0.165       82.828       21.104        0.065      333.824        3.393      865.411
04/28/2014  07:10:00      -42.128      -55.598        4.467       40.520       39.782       23.940     1641.833     1582.578      573.117        0.434        0.190       69.757       22.075        0.100      333.915        3.544      865.417
04/28/2014  07:11:00      -68.499      -54.501       10.699       52.527       31.862       30.781     2759.132     1015.166      947.451        0.625        0.236       87.536       33.199        0.144      333.952        3.605      865.409
04/28/2014  07:12:00      -56.776      -90.946        1.998       35.715       48.267       23.764     1275.594     2329.708      564.726        0.783        0.209      107.214       24.727        0.053      333.861        3.454      865.404
04/28/2014  07:13:00      -57.379      -91.868        4.343       44.552       22.603       29.701     1984.908      510.887      882.123        0.756        0.169      108.314       24.056        0.049      333.913        3.540      865.409
04/28/2014  07:14:00      -79.450      -86.203      -12.621       27.354       37.035       20.067      748.242     1371.619      402.667        0.821        0.126      117.232       16.347        0.019      333.899        3.517      865.422
04/28/2014  07:15:00     -106.424      -84.586       -7.961       31.095       26.656       20.100      966.895      710.519      403.999        1.031        0.104      135.945        8.851        0.004      333.920        3.552      865.432
04/28/2014  07:16:00      -97.610      -67.831       -9.382       26.248       42.224       18.550      688.978     1782.826      344.091        0.852        0.141      118.865       17.767        0.022      333.919        3.550      865.432
04/28/2014  07:17:00      -69.059      -66.635       -1.899       31.303       21.064       18.479      979.851      443.686      341.486        0.549        0.088       95.966       18.039        0.035      334.007        3.696      865.448
04/28/2014  07:18:00      -59.053      -75.943       -7.436       26.486       27.056       17.272      701.493      732.044      298.323        0.552        0.087       96.201       14.158        0.022      334.000        3.684      865.463
04/28/2014  07:19:00      -34.118      -35.920       -0.817       27.692       19.662       13.383      766.866      386.603      179.112        0.189        0.067       49.541       10.775        0.047      334.062        3.788      865.490
04/28/2014  07:20:00      -34.352      -70.700        5.726       20.330       25.998       18.173      413.315      675.891      330.269        0.382        0.071       78.604       15.215        0.037      334.130        3.901      865.505
04/28/2014  07:21:00      -41.476      -64.268       -7.059       30.629       19.542       13.066      938.159      381.873      170.714        0.370        0.075       76.490       10.038        0.017      334.159        3.948      865.505
04/28/2014  07:22:00      -61.013      -11.764        3.205       29.975       30.194       21.625      898.505      911.678      467.643        0.307        0.114       62.137       19.553        0.099      334.280        4.147      865.488
04/28/2014  07:23:00      -39.339      -39.684        3.574       35.495       39.358       23.819     1259.924     1549.077      567.336        0.326        0.169       55.878       22.964        0.169      334.342        4.252      865.468
04/28/2014  07:24:00      -91.158      -70.785       -4.556       20.023       31.067       20.436      400.914      965.145      417.618        0.756        0.089      115.413       15.871        0.019      334.211        4.035      865.464
04/28/2014  07:25:00      -54.969      -16.952       -0.015       15.661       16.187       14.178      245.263      262.030      201.020        0.201        0.035       57.523        8.902        0.024      334.282        4.152      865.462
04/28/2014  07:26:00       -7.186       -8.669       25.112       20.729       39.728       20.399      429.680     1578.304      416.132        0.159        0.121       11.260       21.158        3.531      334.750        4.931      865.479
04/28/2014  07:27:00      -16.025       -0.729        5.029       26.025       26.487       20.512      677.297      701.549      420.758        0.104        0.090       16.042       15.450        0.927      334.598        4.677      865.501
04/28/2014  07:28:00      -71.740      -18.329        6.161       33.650       34.332       20.326     1132.340     1178.699      413.146        0.412        0.136       74.045        7.110        0.009      334.408        4.363      865.523
04/28/2014  07:29:00      -34.289      -14.951        7.411       22.773       16.113       13.923      518.626      259.638      193.848        0.121        0.049       37.406       12.676        0.115      334.701        4.847      865.541
04/28/2014  07:30:00        4.437       13.068       29.523       22.457       12.576       16.236      504.315      158.168      263.622        0.099        0.046       13.801       10.737        0.605      334.981        5.312      865.535
04/28/2014  07:31:00       -1.902       11.701       13.978       20.355       18.214       16.849      414.341      331.749      283.899        0.068        0.051       11.854        7.229        0.372      334.807        5.024      865.539
04/28/2014  07:32:00      -17.456       -0.529        8.557       39.834       21.334       17.819     1586.713      455.122      317.524        0.137        0.118       17.464       14.368        0.677      334.837        5.073      865.541
04/28/2014  07:33:00      -23.177       24.904       15.464       24.326       22.604       25.620      591.739      510.920      656.409        0.158        0.088       34.021       11.494        0.114      335.065        5.452      865.553
04/28/2014  07:34:00       -7.291        7.494       36.483       14.855       21.090       22.411      220.670      444.786      502.251        0.130        0.058       10.456       13.862        1.758      335.489        6.157      865.570
04/28/2014  07:35:00       -6.183      -17.596       12.079       15.559       19.929       23.726      242.072      397.174      562.929        0.085        0.060       18.651       14.765        0.627      335.000        5.345      865.575
04/28/2014  07:36:00      -33.089       28.986       14.194       34.247       26.810       21.762     1172.831      718.768      473.574        0.225        0.118       43.989       20.521        0.218      335.037        5.407      865.578
04/28/2014  07:37:00      -18.381      -31.970        7.543       21.322       36.515       20.381      454.637     1333.370      415.392        0.181        0.110       36.877       17.569        0.227      334.892        5.164      865.607
04/28/2014  07:38:00      -80.635      -17.446       -4.285       33.325       24.991       18.294     1110.550      624.526      334.671        0.445        0.103       82.501       16.285        0.039      334.580        4.647      865.628
04/28/2014  07:39:00        1.200      -24.408        5.050       35.412       28.715       23.225     1254.003      824.571      539.411        0.162        0.131       24.438       18.368        0.565      334.931        5.230      865.630
04/28/2014  07:40:00      -13.155       -8.090       19.066       29.575       24.821       24.709      874.701      616.089      610.538        0.135        0.105       15.444       22.109        2.049      335.401        6.012      865.628
04/28/2014  07:41:00      -28.686      -32.965        5.020       36.225       25.852       18.568     1312.278      668.311      344.777        0.213        0.116       43.698       18.322        0.176      334.920        5.211      865.623
04/28/2014  07:42:00      -32.307      -14.374       12.388       26.441       30.935       18.166      699.102      956.986      330.004        0.169        0.099       35.360       14.777        0.175      335.152        5.597      865.615
04/28/2014  07:43:00       -5.160       -4.799       18.536       26.270       22.891       18.595      690.093      524.000      345.768        0.098        0.078        7.047       20.147        8.175      335.386        5.988      865.603
04/28/2014  07:44:00      -19.012      -20.920       11.299       29.273       31.208       27.397      856.905      973.964      750.588        0.175        0.129       28.269       20.328        0.517      335.287        5.821      865.612
04/28/2014  07:45:00      -16.106       -5.666       25.046       31.607       22.066       20.356      999.018      486.909      414.358        0.141        0.095       17.073       19.351        1.285      335.625        6.385      865.630
04/28/2014  07:46:00        0.507       19.708       30.409       17.491       27.790       25.105      305.929      772.271      630.248        0.151        0.085       19.714       22.834        1.342      335.719        6.541      865.639
04/28/2014  07:47:00       11.155       -2.159       30.156       29.608       24.028       20.229      876.636      577.321      409.220        0.145        0.093       11.362       14.234        1.569      335.859        6.773      865.651
04/28/2014  07:48:00       23.315      -12.818       36.751       28.558       44.787       30.454      815.576     2005.913      927.457        0.290        0.187       26.606       26.500        0.992      335.621        6.377      865.670
04/28/2014  07:49:00       -0.339       50.711       68.746       23.855       31.717       22.763      569.070     1005.939      518.141        0.470        0.105       50.712       21.104        0.173      335.454        6.100      865.675
04/28/2014  07:50:00        1.179       18.499       39.929       26.316       25.495       24.559      692.520      649.995      603.134        0.194        0.097       18.537       15.603        0.709      335.656        6.436      865.675
04/28/2014  07:51:00        0.162      -34.262       29.617       22.422       44.774       22.127      502.741     2004.721      489.602        0.252        0.150       34.262       18.521        0.292      335.829        6.724      865.684
04/28/2014  07:52:00        1.516        0.066       62.161       29.956       66.516       42.060      897.375     4424.320     1769.064        0.548        0.355        1.517       46.162      925.783      335.578        6.305      865.695
04/28/2014  07:53:00       -8.214       21.461       54.174       24.450       53.681       23.199      597.812     2881.659      538.204        0.374        0.201       22.979       19.899        0.750      335.538        6.239      865.694
04/28/2014  07:54:00       17.115       48.143       81.722       32.562       45.997       25.191     1060.269     2115.703      634.592        0.655        0.191       51.095       25.398        0.247      335.599        6.341      865.692
04/28/2014  07:55:00        7.872       48.214       41.494       43.777       52.092       25.544     1916.440     2713.525      652.480        0.469        0.264       48.852       22.437        0.211      335.329        5.891      865.698
04/28/2014  07:56:00       19.803       30.314       65.147       49.511       55.797       41.621     2451.352     3113.321     1732.338        0.642        0.365       36.209       36.293        1.005      335.721        6.544      865.712
04/28/2014  07:57:00       57.247       44.956       84.346       62.813       56.303       48.881     3945.514     3170.031     2389.396        1.096        0.475       72.789       44.311        0.371      335.357        5.937      865.740
04/28/2014  07:58:00       66.177        3.596       71.836       73.600      136.181       77.369     5416.988    18545.202     5985.998        1.974        1.497       66.275       99.900        2.272      335.283        5.813      865.751
04/28/2014  07:59:00      104.664     -109.449      -31.195       67.754       84.422       44.936     4590.632     7127.089     2019.222        1.882        0.687      151.439       53.515        0.125      335.180        5.642      865.770
04/28/2014  08:00:00       15.754       68.927      100.979       42.021       54.999       31.025     1765.777     3024.858      962.579        1.047        0.288       70.704       28.471        0.162      335.423        6.048      865.784
04/28/2014  08:01:00        3.062       79.901       97.328       37.113       58.192       39.608     1377.371     3386.315     1568.787        1.110        0.317       79.960       39.514        0.244      335.407        6.020      865.796
04/28/2014  08:02:00       25.573       16.856       53.916       30.786       53.255       38.083      947.805     2836.075     1450.340        0.454        0.262       30.628       36.632        1.430      335.448        6.091      865.808
04/28/2014  08:03:00       36.438        9.666       37.914       29.057       44.597       29.200      844.296     1988.877      852.631        0.327        0.184       37.698       27.936        0.549      335.282        5.813      865.831
04/28/2014  08:04:00       20.186       31.757       39.923       30.264       30.428       17.100      915.915      925.885      292.415        0.257        0.107       37.629       12.917        0.118      335.358        5.938      865.854
04/28/2014  08:05:00       -5.860       -3.918       33.781       18.189       31.295       23.932      330.847      979.392      572.729        0.154        0.094        7.049       21.941        9.688      335.881        6.810      865.879
04/28/2014  08:06:00      -36.877      -18.672        8.005       31.221       25.956       22.225      974.721      673.705      493.964        0.196        0.107       41.334       21.600        0.273      335.633        6.398      865.907
04/28/2014  08:07:00      -11.950      -14.384        4.583       51.873       28.913       24.965     2690.839      835.947      623.240        0.226        0.208       18.700       20.661        1.221      335.358        5.940      865.920
04/28/2014  08:08:00        3.701       26.699       49.833       25.477       29.618       29.281      649.076      877.201      857.363        0.280        0.119       26.954       23.337        0.750      336.023        7.047      865.940
04/28/2014  08:09:00       42.863       41.573       72.958       50.778       54.216       41.211     2578.418     2939.367     1698.334        0.805        0.361       59.712       39.511        0.438      335.685        6.484      865.967
04/28/2014  08:10:00       43.936       40.499       31.682       44.967       24.263       21.715     2022.032      588.695      471.553        0.383        0.154       59.754       17.111        0.082      335.353        5.931      865.987
04/28/2014  08:11:00       26.598       -5.727       63.828       34.155       58.428       31.571     1166.596     3413.840      996.745        0.519        0.279       27.208       29.767        1.197      335.804        6.682      866.013
04/28/2014  08:12:00       41.779       23.537       61.394       29.678       26.409       20.610      880.762      697.432      424.792        0.404        0.100       47.953        9.385        0.038      335.344        5.917      866.028
04/28/2014  08:13:00       47.164       18.268       11.694       24.821       20.582       22.417      616.106      423.638      502.523        0.212        0.077       50.578       15.949        0.099      335.318        5.873      866.028
04/28/2014  08:14:00       67.853       46.532       -4.218       18.978       21.995       16.383      360.168      483.798      268.419        0.395        0.056       82.276       11.323        0.019      335.112        5.529      866.023
04/28/2014  08:15:00       53.888       35.650       11.825       41.858       31.266       26.934     1752.113      977.542      725.441        0.388        0.173       64.613       16.213        0.063      335.421        6.043      866.012
04/28/2014  08:16:00       46.657       53.039       33.810       45.279       30.976       38.463     2050.153      959.494     1479.404        0.531        0.224       70.640       21.366        0.091      335.455        6.101      866.009
04/28/2014  08:17:00       37.666       46.091       60.974       45.417       30.400       24.748     2062.671      924.170      612.478        0.543        0.180       59.524       20.266        0.116      335.527        6.220      866.010
04/28/2014  08:18:00       25.788       31.104       12.355       20.262       18.909       22.491      410.562      357.569      505.853        0.153        0.064       40.404        9.572        0.056      335.367        5.954      866.009
04/28/2014  08:19:00       -2.084        4.095       -6.806       20.534       27.782       18.100      421.627      771.850      327.598        0.079        0.076        4.595       10.826        5.551      335.558        6.271      865.996
04/28/2014  08:20:00        9.029       22.886       33.107       25.642       33.871       24.884      657.532     1147.254      619.195        0.206        0.121       24.603       22.636        0.847      336.230        7.392      865.996
04/28/2014  08:21:00      -14.410       11.302       25.814       23.840       26.081       16.004      568.358      680.196      256.138        0.125        0.075       18.314       13.922        0.578      335.962        6.946      866.004
04/28/2014  08:22:00       -5.953       38.746       17.915       17.162       33.030       25.744      294.530     1090.985      662.777        0.195        0.102       39.201       13.452        0.118      336.117        7.204      866.009
04/28/2014  08:23:00      -15.217       58.781        4.671       14.660       35.182       25.863      214.926     1237.762      668.913        0.291        0.106       60.719       19.050        0.098      335.773        6.630      866.022
04/28/2014  08:24:00       11.724       22.078        6.479       21.090       18.970       30.387      444.768      359.858      923.359        0.120        0.086       24.998       10.340        0.171      335.862        6.779      866.029
04/28/2014  08:25:00       65.911       54.805        7.710       24.451       32.084       25.834      597.869     1029.390      667.386        0.485        0.115       85.720       21.235        0.061      335.433        6.065      866.046
04/28/2014  08:26:00       38.587       56.695       -6.175       19.190       34.201       32.699      368.268     1169.719     1069.254        0.367        0.130       68.580       25.381        0.137      335.426        6.053      866.069
04/28/2014  08:27:00       51.249       59.267       -0.681       33.881       29.805       26.383     1147.916      888.327      696.038        0.444        0.137       78.352       12.961        0.027      335.613        6.363      866.068
04/28/2014  08:28:00       -2.428        9.832       24.855       22.287       20.279       14.856      496.729      411.229      220.703        0.092        0.056       10.127        3.676        0.132      336.462        7.779      866.077
04/28/2014  08:29:00      -11.151        8.809       54.599       13.306       26.366       27.544      177.053      695.172      758.651        0.241        0.082       14.211       22.201        2.441      337.064        8.788      866.084
04/28/2014  08:30:00        7.673       30.089       76.269       41.775       52.493       28.630     1745.109     2755.494      819.686        0.605        0.266       31.052       36.163        1.356      336.377        7.638      866.093
04/28/2014  08:31:00        5.394        8.362       60.008       20.584       39.675       21.435      423.712     1574.073      459.477        0.308        0.123        9.950       18.116        3.315      336.670        8.128      866.112
04/28/2014  08:32:00       44.990       50.291       74.686       56.687       43.570       33.898     3213.440     1898.304     1149.102        0.819        0.313       67.478       28.187        0.174      335.980        6.975      866.116
04/28/2014  08:33:00       66.816       54.288       50.133       50.109       34.680       32.400     2510.891     1202.719     1049.764        0.734        0.238       86.090       17.799        0.043      335.875        6.799      866.113
04/28/2014  08:34:00       67.563       34.034       21.890       47.834       49.407       36.560     2288.080     2441.039     1336.623        0.613        0.303       75.651       25.716        0.116      335.624        6.381      866.107
04/28/2014  08:35:00       64.729       33.487       -3.745       25.215       22.867       24.658      635.790      522.883      608.023        0.355        0.088       72.878       11.481        0.025      335.510        6.191      866.107
04/28/2014  08:36:00       72.484       39.066       21.677       42.879       38.484       34.904     1838.640     1480.996     1218.270        0.589        0.227       82.341       26.270        0.102      335.717        6.538      866.098
04/28/2014  08:37:00      104.516      111.921        1.094       35.936       31.819       37.515     1291.416     1012.427     1407.391        1.358        0.186      153.134       19.840        0.017      335.465        6.116      866.098
04/28/2014  08:38:00       36.429       63.476       52.972       39.108       42.028       46.656     1529.413     1766.388     2176.738        0.682        0.274       73.187       35.961        0.241      335.748        6.590      866.107
04/28/2014  08:39:00        5.540        1.088       51.282       32.154       46.406       27.935     1033.905     2153.496      780.391        0.331        0.198        5.646       27.097       23.036      336.430        7.726      866.122
04/28/2014  08:40:00       -0.846        8.110       22.612       19.038       21.452       27.739      362.460      460.199      769.466        0.108        0.080        8.154       15.780        3.745      336.882        8.483      866.136
04/28/2014  08:41:00        5.725       64.060        8.340       28.104       30.984       28.432      789.846      960.023      808.369        0.338        0.128       64.315       16.685        0.067      336.553        7.932      866.139
04/28/2014  08:42:00       41.454       18.840       56.559       64.324       68.843       44.989     4137.605     4739.389     2024.027        0.808        0.545       45.535       52.593        1.334      336.554        7.934      866.146
04/28/2014  08:43:00       70.884       95.687       40.498       67.925       59.290       59.050     4613.831     3515.347     3486.892        1.372        0.581      119.082       44.967        0.143      336.229        7.390      866.147
04/28/2014  08:44:00       87.268      100.966       69.280       61.216       35.269       38.677     3747.400     1243.895     1495.933        1.455        0.324      133.453       35.601        0.071      335.853        6.764      866.166
04/28/2014  08:45:00       54.915       46.232       11.850       42.498       37.341       26.513     1806.101     1394.379      702.961        0.460        0.195       71.785       18.322        0.065      336.105        7.185      866.181
04/28/2014  08:46:00       44.917       76.832       61.149       55.972       45.977       39.349     3132.878     2113.882     1548.327        0.923        0.340       88.998       23.789        0.071      336.253        7.432      866.161
04/28/2014  08:47:00       62.864       74.085       66.283       35.245       37.078       24.836     1242.194     1374.776      616.807        0.853        0.162       97.162        7.465        0.006      335.845        6.750      866.158
04/28/2014  08:48:00       50.955       49.856       26.046       28.046       18.136       33.450      786.568      328.914     1118.881        0.400        0.112       71.288       16.114        0.051      335.937        6.905      866.150
04/28/2014  08:49:00       -3.992       29.988       22.723       31.306       30.081       34.944      980.053      904.862     1221.107        0.227        0.155       30.252       23.941        0.626      336.523        7.883      866.132
04/28/2014  08:50:00       28.403       26.361       68.079       45.320       54.543       39.006     2053.907     2974.922     1521.461        0.634        0.328       38.751       32.071        0.685      336.553        7.932      866.123
04/28/2014  08:51:00       23.268      -26.246       18.366       52.913       76.867       47.369     2799.775     5908.563     2243.785        0.626        0.548       35.075       50.282        2.055      336.359        7.606      866.119
04/28/2014  08:52:00       70.563      -74.135       13.152       42.689       82.711       38.621     1822.314     6841.191     1491.603        1.040        0.508      102.348       47.431        0.215      336.154        7.267      866.122
04/28/2014  08:53:00       35.061      -16.399       30.402       43.684       51.174       43.650     1908.332     2618.741     1905.317        0.443        0.322       38.706       34.569        0.798      336.390        7.660      866.123
04/28/2014  08:54:00       44.770       95.876      106.151       50.657       51.256       39.432     2566.146     2627.190     1554.859        1.460        0.337      105.814       35.739        0.114      336.189        7.322      866.131
04/28/2014  08:55:00      126.979       95.623       81.250       63.475       58.198       59.244     4029.040     3386.962     3509.880        2.140        0.546      158.958       47.394        0.089      336.037        7.068      866.112
04/28/2014  08:56:00       55.286      125.421      109.477       64.734       56.077       57.443     4190.484     3144.666     3299.675        2.070        0.532      137.066       46.931        0.117      336.350        7.591      866.108
04/28/2014  08:57:00      152.663      142.225       75.426       60.468       48.084       61.086     3656.354     2312.024     3731.550        2.946        0.485      208.648       50.737        0.059      335.986        6.981      866.112
04/28/2014  08:58:00      112.347       29.358        2.499       67.340       58.387       43.306     4534.701     3409.029     1875.425        1.165        0.491      116.119       33.018        0.081      335.876        6.801      866.134
04/28/2014  08:59:00       63.715       65.479       64.983       98.657       63.573       57.839     9733.258     4041.485     3345.306        1.484        0.856       91.362       46.660        0.261      336.563        7.947      866.131
04/28/2014  09:00:00      149.553      114.350       65.911       70.556       50.904       47.285     4978.173     2591.237     2235.834        2.479        0.490      188.261       27.887        0.022      335.867        6.785      866.148
04/28/2014  09:01:00       43.421       -0.769       31.380       51.280       79.282       35.504     2629.655     6285.676     1260.517        0.652        0.509       43.428       36.537        0.708      336.227        7.388      866.160
04/28/2014  09:02:00       29.772      -27.668       48.732       39.573       65.112       35.666     1566.024     4239.596     1272.098        0.555        0.354       40.644       37.014        0.829      336.792        8.331      866.170
04/28/2014  09:03:00       61.056       19.584       79.116       57.853       62.245       49.035     3346.927     3874.425     2404.463        1.000        0.481       64.120       43.846        0.468      336.890        8.496      866.183
04/28/2014  09:04:00       91.019       76.557       51.436       56.698       55.545       50.095     3214.715     3085.302     2509.523        1.280        0.440      118.935       33.879        0.081      336.436        7.736      866.204
04/28/2014  09:05:00       68.439      115.763      -14.107       58.797       49.579       40.953     3457.091     2458.041     1677.133        1.294        0.380      134.481       38.320        0.081      335.923        6.881      866.229
04/28/2014  09:06:00      102.423       58.573       -5.541       29.948       41.623       28.792      896.870     1732.511      828.988        0.870        0.173      117.989       18.344        0.024      335.908        6.856      866.237
04/28/2014  09:07:00      -30.057       20.461       -7.024       55.952       17.696       28.559     3130.664      313.166      815.636        0.281        0.213       36.360       29.271        0.648      336.184        7.315      866.219
04/28/2014  09:08:00       85.732       32.681       30.261       85.898       58.073       49.956     7378.533     3372.420     2495.625        1.129        0.662       91.749       44.346        0.234      336.287        7.486      866.213
04/28/2014  09:09:00      128.287       43.839       67.464      121.031       77.275       64.628    14648.575     5971.386     4176.739        2.386        1.240      135.571       67.855        0.251      336.719        8.208      866.187
04/28/2014  09:10:00       30.599      113.256      132.671       65.455       76.814       60.215     4284.395     5900.447     3625.833        2.259        0.691      117.317       59.727        0.259      336.487        7.821      866.202
04/28/2014  09:11:00       38.383       27.131       47.556       47.514       55.384       41.706     2257.613     3067.417     1739.381        0.577        0.353       47.004       31.644        0.453      336.950        8.597      866.189
04/28/2014  09:12:00       70.334      -73.131       39.505       59.618       95.960       51.395     3554.259     9208.243     2641.399        1.363        0.770      101.464       55.226        0.296      336.686        8.155      866.186
04/28/2014  09:13:00       25.302        2.227       69.295       50.602       65.698       42.421     2560.532     4316.267     1799.574        0.706        0.434       25.400       46.900        3.409      337.029        8.729      866.190
04/28/2014  09:14:00       44.735       46.834       99.529       62.613       78.392       54.106     3920.331     6145.233     2927.467        1.354        0.650       64.766       57.604        0.791      336.878        8.476      866.207
04/28/2014  09:15:00      115.804       95.032       72.074      101.198       91.397       62.248    10241.129     8353.427     3874.836        2.505        1.123      149.805       57.504        0.147      336.602        8.013      866.207
04/28/2014  09:16:00       93.782       74.425       70.890       85.448       69.785       59.921     7301.378     4869.944     3590.555        1.756        0.788      119.725       58.297        0.237      336.390        7.658      866.240
04/28/2014  09:17:00       47.082       74.703       81.887       45.015       64.928       46.729     2026.334     4215.691     2183.598        1.146        0.421       88.302       42.618        0.233      336.589        7.992      866.241
04/28/2014  09:18:00      158.713      118.471       30.406       58.836       57.000       40.425     3461.640     3248.993     1634.159        2.425        0.417      198.054       35.969        0.033      336.307        7.518      866.238
04/28/2014  09:19:00       46.221      147.371      139.763       51.535       54.929       34.408     2655.810     3017.190     1183.897        2.512        0.343      154.449       31.949        0.043      336.398        7.671      866.245
04/28/2014  09:20:00       58.813       87.509       88.007       52.900       45.078       27.153     2798.392     2032.017      737.282        1.221        0.278      105.436       17.162        0.026      336.512        7.863      866.269
04/28/2014  09:21:00       35.953       40.201       33.223       32.570       28.229       38.222     1060.781      796.853     1460.930        0.366        0.166       53.933       26.236        0.237      336.520        7.877      866.277
04/28/2014  09:22:00       52.428       58.699       18.005       22.093       20.861       24.777      488.090      435.165      613.899        0.403        0.077       78.703       17.594        0.050      336.337        7.570      866.272
04/28/2014  09:23:00       64.660      127.322       -2.971       60.913       63.683       55.058     3710.422     4055.465     3031.351        1.560        0.540      142.800       32.580        0.052      336.730        8.228      866.273
04/28/2014  09:24:00       47.481       84.123       91.418       57.440       62.805       54.911     3299.323     3944.485     3015.251        1.397        0.513       96.598       49.219        0.260      336.830        8.394      866.285
04/28/2014  09:25:00       97.247       50.080       47.739       60.211       37.070       47.769     3625.405     1374.195     2281.907        1.076        0.364      109.384       38.225        0.122      336.927        8.558      866.293
04/28/2014  09:26:00       83.615      118.002      116.407      104.473       97.873       94.890    10914.701     9579.093     9004.076        3.198        1.475      144.624       98.344        0.462      336.901        8.512      866.282
04/28/2014  09:27:00       43.179      109.022      126.488       55.642       81.635       56.538     3096.022     6664.286     3196.544        2.135        0.648      117.261       59.485        0.257      336.600        8.010      866.282
04/28/2014  09:28:00      117.702      119.620      117.760       79.832       72.959       67.880     6373.140     5322.948     4607.710        2.916        0.815      167.818       54.176        0.104      336.535        7.898      866.292
04/28/2014  09:29:00       44.338        9.946       76.193       65.594       99.789       53.302     4302.551     9957.854     2841.083        1.248        0.855       45.440       56.164        1.528      336.686        8.154      866.297
04/28/2014  09:30:00       69.109      -45.152       15.617       78.251      109.397       56.453     6123.231    11967.705     3186.917        1.416        1.064       82.551       52.565        0.405      336.980        8.644      866.288
04/28/2014  09:31:00       36.629      134.167      148.626       50.638      102.653       55.912     2564.203    10537.551     3126.200        2.883        0.811      139.077       67.951        0.239      336.610        8.026      866.285
04/28/2014  09:32:00       27.771       78.899       85.375       43.377       57.940       38.738     1881.533     3357.075     1500.669        1.051        0.337       83.643       33.441        0.160      337.017        8.707      866.307
04/28/2014  09:33:00      125.380       75.515        6.148      103.422       75.484       51.920    10696.180     5697.854     2695.637        2.027        0.954      146.365       16.201        0.012      337.006        8.688      866.310
04/28/2014  09:34:00      153.187      104.263       41.552       57.416       54.069       54.053     3296.607     2923.471     2921.758        2.260        0.457      185.302       25.315        0.019      336.937        8.571      866.318
04/28/2014  09:35:00       90.014       72.120       17.936       48.944       37.670       38.320     2395.508     1419.000     1468.423        0.945        0.264      115.342       20.829        0.033      336.979        8.643      866.332
04/28/2014  09:36:00      138.132       67.942       21.546       86.884       65.695       52.395     7548.801     4315.793     2745.207        1.938        0.730      153.937       27.835        0.033      337.008        8.692      866.358
04/28/2014  09:37:00      107.202       81.819       70.203       79.387       62.835       50.372     6302.302     3948.229     2537.356        1.795        0.639      134.857       38.876        0.083      337.084        8.821      866.369
04/28/2014  09:38:00      107.269       32.236       58.203       98.316       83.185       74.433     9666.000     6919.736     5540.232        1.903        1.106      112.008       54.160        0.234      336.850        8.428      866.365
04/28/2014  09:39:00      134.607       95.117       63.162       88.024       77.683       86.705     7748.293     6034.685     7517.836        2.622        1.065      164.822       63.913        0.150      337.059        8.776      866.355
04/28/2014  09:40:00      107.510       87.294       87.058       78.668       85.736       64.547     6188.578     7350.669     4166.263        2.223        0.885      138.487       60.164        0.189      336.955        8.603      866.366
04/28/2014  09:41:00       68.853       49.014       64.303       77.660      108.665       56.213     6031.060    11808.068     3159.857        1.613        1.050       84.517       53.643        0.403      337.126        8.889      866.368
04/28/2014  09:42:00       49.336       34.532        4.356       78.348       67.094       35.110     6138.400     4501.599     1232.744        0.776        0.594       60.220       12.079        0.040      336.933        8.568      866.382
04/28/2014  09:43:00       69.559      -12.209       42.925       73.489       64.191       42.126     5400.674     4120.462     1774.593        0.906        0.565       70.622       37.027        0.275      337.127        8.892      866.397
04/28/2014  09:44:00       45.501       42.956       62.391       39.107       46.882       51.666     1529.345     2197.903     2669.427        0.710        0.320       62.574       42.810        0.468      336.817        8.373      866.403
04/28/2014  09:45:00       62.186       27.567       45.860       69.134       64.322       48.531     4779.508     4137.265     2355.266        0.900        0.564       68.022       40.926        0.362      337.286        9.159      866.404
04/28/2014  09:46:00      165.403       79.048       22.521       73.883       68.417       51.501     5458.739     4680.916     2652.339        2.345        0.640      183.322       26.018        0.020      336.954        8.601      866.411
04/28/2014  09:47:00      109.625       45.341        2.255       85.908       53.048       56.054     7380.259     2814.127     3142.028        1.370        0.667      118.632       33.495        0.080      337.198        9.009      866.408
04/28/2014  09:48:00        5.689       10.741       15.848       53.450       48.739       33.516     2856.889     2375.458     1123.301        0.338        0.318       12.154       20.256        2.778      337.458        9.444      866.426
04/28/2014  09:49:00      -41.923      -59.963        1.739       24.171       47.314       21.266      584.237     2238.608      452.255        0.431        0.164       73.165       13.702        0.035      337.133        8.902      866.447
04/28/2014  09:50:00      -26.345      -81.383       15.827       42.522       59.913       41.209     1808.111     3589.562     1698.155        0.733        0.355       85.541       26.478        0.096      337.354        9.272      866.435
04/28/2014  09:51:00       -2.122      -44.536       28.018       37.165       44.522       36.847     1381.246     1982.250     1357.732        0.375        0.236       44.587       27.401        0.378      337.497        9.510      866.437
04/28/2014  09:52:00       -2.694      -40.385       12.205       75.712       66.512       39.487     5732.364     4423.821     1559.204        0.675        0.586       40.475       42.573        1.106      337.199        9.012      866.436
04/28/2014  09:53:00      -55.634      -84.666       -1.309       46.486       57.233       36.830     2160.922     3275.599     1356.440        0.853        0.340      101.309       34.016        0.113      336.771        8.297      866.448
04/28/2014  09:54:00      -17.562       -6.820       18.173       26.718       56.622       35.986      713.840     3206.100     1294.957        0.295        0.261       18.840       41.720        4.904      337.469        9.464      866.453
04/28/2014  09:55:00       61.529       56.785       52.140       66.485       55.423       51.379     4420.222     3071.718     2639.845        0.993        0.507       83.728       44.313        0.280      337.325        9.224      866.465
04/28/2014  09:56:00       37.809       20.039       60.004       71.821      102.080       55.757     5158.291    10420.328     3108.823        1.206        0.934       42.791       37.303        0.760      337.297        9.177      866.469
04/28/2014  09:57:00       56.078       35.106       53.965       55.655       82.875       57.334     3097.485     6868.317     3287.237        1.027        0.663       66.161       54.256        0.672      337.482        9.487      866.491
04/28/2014  09:58:00      190.281      103.032       37.600       71.184       64.217       54.045     5067.091     4123.814     2920.879        3.017        0.606      216.385       37.088        0.029      337.079        8.810      866.517
04/28/2014  09:59:00      144.806      107.109       66.627       99.682       68.281       82.350     9936.519     4662.249     6781.462        2.913        1.069      180.114       63.215        0.123      337.220        9.044      866.519
04/28/2014  10:00:00      114.014      102.386       66.761       73.732       65.580       54.338     5436.415     4300.779     2952.596        2.031        0.634      153.238       32.662        0.045      336.970        8.627      866.530
04/28/2014  10:01:00      148.717      120.094       87.198       66.843       53.386       55.828     4468.003     2850.118     3116.792        2.729        0.522      191.153       37.804        0.039      336.795        8.334      866.530
04/28/2014  10:02:00      137.396       83.410       46.416       66.077       49.377       44.615     4366.232     2438.119     1990.486        1.839        0.440      160.732       41.801        0.068      336.728        8.223      866.532
04/28/2014  10:03:00       80.323      102.863       78.139       54.777       43.406       49.966     3000.492     1884.104     2496.586        1.526        0.369      130.509       42.949        0.108      336.922        8.547      866.535
04/28/2014  10:04:00       21.700       52.348       14.245       45.230       49.512       31.725     2045.725     2451.462     1006.458        0.446        0.275       56.668       12.730        0.050      337.316        9.209      866.547
04/28/2014  10:05:00       69.909       70.526       20.420       34.537       34.399       35.328     1192.818     1183.264     1248.052        0.695        0.181       99.303       16.363        0.027      337.452        9.436      866.535
04/28/2014  10:06:00       16.968      -39.875       22.040       31.802       66.032       44.570     1011.377     4360.244     1986.465        0.486        0.368       43.335       15.577        0.129      337.770        9.968      866.528
04/28/2014  10:07:00       42.912     -107.458      -12.267       53.545       75.083       39.083     2867.067     5637.396     1527.442        1.178        0.502      115.709       42.501        0.135      337.313        9.204      866.518
04/28/2014  10:08:00      -18.432      -13.312       17.901       23.763       30.636       25.451      564.689      938.592      647.778        0.149        0.108       22.736       18.347        0.651      337.695        9.843      866.510
04/28/2014  10:09:00        5.265      -14.797       60.358       51.810       79.387       55.652     2684.278     6302.311     3097.200        0.798        0.604       15.706       40.397        6.615      337.911       10.205      866.498
04/28/2014  10:10:00       61.259      -51.837       10.134       59.391       70.865       54.741     3527.315     5021.896     2996.610        0.904        0.577       80.248       47.365        0.348      337.769        9.967      866.513
04/28/2014  10:11:00       35.775       19.400       51.369       38.400       41.547       32.300     1474.573     1726.185     1043.304        0.427        0.212       40.697       28.228        0.481      337.642        9.754      866.533
04/28/2014  10:12:00      -13.473      -15.349       10.048       37.218       49.635       35.723     1385.159     2463.655     1276.143        0.282        0.256       20.423       31.972        2.451      337.417        9.377      866.544
04/28/2014  10:13:00      -40.708        0.400        0.841       32.272       26.911       22.832     1041.454      724.197      521.308        0.197        0.114       40.710       15.940        0.153      337.443        9.421      866.553
04/28/2014  10:14:00       18.801       12.224       44.707       73.825       57.228       37.754     5450.131     3275.062     1425.331        0.632        0.508       22.425       30.125        1.805      337.823       10.058      866.576
04/28/2014  10:15:00      111.740       58.804       25.866       60.424       47.906       35.502     3651.111     2294.953     1260.384        1.191        0.360      126.268       18.829        0.022      337.529        9.564      866.590
04/28/2014  10:16:00       89.899       72.315       49.033       82.279       52.736       57.779     6769.905     2781.095     3338.415        1.430        0.644      115.374       61.206        0.281      337.605        9.693      866.585
04/28/2014  10:17:00       46.720       72.531       33.137       41.598       32.967       37.521     1730.387     1086.850     1407.817        0.638        0.211       86.275       14.592        0.029      337.395        9.339      866.580
04/28/2014  10:18:00       22.562       42.545       25.708       41.954       54.527       39.153     1760.160     2973.229     1532.936        0.462        0.313       48.157       34.285        0.507      337.916       10.215      866.580
04/28/2014  10:19:00       29.951       85.199      -17.778       36.762       51.963       37.654     1351.475     2700.197     1417.796        0.697        0.273       90.310       22.067        0.060      337.268        9.128      866.589
04/28/2014  10:20:00       70.621       73.381       23.858       74.858       41.364       39.300     5603.771     1711.003     1544.497        0.990        0.443      101.843       24.138        0.056      337.539        9.582      866.594
04/28/2014  10:21:00       72.412       36.679       33.582       52.697       37.040       39.607     2776.925     1371.970     1568.696        0.672        0.286       81.172       11.679        0.021      337.892       10.173      866.607
04/28/2014  10:22:00      144.438      105.541       88.838      106.947       89.636       76.522    11437.564     8034.679     5855.603        3.261        1.266      178.889       61.018        0.116      337.469        9.461      866.599
04/28/2014  10:23:00      102.203      151.041      126.363      101.687       73.655       71.812    10340.301     5425.027     5157.017        3.507        1.046      182.370       66.487        0.133      337.263        9.116      866.612
04/28/2014  10:24:00      174.411       89.793       54.380       83.593       67.255       52.494     6987.846     4523.253     2755.605        2.785        0.713      196.168       38.252        0.038      337.097        8.839      866.619
04/28/2014  10:25:00      140.200       81.621       29.497       63.344       56.373       47.964     4012.403     3177.869     2300.574        1.834        0.475      162.228       28.424        0.031      337.324        9.221      866.639
04/28/2014  10:26:00      116.236       98.675       39.926       56.234       35.733       54.230     3162.226     1276.875     2940.927        1.611        0.369      152.471       26.388        0.030      337.058        8.777      866.629
04/28/2014  10:27:00       70.299      111.063       86.057       85.037       75.609       72.452     7231.247     5716.702     5249.276        2.144        0.910      131.442       60.703        0.213      337.380        9.313      866.620
04/28/2014  10:28:00      170.057       97.951       42.085       52.527       34.244       47.918     2759.092     1172.651     2296.162        2.326        0.311      196.250       29.434        0.022      337.103        8.850      866.621
04/28/2014  10:29:00      101.355       53.905       25.470      103.958       58.752       56.953    10807.306     3451.760     3243.653        1.566        0.875      114.798       41.747        0.132      337.174        8.969      866.624
04/28/2014  10:30:00       18.503       24.102       60.727       28.482       47.657       28.905      811.232     2271.175      835.490        0.426        0.196       30.385       20.935        0.475      337.860       10.119      866.617
04/28/2014  10:31:00       67.383      -67.858        8.177       52.971      113.335       49.176     2805.931    12844.860     2418.318        1.364        0.903       95.630       47.686        0.249      337.381        9.316      866.624
04/28/2014  10:32:00       39.147       29.145       38.580       28.594       29.520       35.643      817.641      871.437     1270.393        0.341        0.148       48.805       17.281        0.125      337.433        9.405      866.616
04/28/2014  10:33:00       34.535       40.408       34.237       33.837       31.597       33.771     1144.946      998.354     1140.510        0.364        0.164       53.155       26.860        0.255      337.522        9.552      866.593
04/28/2014  10:34:00      -10.011       25.623       54.991       41.705       60.560       46.354     1739.347     3667.503     2148.694        0.567        0.378       27.509       45.014        2.677      337.890       10.170      866.588
04/28/2014  10:35:00      -67.208      -15.450       -3.757       32.329       34.768       28.013     1045.151     1208.805      784.748        0.390        0.152       68.961       15.269        0.049      337.690        9.835      866.600
04/28/2014  10:36:00      -30.684       -9.092       16.144       34.879       38.737       32.077     1216.567     1500.582     1028.961        0.251        0.187       32.003       28.886        0.815      338.039       10.421      866.612
04/28/2014  10:37:00       -6.550       31.363       35.884       56.884       41.358       35.992     3235.824     1710.524     1295.460        0.428        0.312       32.040        7.668        0.057      338.374       10.983      866.626
04/28/2014  10:38:00       12.109      -42.151       36.551       62.082       86.618       42.884     3854.114     7502.732     1839.050        0.822        0.660       43.856       51.851        1.398      337.996       10.348      866.618
04/28/2014  10:39:00       19.586      -60.670       -0.299       32.740       47.239       35.290     1071.930     2231.525     1245.389        0.431        0.227       63.753       30.875        0.235      337.433        9.404      866.623
04/28/2014  10:40:00       81.817       76.897       25.821       74.455       66.927       46.866     5543.596     4479.235     2196.390        1.274        0.611      112.282       24.996        0.050      337.941       10.256      866.602
04/28/2014  10:41:00      172.911      111.667       60.259       92.614       67.215       67.531     8577.358     4517.861     4560.424        3.182        0.883      205.835       53.769        0.068      337.675        9.806      866.597
04/28/2014  10:42:00       71.069       72.181       43.837       89.371       94.317       54.814     7987.260     8895.663     3004.554        1.603        0.994      101.296       29.752        0.086      337.768        9.963      866.599
04/28/2014  10:43:00       42.607       87.944       96.998       85.908       65.204       53.195     7380.126     4251.542     2829.667        1.671        0.723       97.722       46.126        0.223      338.351       10.943      866.600
04/28/2014  10:44:00      191.031      127.030       26.749       64.536       56.782       52.978     4164.875     3224.197     2806.703        3.177        0.510      229.412       43.395        0.036      337.293        9.167      866.611
04/28/2014  10:45:00      114.516       76.908       19.534       49.737       43.577       54.609     2473.818     1898.962     2982.178        1.338        0.368      137.945       37.348        0.073      337.536        9.575      866.632
04/28/2014  10:46:00       35.818       37.711      -11.615       26.308       25.790       25.378      692.088      665.102      644.060        0.242        0.100       52.010       13.923        0.072      337.332        9.233      866.612
04/28/2014  10:47:00       28.053       35.040        5.552       28.446       28.155       25.442      809.152      792.722      647.301        0.215        0.112       44.886       15.302        0.116      337.848       10.099      866.609
04/28/2014  10:48:00       21.032       33.598       23.254       29.170       26.567       22.980      850.884      705.822      528.088        0.210        0.104       39.638        9.235        0.054      338.304       10.864      866.591
04/28/2014  10:49:00       -6.822        4.555       44.301       24.364       28.227       17.016      593.591      796.739      289.555        0.185        0.084        8.203        7.069        0.743      339.007       12.046      866.595
04/28/2014  10:50:00        5.358       19.208       44.034       36.367       49.593       33.506     1322.575     2459.475     1122.644        0.362        0.245       19.941       25.184        1.595      338.681       11.499      866.588
04/28/2014  10:51:00       41.828       79.473        3.806       56.711       77.691       41.674     3216.163     6035.961     1736.694        0.953        0.549       89.808       34.353        0.146      338.237       10.753      866.593
04/28/2014  10:52:00       30.039      115.720       -7.522       48.058       61.669       44.239     2309.581     3803.127     1957.062        1.121        0.403      119.555       41.114        0.118      337.962       10.292      866.585
04/28/2014  10:53:00      -49.211       41.778       -6.305       58.435       65.476       29.518     3414.706     4287.096      871.332        0.639        0.429       64.553       25.028        0.150      338.093       10.512      866.593
04/28/2014  10:54:00      -55.350       80.184        5.047       36.249       52.823       34.904     1313.991     2790.317     1218.317        0.742        0.266       97.433       23.595        0.059      338.256       10.786      866.589
04/28/2014  10:55:00      -76.189       65.626       -7.150       39.203       54.620       41.627     1536.868     2983.306     1732.801        0.821        0.313      100.556       35.377        0.124      337.975       10.312      866.595
04/28/2014  10:56:00      -10.903       83.962        4.597       58.570       55.915       45.326     3430.486     3126.528     2054.459        0.790        0.431       84.667       38.020        0.202      338.416       11.053      866.592
04/28/2014  10:57:00        4.205        7.050       38.247       36.370       36.166       31.085     1322.755     1307.968      966.250        0.256        0.180        8.209       14.036        2.923      339.214       12.394      866.596
04/28/2014  10:58:00       49.772      -83.237        5.424       65.355       87.374       59.726     4271.245     7634.245     3567.182        1.245        0.774       96.983       57.422        0.351      338.565       11.302      866.580
04/28/2014  10:59:00       71.418     -174.647      -12.132      103.295      112.005       74.923    10669.849    12545.097     5613.514        3.228        1.441      188.686       67.660        0.129      338.284       10.830      866.568
04/28/2014  11:00:00       52.009     -135.635        1.843       52.247      108.266       45.336     2729.726    11721.488     2055.375        1.880        0.825      145.265       47.442        0.107      337.997       10.349      866.562
04/28/2014  11:01:00      -16.565       45.015       91.492       20.203       51.812       28.920      408.160     2684.466      836.393        0.730        0.196       47.966       31.107        0.421      339.013       12.057      866.574
04/28/2014  11:02:00       85.703       92.260       82.710      127.786       88.261       68.017    16329.137     7789.920     4626.246        2.572        1.437      125.925       60.936        0.234      338.612       11.382      866.568
04/28/2014  11:03:00      103.237      108.134       58.789      101.654       65.203       52.741    10333.550     4251.397     2781.655        2.158        0.868      149.502       54.369        0.132      337.962       10.290      866.573
04/28/2014  11:04:00       47.966       52.594      100.824       62.265       72.065       61.858     3876.976     5193.359     3826.419        1.406        0.645       71.182       53.935        0.574      338.742       11.601      866.559
04/28/2014  11:05:00       90.793      154.823      109.475      102.464       63.998       75.176    10498.915     4095.706     5651.440        3.222        1.012      179.481       70.782        0.156      338.014       10.375      866.562
04/28/2014  11:06:00       58.599       52.680       79.269       94.347      117.240       80.629     8901.449    13745.286     6501.002        2.081        1.457       78.797       76.415        0.940      338.353       10.947      866.553
04/28/2014  11:07:00      122.592       86.052      118.407      102.769       95.193       75.842    10561.438     9061.768     5752.059        3.091        1.269      149.779       72.392        0.234      338.006       10.362      866.553
04/28/2014  11:08:00      179.533      172.041      108.952      149.610       81.664       99.629    22383.269     6669.029     9925.914        5.633        1.949      248.656       94.912        0.146      338.000       10.350      866.534
04/28/2014  11:09:00       75.632      129.705      132.708       79.067       90.324       68.310     6251.551     8158.381     4666.213        2.961        0.954      150.146       64.011        0.182      338.147       10.598      866.557
04/28/2014  11:10:00       72.740       19.858       54.631       83.036       78.309       71.654     6894.908     6132.298     5134.295        1.341        0.908       75.402       63.567        0.711      338.423       11.065      866.544
04/28/2014  11:11:00      117.077       74.695       57.317       98.986       58.608       62.451     9798.174     3434.885     3900.181        1.985        0.857      138.875       47.849        0.119      338.749       11.611      866.551
04/28/2014  11:12:00       59.029       70.848        5.256       62.190       67.580       40.375     3867.570     4567.080     1630.153        0.930        0.503       92.216       38.215        0.172      338.651       11.448      866.558
04/28/2014  11:13:00      -54.579      188.447       -7.482       34.999       80.513       42.216     1224.900     6482.330     1782.223        2.402        0.474      196.191       45.030        0.053      338.165       10.630      866.548
04/28/2014  11:14:00      -20.139       41.799       20.349       31.986       46.969       30.059     1023.093     2206.096      903.566        0.335        0.207       46.398       23.303        0.252      339.123       12.243      866.537
04/28/2014  11:15:00       17.686       38.635       12.825       31.600       28.712       29.762      998.584      824.352      885.760        0.234        0.135       42.490       18.948        0.199      338.820       11.732      866.526
04/28/2014  11:16:00       65.622       75.276       72.655       82.021       67.784       51.549     6727.519     4594.733     2657.266        1.461        0.699       99.863       37.920        0.144      338.680       11.495      866.509
04/28/2014  11:17:00       96.488       57.557       37.512       63.385       41.365       42.719     4017.637     1711.046     1824.874        1.079        0.378      112.351       26.584        0.056      338.161       10.624      866.504
04/28/2014  11:18:00      133.106      145.226      112.915      126.039       72.330       74.520    15885.935     5231.618     5553.161        3.911        1.334      196.997       68.262        0.120      338.293       10.843      866.479
04/28/2014  11:19:00      153.748      142.373       75.212      115.015       99.187      104.596    13228.349     9837.986    10940.409        4.178        1.700      209.544      103.234        0.243      338.225       10.729      866.479
04/28/2014  11:20:00      125.446       58.136       56.914       98.128      106.588       81.951     9629.100    11360.968     6716.010        2.503        1.385      138.262       63.701        0.212      338.572       11.312      866.474
04/28/2014  11:21:00       81.821      -86.900       50.509       87.460      107.407       68.472     7649.302    11536.344     4688.477        2.033        1.194      119.358       72.418        0.368      338.747       11.607      866.477
04/28/2014  11:22:00      109.627       63.359      105.823       86.003      114.235       75.844     7396.571    13049.615     5752.272        2.671        1.310      126.619       78.347        0.383      338.555       11.284      866.477
04/28/2014  11:23:00       79.410       92.713      128.042       81.283       84.318       66.130     6607.003     7109.479     4373.146        2.469        0.904      122.072       47.949        0.154      338.369       10.972      866.481
04/28/2014  11:24:00      120.104       83.415       85.694      104.973       74.127       66.207    11019.265     5494.813     4383.318        2.481        1.045      146.229       46.125        0.099      338.331       10.908      866.466
04/28/2014  11:25:00       25.998      -57.192       16.152       67.997       88.540       60.075     4623.624     7839.315     3608.950        1.014        0.804       62.824       59.452        0.896      338.812       11.718      866.444
04/28/2014  11:26:00       10.916      -12.617       72.033       55.076       85.326       46.937     3033.350     7280.495     2203.114        0.899        0.626       16.683       49.782        8.904      339.061       12.136      866.431
04/28/2014  11:27:00      114.513     -107.439       45.954       96.768      115.515       77.957     9363.975    13343.645     6077.312        2.777        1.439      157.024       66.062        0.177      338.878       11.827      866.418
04/28/2014  11:28:00      143.542       60.183      105.408       87.934       93.061       56.787     7732.321     8660.319     3224.746        2.747        0.981      155.648       62.000        0.159      338.536       11.251      866.426
04/28/2014  11:29:00      161.614      134.012      112.795       90.263       72.469       66.105     8147.452     5251.776     4369.907        3.728        0.888      209.948       51.431        0.060      338.443       11.094      866.409
04/28/2014  11:30:00       55.233       89.112       87.883       63.768       59.403       51.998     4066.381     3528.701     2703.755        1.450        0.515      104.841       42.586        0.165      338.595       11.354      866.422
04/28/2014  11:31:00       27.706       44.897       54.822       55.858       61.273       61.176     3120.064     3754.424     3742.532        0.820        0.531       52.757       49.372        0.876      339.122       12.240      866.422
04/28/2014  11:32:00       64.084        4.635        1.581       37.228       67.938       33.367     1385.956     4615.597     1113.331        0.562        0.356       64.251       29.993        0.218      338.323       10.896      866.422
04/28/2014  11:33:00      125.838       87.569       28.214      121.475       68.455       53.825    14756.086     4686.050     2897.093        2.331        1.117      153.309       40.889        0.071      338.708       11.543      866.403
04/28/2014  11:34:00      190.363      203.983      150.493      130.331      114.882       96.667    16986.098    13197.807     9344.524        7.000        1.976      279.011       92.265        0.109      338.374       10.979      866.429
04/28/2014  11:35:00       79.857       53.111       63.568       70.981       62.845       54.956     5038.316     3949.534     3020.135        1.262        0.600       95.906       36.284        0.143      338.352       10.945      866.461
04/28/2014  11:36:00       41.525       70.793       78.129       47.648       56.668       48.790     2270.354     3211.280     2380.497        1.035        0.393       82.073       36.746        0.200      338.782       11.667      866.439
04/28/2014  11:37:00      127.850      125.838      118.766      127.549       98.395      100.326    16268.726     9681.621    10065.398        4.114        1.801      179.391       96.349        0.288      338.612       11.379      866.470
04/28/2014  11:38:00       75.348      126.073      176.667       91.705       98.124       67.172     8409.838     9628.378     4512.137        3.766        1.128      146.873       54.453        0.137      338.468       11.139      866.475
04/28/2014  11:39:00      144.587      151.740       88.490      140.506      101.549       92.955    19741.825    10312.261     8640.542        4.522        1.935      209.596       90.377        0.186      338.591       11.344      866.461
04/28/2014  11:40:00       94.519       83.566       82.773      127.699       80.524       66.231    16306.929     6484.134     4386.496        2.497        1.359      126.164       48.194        0.146      338.980       11.999      866.470
04/28/2014  11:41:00       35.364       42.431       76.721       58.228       87.775       67.085     3390.518     7704.394     4500.377        1.226        0.780       55.235       74.243        1.807      338.538       11.255      866.492
04/28/2014  11:42:00        4.201       -6.492       23.702       27.020       26.168       20.365      730.059      684.739      414.738        0.123        0.091        7.733       14.841        3.684      339.152       12.292      866.483
04/28/2014  11:43:00      115.022       86.231       57.575       96.602       59.033       56.914     9331.976     3484.922     3239.222        2.002        0.803      143.756       50.835        0.125      338.920       11.899      866.460
04/28/2014  11:44:00      203.490      146.707       23.081      102.597       87.202       59.366    10526.099     7604.253     3524.284        4.255        1.083      250.861       37.571        0.022      338.311       10.874      866.469
04/28/2014  11:45:00      129.624      130.093      106.390       87.135       87.473       94.702     7592.570     7651.490     8968.535        3.462        1.211      183.648       72.909        0.158      338.500       11.192      866.476
04/28/2014  11:46:00       25.522      150.593      173.966       69.190      121.695       77.598     4787.258    14809.647     6021.443        3.960        1.281      152.741       90.041        0.348      338.316       10.883      866.493
04/28/2014  11:47:00       99.952       14.003       48.014      121.726       87.616       68.303    14817.313     7676.631     4665.288        1.982        1.358      100.928       44.681        0.196      338.762       11.633      866.486
04/28/2014  11:48:00       95.105       96.667       24.447       63.036       63.384       57.198     3973.520     4017.500     3271.642        1.512        0.563      135.608       35.877        0.070      338.562       11.298      866.494
04/28/2014  11:49:00      218.263      175.435      122.914      143.818      110.007      107.691    20683.548    12101.615    11597.346        6.894        2.219      280.029       95.383        0.116      338.702       11.531      866.501
04/28/2014  11:50:00      198.674      138.562       97.584      116.524       70.652       73.867    13577.733     4991.667     5456.371        4.610        1.201      242.220       66.017        0.074      338.459       11.121      866.527
04/28/2014  11:51:00      161.734       84.184       91.670      102.728       79.083       63.735    10553.105     6254.158     4062.201        3.125        1.043      182.332       51.875        0.081      338.769       11.644      866.535
04/28/2014  11:52:00       80.647       40.942       89.694       81.778       65.767       61.104     6687.680     4325.307     3733.677        1.548        0.737       90.444       58.955        0.425      338.971       11.985      866.563
04/28/2014  11:53:00       51.472      -27.420       46.945       43.516      100.089       59.916     1893.601    10017.714     3589.969        1.055        0.775       58.320       68.147        1.365      338.943       11.940      866.569
04/28/2014  11:54:00       87.784      115.069      121.709       80.462       55.555       42.027     6474.167     3086.348     1766.267        2.354        0.566      144.730       40.397        0.078      338.646       11.439      866.557
04/28/2014  11:55:00       48.895       58.219       74.272       71.352       68.755       63.968     5091.175     4727.306     4091.878        1.260        0.696       76.027       55.107        0.525      338.769       11.645      866.537
04/28/2014  11:56:00      176.279      142.506      115.077      145.527      114.506       88.555    21178.177    13111.523     7841.902        5.337        2.107      226.677       79.320        0.122      338.803       11.700      866.516
04/28/2014  11:57:00       75.224       31.713       67.268       82.734      129.090       60.926     6844.968    16664.357     3711.979        1.920        1.361       81.636       62.546        0.587      339.041       12.103      866.543
04/28/2014  11:58:00       68.527      -61.824       60.139       63.891      105.581       80.317     4082.028    11147.280     6450.896        1.690        1.084       92.294       88.833        0.926      338.744       11.604      866.538
04/28/2014  11:59:00       65.396     -115.420        2.274       50.365       73.051       42.824     2536.649     5336.471     1833.932        1.365        0.485      132.659       47.977        0.131      338.806       11.708      866.513
04/28/2014  12:00:00       63.498      -78.405       16.585       58.112       80.959       54.071     3376.971     6554.400     2923.726        1.165        0.643      100.893       53.459        0.281      339.066       12.146      866.499
04/28/2014  12:01:00       98.410      -23.997       -3.442       56.045      102.856       39.977     3141.003    10579.447     1598.157        1.279        0.766      101.293       30.586        0.091      338.346       10.937      866.498
04/28/2014  12:02:00      -48.556        4.712       12.005       68.119       37.401       36.675     4640.250     1398.809     1345.030        0.495        0.369       48.784       24.243        0.247      338.652       11.450      866.485
04/28/2014  12:03:00      -27.313        4.873       37.206       73.401       39.509       45.117     5387.775     1560.936     2035.499        0.557        0.449       27.744       50.499        3.313      339.204       12.377      866.484
04/28/2014  12:04:00       55.053       36.002       13.394       85.536       63.782       41.672     7316.479     4068.183     1736.583        0.881        0.656       65.780       26.534        0.163      339.313       12.561      866.454
04/28/2014  12:05:00       16.397      -26.545       40.258       58.771       63.969       34.528     3454.059     4092.084     1192.170        0.566        0.437       31.201       22.993        0.543      339.574       12.999      866.438
04/28/2014  12:06:00       -2.201       52.984       84.013       33.163       57.685       31.858     1099.801     3327.520     1014.942        0.766        0.272       53.029       24.830        0.219      339.793       13.371      866.449
04/28/2014  12:07:00       61.132      -30.607       34.550       75.830       94.855       71.119     5750.156     8997.533     5057.907        1.283        0.990       68.366       58.045        0.721      339.584       13.018      866.457
04/28/2014  12:08:00      178.133      131.709      104.237       95.471      119.801      101.413     9114.633    14352.207    10284.592        4.684        1.688      221.536       86.849        0.154      338.676       11.487      866.481
04/28/2014  12:09:00       59.680      -71.705        2.639       50.047       98.250       56.140     2504.738     9653.082     3151.660        1.201        0.765       93.291       59.474        0.406      338.630       11.412      866.503
04/28/2014  12:10:00        3.610       19.466       41.574       27.397       34.799       34.880      750.611     1210.963     1216.621        0.265        0.159       19.797       12.283        0.385      339.495       12.868      866.470
04/28/2014  12:11:00       -5.968       24.463       63.862       25.594       28.255       36.291      655.059      798.360     1317.028        0.374        0.139       25.180       22.833        0.822      339.633       13.102      866.454
04/28/2014  12:12:00        1.064       30.255       82.582       33.793       79.862       46.122     1141.999     6377.911     2127.254        0.869        0.482       30.274       49.364        2.659      339.425       12.750      866.446
04/28/2014  12:13:00      153.031      -29.667       44.927      108.443      115.939       73.161    11759.963    13441.805     5352.524        2.843        1.528      155.880       62.080        0.159      339.263       12.474      866.439
04/28/2014  12:14:00        4.393       -4.498       46.413      100.707       82.966       53.999    10141.877     6883.361     2915.888        1.106        0.997        6.287       37.598       35.761      339.401       12.711      866.448
04/28/2014  12:15:00       54.875      -46.213       81.679       85.449      148.369       69.817     7301.499    22013.230     4874.422        2.300        1.709       71.742       89.115        1.543      339.437       12.771      866.467
04/28/2014  12:16:00       69.908       75.608       45.335       69.295       67.934       70.738     4801.841     4615.091     5003.931        1.354        0.721      102.975       28.986        0.079      339.244       12.446      866.478
04/28/2014  12:17:00      129.560       90.817       54.880       69.476       50.843       51.703     4826.847     2585.054     2673.214        1.906        0.504      158.220       44.413        0.079      339.087       12.179      866.473
04/28/2014  12:18:00       63.854      118.779      100.132      106.853       74.533       68.132    11417.601     5555.154     4641.982        2.491        1.081      134.855       62.030        0.212      339.518       12.905      866.458
04/28/2014  12:19:00       55.387       11.291       -1.847       77.000       82.287       48.488     5929.066     6771.076     2351.083        0.912        0.753       56.526       53.889        0.909      338.598       11.357      866.475
04/28/2014  12:20:00       42.184       10.421        8.735       49.011       62.300       43.390     2402.119     3881.280     1882.680        0.506        0.408       43.452       25.192        0.336      339.069       12.150      866.452
04/28/2014  12:21:00       48.949       52.010        1.873       62.017       44.091       33.594     3846.087     1944.009     1128.585        0.601        0.346       71.421       23.829        0.111      339.160       12.304      866.435
04/28/2014  12:22:00       44.653       94.290       -4.537       72.719       53.622       40.726     5288.111     2875.357     1658.580        1.036        0.491      104.329       35.412        0.115      338.999       12.033      866.413
04/28/2014  12:23:00       40.649      197.568      -21.268       73.070       97.383       66.479     5339.202     9483.418     4419.403        3.019        0.962      201.707       57.507        0.081      338.915       11.890      866.422
04/28/2014  12:24:00       24.254      145.797      -18.840       46.208       61.561       39.398     2135.207     3789.711     1552.227        1.484        0.374      147.800       32.303        0.048      338.928       11.911      866.421
04/28/2014  12:25:00      -98.563      130.837      -26.709       54.569       65.627       39.740     2977.733     4306.854     1579.300        1.820        0.443      163.808       33.688        0.042      339.158       12.299      866.405
04/28/2014  12:26:00      -72.369      117.309      -22.077       33.431       41.590       32.878     1117.641     1729.726     1080.979        1.171        0.196      137.835       22.808        0.027      338.971       11.986      866.416
04/28/2014  12:27:00      -80.696       54.460       -3.492       40.905       42.917       34.827     1673.257     1841.867     1212.947        0.711        0.236       97.354       31.413        0.104      339.031       12.086      866.409
04/28/2014  12:28:00      -44.006       24.705       -1.856       52.909       44.173       30.689     2799.411     1951.230      941.816        0.412        0.285       50.466       16.423        0.106      339.061       12.137      866.381
04/28/2014  12:29:00       12.419       81.663       26.224       43.541       50.889       38.928     1895.778     2589.706     1515.390        0.675        0.300       82.602       25.245        0.093      339.653       13.134      866.370
04/28/2014  12:30:00       92.069       39.735       69.836      135.999      100.236       74.467    18495.837    10047.308     5545.358        2.450        1.704      100.277       67.873        0.458      339.596       13.039      866.352
04/28/2014  12:31:00      116.087       20.813       91.150      106.224      164.641      105.189    11283.439    27106.654    11064.820        3.583        2.473      117.938      112.694        0.913      339.740       13.277      866.328
04/28/2014  12:32:00      236.108      148.879      125.622      135.469      117.314      107.393    18351.945    13762.512    11533.260        6.866        2.182      279.127       81.931        0.086      338.939       11.929      866.320
04/28/2014  12:33:00      122.756       61.898       68.018       58.420      104.756       59.124     3412.935    10973.869     3495.615        2.070        0.894      137.479       60.534        0.194      338.832       11.750      866.351
04/28/2014  12:34:00       83.326      -32.973       62.193       66.598       97.428       52.739     4435.274     9492.282     2781.417        1.430        0.835       89.613       56.000        0.391      339.405       12.715      866.339
04/28/2014  12:35:00       10.963       15.335       47.369       38.978       37.700       31.982     1519.283     1421.266     1022.872        0.328        0.198       18.850       24.251        1.655      339.719       13.246      866.322
04/28/2014  12:36:00      -16.488     -114.323      -34.247       69.083       69.934       37.877     4772.406     4890.711     1434.695        1.280        0.555      115.506       32.266        0.078      339.397       12.702      866.314
04/28/2014  12:37:00      -19.654      -46.582       10.005       35.679       52.744       47.794     1273.022     2781.908     2284.257        0.450        0.317       50.559       43.849        0.752      339.901       13.552      866.286
04/28/2014  12:38:00       23.876      -41.261       46.789       47.343      124.570       69.573     2241.357    15517.764     4840.396        1.353        1.130       47.671       85.606        3.225      339.786       13.358      866.283
04/28/2014  12:39:00       98.315      -92.986       11.546       90.582      123.914       81.349     8205.050    15354.786     6617.720        2.431        1.509      135.323       72.531        0.287      339.580       13.009      866.281
04/28/2014  12:40:00       97.505     -102.469      -12.698       76.422       73.260       48.246     5840.284     5367.030     2327.629        1.685        0.677      141.446       55.206        0.152      338.987       12.010      866.311
04/28/2014  12:41:00     -118.799      -14.889      -45.165       37.747       61.754       31.487     1424.803     3813.533      991.443        1.130        0.311      119.728       11.060        0.009      338.683       11.501      866.303
04/28/2014  12:42:00      -70.080      -44.182       -6.759       47.973       34.606       28.752     2301.394     1197.542      826.685        0.562        0.216       82.845       26.922        0.106      339.191       12.355      866.296
04/28/2014  12:43:00      -16.105      -35.791       15.337       37.870       40.977       29.852     1434.123     1679.151      891.169        0.289        0.200       39.247       25.595        0.425      340.115       13.914      866.299
04/28/2014  12:44:00       36.890      -78.551        0.035      108.581       92.261       60.531    11789.852     8512.181     3663.974        1.574        1.198       86.782       57.682        0.442      339.723       13.251      866.303
04/28/2014  12:45:00       49.198      -28.866       49.295       82.763       92.302       64.044     6849.744     8519.663     4101.614        1.257        0.974       57.041       66.967        1.378      340.241       14.125      866.314
04/28/2014  12:46:00       29.692       19.746       66.581       90.118       46.454       46.305     8121.207     2157.949     2144.120        0.906        0.621       35.658       36.320        1.037      340.219       14.089      866.341
04/28/2014  12:47:00      112.560      112.436       48.715       97.220       88.565       51.645     9451.712     7843.774     2667.180        2.382        0.998      159.097       29.788        0.035      340.007       13.729      866.340
04/28/2014  12:48:00      153.997      103.909       50.015       95.916       71.910       68.153     9199.837     5171.009     4644.768        2.801        0.951      185.774       33.077        0.032      339.377       12.667      866.317
04/28/2014  12:49:00       59.082      215.068      -31.496       95.492      110.103       53.547     9118.799    12122.751     2867.297        3.742        1.205      223.035       55.856        0.063      339.279       12.502      866.296
04/28/2014  12:50:00       64.307      227.849      -25.766       70.844      142.245       56.715     5018.803    20233.650     3216.634        4.259        1.423      236.750       63.425        0.072      339.342       12.607      866.292
04/28/2014  12:51:00       69.535       90.860       20.032       77.079       66.329       61.172     5941.101     4399.580     3741.991        1.378        0.704      114.414       34.018        0.088      339.678       13.176      866.292
04/28/2014  12:52:00       89.070       72.810       43.523       61.946       64.691       58.871     3837.246     4184.941     3465.853        1.331        0.574      115.042       35.053        0.093      339.689       13.194      866.267
04/28/2014  12:53:00       67.239       57.086       23.794       69.468       60.212       58.695     4825.832     3625.477     3445.157        1.012        0.595       88.203       36.395        0.170      339.650       13.129      866.258
04/28/2014  12:54:00       29.010       42.359       53.681      100.027       77.889       70.149    10005.360     6066.672     4920.854        1.325        1.050       51.341       64.299        1.568      339.973       13.672      866.248
04/28/2014  12:55:00       19.738       78.752       84.102       54.314       45.122       40.910     2949.974     2036.040     1673.626        1.016        0.333       81.188       30.517        0.141      339.991       13.705      866.230
04/28/2014  12:56:00       54.108       71.889      101.236       70.820      121.380       59.976     5015.413    14733.100     3597.081        2.084        1.167       89.976       73.752        0.672      339.502       12.877      866.222
04/28/2014  12:57:00       72.658      -33.866       49.272       56.297       84.004       59.165     3169.401     7056.592     3500.507        1.129        0.686       80.163       61.911        0.596      339.664       13.153      866.221
04/28/2014  12:58:00       77.541        7.008       50.270       55.014       42.721       33.105     3026.563     1825.074     1095.938        0.727        0.297       77.857       34.123        0.192      339.487       12.855      866.210
04/28/2014  12:59:00       33.356        7.980       27.032       32.499       23.357       26.115     1056.173      545.562      681.978        0.209        0.114       34.298       13.513        0.155      339.394       12.699      866.199
04/28/2014  13:00:00      101.884     -106.717       23.846       75.339       73.820       55.202     5675.929     5449.347     3047.254        1.825        0.709      147.542       44.019        0.089      339.398       12.701      866.172
04/28/2014  13:01:00       86.753       17.334       55.305       68.516       75.891       60.519     4694.438     5759.445     3662.586        1.250        0.706       88.468       57.253        0.419      339.563       12.981      866.158
04/28/2014  13:02:00       80.337       33.647       66.313       83.203       99.388       55.230     6922.761     9878.003     3050.385        1.591        0.993       87.099       54.076        0.385      339.541       12.944      866.168
04/28/2014  13:03:00       37.775     -138.556       -4.451       70.904       50.498       40.440     5027.445     2550.079     1635.366        1.493        0.461      143.613       29.882        0.043      339.407       12.720      866.173
04/28/2014  13:04:00      184.257     -277.668      -51.600      100.099      115.253       39.786    10019.835    13283.174     1582.955        6.929        1.244      333.242       41.869        0.016      339.273       12.491      866.143
04/28/2014  13:05:00      212.626       41.281       97.981      128.443      238.065      105.887    16497.521    56674.962    11211.968        7.043        4.219      216.597      117.267        0.293      339.783       13.348      866.106
04/28/2014  13:06:00      119.402      132.101       86.789      107.234       90.169       96.367    11499.050     8130.438     9286.575        3.407        1.446      178.065       80.368        0.204      340.040       13.784      866.142
04/28/2014  13:07:00      195.481      114.478       81.023       91.591       86.635       85.695     8388.964     7505.697     7343.630        4.056        1.162      226.535       60.125        0.070      339.532       12.927      866.143
04/28/2014  13:08:00      131.680      149.149      109.789      100.720      117.828      105.486    10144.430    13883.475    11127.297        4.339        1.758      198.960       85.538        0.185      339.469       12.821      866.138
04/28/2014  13:09:00      142.768       96.985      105.127       82.909       91.861       69.638     6873.894     8438.435     4849.503        3.050        1.008      172.594       57.474        0.111      339.330       12.587      866.154
04/28/2014  13:10:00       35.683       24.422       13.388       35.514       25.377       34.527     1261.241      644.010     1192.121        0.257        0.155       43.240       20.412        0.223      339.333       12.595      866.151
04/28/2014  13:11:00       55.655       90.317      110.672       65.757       62.536       52.237     4323.978     3910.811     2728.667        1.723        0.548      106.088       45.342        0.183      339.565       12.984      866.126
04/28/2014  13:12:00       28.546       65.390       -0.103       34.395       67.167       36.384     1183.003     4511.470     1323.820        0.605        0.351       71.349       33.616        0.222      339.485       12.851      866.100
04/28/2014  13:13:00      110.507      161.777      172.259      126.905      124.230       91.461    16104.916    15433.212     8365.166        5.397        1.995      195.918       84.840        0.188      339.832       13.433      866.083
04/28/2014  13:14:00      107.427      -33.510       59.701      115.076      112.327       73.764    13242.465    12617.275     5441.070        2.376        1.565      112.532       82.504        0.538      340.058       13.815      866.099
04/28/2014  13:15:00      116.000       71.246      120.536       79.043      102.904       64.514     6247.782    10589.230     4162.038        2.703        1.050      136.132       70.036        0.265      339.832       13.434      866.137
04/28/2014  13:16:00       74.520      -39.830       29.915       70.206       64.310       51.328     4928.831     4135.830     2634.539        0.986        0.585       84.497       50.308        0.354      339.707       13.226      866.130
04/28/2014  13:17:00       83.439       -0.526       27.490       91.734       90.654       55.140     8415.151     8218.194     3040.399        1.369        0.984       83.441       53.747        0.415      340.074       13.843      866.098
04/28/2014  13:18:00       82.392       90.987       88.620       90.239       92.446       85.095     8143.045     8546.193     7241.216        2.342        1.197      122.747       59.451        0.235      340.065       13.825      866.087
04/28/2014  13:19:00       93.917     -110.010       25.160       83.806      105.296       63.051     7023.504    11087.343     3975.397        2.182        1.104      144.646       63.725        0.194      339.876       13.510      866.101
04/28/2014  13:20:00       25.951      -85.808       12.866       46.742      104.314       39.252     2184.815    10881.379     1540.698        1.140        0.730       89.647       25.285        0.080      340.000       13.719      866.077
04/28/2014  13:21:00      -31.251      -32.892       73.782       71.521      125.549       88.655     5115.298    15762.572     7859.772        1.811        1.437       45.371       95.762        4.455      340.416       14.421      866.063
04/28/2014  13:22:00       -4.178      -86.584        6.964       48.980       65.228       50.205     2399.086     4254.690     2520.516        0.837        0.459       86.685       43.929        0.257      340.438       14.459      866.056
04/28/2014  13:23:00       67.785      -53.300       21.125       85.460      112.553       66.883     7303.336    12668.279     4473.369        1.616        1.222       86.231       82.285        0.911      340.417       14.423      866.048
04/28/2014  13:24:00      -68.928      -59.015       45.353       89.566       86.548       69.611     8022.124     7490.613     4845.665        1.532        1.018       90.741       54.277        0.358      340.237       14.120      866.032
04/28/2014  13:25:00      -11.752      -94.227       -0.199       73.559       80.768       44.347     5410.957     6523.506     1966.680        1.146        0.695       94.957       48.407        0.260      340.160       13.988      866.037
04/28/2014  13:26:00      110.214     -299.992        3.185       88.705      121.791       62.797     7868.497    14833.055     3943.423        6.439        1.332      319.597       57.734        0.033      339.637       13.104      866.028
04/28/2014  13:27:00       57.515     -149.321        3.446       56.933      107.005       48.911     3241.381    11450.099     2392.318        2.135        0.854      160.015       57.654        0.130      339.781       13.347      866.032
04/28/2014  13:28:00       83.499      -57.506       39.391       76.099       80.449       55.089     5791.106     6472.004     3034.811        1.356        0.765      101.386       53.811        0.282      339.829       13.431      866.002
04/28/2014  13:29:00      -10.319     -156.106       15.645       79.422      154.144       53.641     6307.811    23760.383     2877.407        2.883        1.647      156.447       77.274        0.244      339.605       13.051      865.969
04/28/2014  13:30:00      -36.682      -45.391        4.281       72.455       95.764       27.479     5249.787     9170.704      755.109        0.930        0.759       58.361       19.480        0.111      339.949       13.633      865.932
04/28/2014  13:31:00       32.529      -34.729        3.721       58.414       75.221       40.366     3412.156     5658.255     1629.390        0.649        0.535       47.584       33.592        0.498      340.175       14.015      865.913
04/28/2014  13:32:00      168.363      129.000       43.890       94.286       80.455       67.124     8889.851     6472.935     4505.668        3.339        0.993      212.102       20.465        0.009      340.158       13.982      865.903
04/28/2014  13:33:00       80.585       73.037       24.637       99.039       64.575       54.202     9808.798     4169.922     2937.836        1.467        0.846      108.758       27.151        0.062      340.666       14.843      865.908
04/28/2014  13:34:00      177.009      124.533        5.134       93.686       85.322       65.186     8777.132     7279.878     4249.226        3.358        1.015      216.427       28.949        0.018      339.967       13.661      865.909
04/28/2014  13:35:00      136.580      119.329       13.672      127.096       95.444       65.955    16153.356     9109.524     4350.005        3.134        1.481      181.366       53.338        0.086      339.954       13.641      865.901
04/28/2014  13:36:00       90.715       94.999        3.023       74.626       62.141       52.405     5569.069     3861.487     2746.279        1.472        0.609      131.354       35.655        0.074      339.889       13.530      865.913
04/28/2014  13:37:00       29.388      155.615      -14.047       83.710       97.938       50.529     7007.387     9591.908     2553.131        2.221        0.958      158.366       53.067        0.112      339.732       13.265      865.895
04/28/2014  13:38:00      154.283      117.402        9.080      126.945       79.532       49.611    16115.131     6325.399     2461.231        3.128        1.245      193.873       38.644        0.040      339.926       13.595      865.905
04/28/2014  13:39:00       65.529       81.171        8.898       69.990       72.043       48.955     4898.627     5190.241     2396.559        1.172        0.624      104.321       38.515        0.136      339.666       13.155      865.914
04/28/2014  13:40:00      125.064       80.928        7.273       48.795       48.659       39.192     2380.943     2367.740     1536.023        1.426        0.314      148.964       18.529        0.015      339.591       13.029      865.922
04/28/2014  13:41:00       77.054       18.011       10.329       52.388       49.933       23.206     2744.468     2493.322      538.499        0.607        0.289       79.131       22.387        0.080      339.677       13.173      865.917
04/28/2014  13:42:00       61.526       67.058        8.546       33.626       27.531       28.191     1130.706      757.930      794.741        0.552        0.134       91.006       14.893        0.027      339.421       12.743      865.894
04/28/2014  13:43:00       43.196       49.686       37.568       58.685       39.417       31.416     3443.892     1553.694      986.979        0.586        0.299       65.838       20.351        0.096      340.000       13.722      865.894
04/28/2014  13:44:00       83.971       43.657       18.259       71.582       45.413       42.730     5124.043     2062.347     1825.862        0.915        0.451       94.642       20.635        0.048      340.311       14.244      865.900
04/28/2014  13:45:00       17.304       45.935       63.390       44.885       48.574       44.224     2014.695     2359.440     1955.793        0.638        0.316       49.086       30.884        0.396      340.724       14.942      865.908
04/28/2014  13:46:00       30.453      -83.253       11.779       49.615       69.306       46.483     2461.634     4803.274     2160.635        0.871        0.471       88.648       45.395        0.262      340.112       13.909      865.908
04/28/2014  13:47:00       84.168     -111.709       10.281       51.264       80.663       49.770     2628.004     6506.577     2477.050        1.564        0.581      139.868       48.605        0.121      339.943       13.624      865.886
04/28/2014  13:48:00       63.332      -61.573       16.443       55.039       79.238       54.582     3029.321     6278.677     2979.199        1.018        0.614       88.330       57.407        0.422      339.900       13.551      865.892
04/28/2014  13:49:00       45.606       17.956       21.294       52.086       53.546       42.918     2712.902     2867.147     1841.932        0.514        0.371       49.014       47.897        0.955      340.035       13.779      865.867
04/28/2014  13:50:00      -40.056        7.383       16.383       45.326       62.858       32.802     2054.466     3951.160     1075.991        0.450        0.354       40.730       27.400        0.453      340.605       14.740      865.842
04/28/2014  13:51:00       -8.698       -9.323       10.796       44.499       34.213       34.914     1980.190     1170.540     1218.994        0.232        0.218       12.750       28.930        5.149      340.466       14.506      865.839
04/28/2014  13:52:00       24.226      -60.238       -8.400       34.673       37.920       23.976     1202.199     1437.940      574.853        0.375        0.161       64.927       13.987        0.046      340.096       13.881      865.850
04/28/2014  13:53:00       69.750       61.487        7.097       53.652       74.375       47.274     2878.520     5531.649     2234.821        0.967        0.532       92.983       40.011        0.185      340.283       14.196      865.854
04/28/2014  13:54:00       80.370      181.627      -11.171       86.709      107.674       63.601     7518.511    11593.625     4045.084        3.136        1.158      198.614       57.069        0.083      339.944       13.621      865.831
04/28/2014  13:55:00      -12.799      134.948      -10.574      117.165      111.804       53.619    13727.538    12500.170     2874.969        2.379        1.455      135.554       68.002        0.252      340.153       13.975      865.829
04/28/2014  13:56:00       29.104      220.669      -27.382       59.621       85.421       44.509     3554.684     7296.791     1981.040        3.156        0.642      222.580       37.218        0.028      340.127       13.931      865.841
04/28/2014  13:57:00      -38.685      159.191      -11.381       54.349      115.183       44.897     2953.861    13267.126     2015.722        2.260        0.912      163.824       53.211        0.106      340.176       14.015      865.853
04/28/2014  13:58:00      -57.263      156.750      -15.337       43.716       54.136       42.949     1911.075     2930.697     1844.581        1.738        0.334      166.882       30.130        0.033      340.289       14.206      865.852
04/28/2014  13:59:00       -9.444      205.807      -22.572       76.164       99.511       48.044     5800.960     9902.452     2308.222        3.048        0.901      206.024       52.788        0.066      340.331       14.275      865.843
04/28/2014  14:00:00       54.399      202.619      -21.092       78.126      121.575       58.485     6103.702    14780.547     3420.500        3.438        1.215      209.795       61.400        0.086      340.324       14.263      865.846
04/28/2014  14:01:00      101.832      149.226       10.464       92.489       86.963       67.341     8554.271     7562.646     4534.803        2.670        1.033      180.660       56.710        0.099      340.251       14.140      865.855
04/28/2014  14:02:00       61.859       77.460        2.411       80.063       57.534       42.648     6410.111     3310.170     1818.854        1.068        0.577       99.129       30.305        0.093      340.502       14.568      865.858
04/28/2014  14:03:00       82.408       53.870       33.743       81.860       60.069       54.676     6701.014     3608.263     2989.454        1.206        0.665       98.454       33.713        0.117      340.768       15.016      865.862
04/28/2014  14:04:00      203.636      128.083       34.287       93.792       78.062       48.908     8796.856     6093.601     2391.969        3.816        0.864      240.568       41.672        0.030      340.179       14.019      865.859
04/28/2014  14:05:00      114.206       57.973       18.937       74.628       56.404       43.929     5569.291     3181.446     1929.755        1.372        0.534      128.077       31.156        0.059      340.020       13.754      865.855
04/28/2014  14:06:00       57.354       33.580        4.619       36.271       42.826       29.151     1315.571     1834.097      849.755        0.422        0.200       66.462       19.231        0.084      340.241       14.126      865.841
04/28/2014  14:07:00       28.433       35.849       15.952       48.263       53.203       35.156     2329.278     2830.513     1235.943        0.437        0.320       45.756       33.581        0.539      340.959       15.340      865.829
04/28/2014  14:08:00       68.465       -3.249        6.872       61.341       45.885       40.821     3762.669     2105.451     1666.379        0.614        0.377       68.542       28.868        0.177      340.774       15.027      865.822
04/28/2014  14:09:00       34.572       73.741       83.677       73.623       65.128       57.228     5420.395     4241.597     3274.997        1.328        0.647       81.443       42.761        0.276      340.590       14.714      865.815
04/28/2014  14:10:00      125.651      -21.991       60.177       99.578      116.505       66.444     9915.850    13573.315     4414.741        2.389        1.395      127.561       76.375        0.358      340.233       14.112      865.825
04/28/2014  14:11:00       43.406       35.571       77.350       76.927       72.865       35.091     5917.704     5309.341     1231.363        1.079        0.623       56.120       32.884        0.343      340.479       14.527      865.819
04/28/2014  14:12:00       45.846       42.005       53.904       32.217       27.791       16.768     1037.928      772.357      281.160        0.443        0.105       62.179        9.806        0.025      340.211       14.075      865.816
04/28/2014  14:13:00       78.850       -9.941       31.735       78.316      154.647       71.039     6133.452    23915.640     5046.580        2.120        1.755       79.474       80.538        1.027      340.406       14.403      865.826
04/28/2014  14:14:00      130.121     -124.487       23.697      121.655      163.798       89.343    14799.896    26829.907     7982.084        4.129        2.481      180.079      100.190        0.310      340.730       14.950      865.804
04/28/2014  14:15:00      107.398      -90.110       45.327      117.412      148.505       92.095    13785.642    22053.686     8481.438        3.301        2.216      140.193       99.236        0.501      340.740       14.969      865.821
04/28/2014  14:16:00       76.594       62.931       85.528       78.116      105.544       68.063     6102.128    11139.630     4632.519        1.950        1.094       99.131       51.582        0.271      340.544       14.637      865.867
04/28/2014  14:17:00      139.371      102.561       35.666       94.495       55.619       58.432     8929.276     3093.484     3414.309        2.332        0.772      173.040       42.812        0.061      340.312       14.244      865.875
04/28/2014  14:18:00       62.053       64.919        8.051       58.946       44.642       42.879     3474.628     1992.883     1838.647        0.772        0.365       89.805       48.001        0.286      339.858       13.480      865.872
04/28/2014  14:19:00       39.302       31.604       31.094       38.200       33.853       27.799     1459.253     1145.997      772.776        0.344        0.169       50.433       17.332        0.118      340.608       14.748      865.861
04/28/2014  14:20:00        3.766       16.194       57.078       61.081       72.871       59.286     3730.858     5310.227     3514.819        0.804        0.628       16.626       46.343        7.770      340.962       15.345      865.859
04/28/2014  14:21:00       25.225     -162.143        0.594       59.097       69.092       46.449     3492.430     4773.644     2157.506        1.867        0.521      164.093       30.806        0.035      340.665       14.842      865.871
04/28/2014  14:22:00      137.070     -118.267       39.915      150.662      149.104      108.948    22698.978    22232.048    11869.664        4.557        2.840      181.040      121.372        0.449      340.521       14.596      865.854
04/28/2014  14:23:00       43.862       43.907      131.745       91.022      157.135       86.288     8284.930    24691.464     7445.667        3.081        2.021       62.063       96.511        2.418      340.473       14.515      865.872
04/28/2014  14:24:00       83.091      -16.223       44.477       88.285       90.228       71.907     7794.180     8141.127     5170.584        1.512        1.055       84.660       77.015        0.828      340.464       14.502      865.903
04/28/2014  14:25:00       13.036      -40.359        3.960       66.180       53.419       34.782     4379.834     2853.573     1209.769        0.513        0.422       42.412       29.022        0.468      340.806       15.082      865.906
04/28/2014  14:26:00      -54.191      -48.137        0.015       98.638       65.737       55.102     9729.446     4321.347     3036.265        1.117        0.854       72.483       38.232        0.278      340.620       14.766      865.896
04/28/2014  14:27:00     -114.118     -146.625      -25.722       71.987       61.547       28.766     5182.069     3788.013      827.503        2.249        0.490      185.800       29.178        0.025      339.853       13.470      865.916
04/28/2014  14:28:00       -2.419       -0.309        1.718       64.390       33.100       37.407     4146.095     1095.639     1399.284        0.332        0.332        2.439       38.829      253.443      340.109       13.902      865.921
04/28/2014  14:29:00       82.078       15.892       17.633       30.446       52.884       35.635      926.983     2796.707     1269.824        0.615        0.250       83.602       21.128        0.064      339.995       13.711      865.920
04/28/2014  14:30:00       37.281       -1.612       22.044       42.836       35.284       34.896     1834.888     1244.941     1217.743        0.309        0.215       37.316       25.021        0.450      340.504       14.571      865.917
04/28/2014  14:31:00       24.518       13.629       22.049       62.544       54.135       56.375     3911.743     2930.582     3178.125        0.564        0.501       28.051       51.264        3.340      340.377       14.355      865.917
04/28/2014  14:32:00       23.746       22.595       40.469       36.605       39.882       27.428     1339.936     1590.578      752.306        0.320        0.184       32.778       23.147        0.499      340.951       15.327      865.911
04/28/2014  14:33:00        8.555      275.863      -31.840       82.302      148.452       66.108     6773.683    22037.931     4370.304        5.518        1.659      275.996       70.471        0.065      340.514       14.584      865.941
04/28/2014  14:34:00       71.341      224.031      -26.163       64.072      101.417       65.265     4105.242    10285.488     4259.580        3.730        0.933      235.116       58.904        0.063      340.328       14.271      865.960
04/28/2014  14:35:00       76.752      103.684      -18.438       37.046       42.181       28.785     1372.411     1779.251      828.595        1.048        0.199      129.001       23.722        0.034      340.222       14.093      865.966
04/28/2014  14:36:00      -57.723      149.400      -14.216       67.604       65.078       45.702     4570.306     4235.100     2088.635        1.837        0.545      160.164       44.823        0.078      340.495       14.554      865.950
04/28/2014  14:37:00       11.081       26.947       22.775       40.090       44.330       44.701     1607.202     1965.163     1998.188        0.347        0.279       29.136       37.117        1.623      340.483       14.535      865.937
04/28/2014  14:38:00      -34.034       82.350       -6.852       24.022       45.185       31.259      577.056     2041.656      977.135        0.579        0.180       89.105       12.773        0.021      340.557       14.659      865.927
04/28/2014  14:39:00       -8.987       26.134       -9.443       41.232       44.794       28.827     1700.047     2006.469      831.006        0.269        0.227       27.636       26.893        0.947      340.473       14.517      865.938
04/28/2014  14:40:00      -33.520      -24.450       -7.384       25.396       26.278       17.210      644.970      690.513      296.193        0.170        0.082       41.490       12.883        0.096      340.341       14.294      865.933
04/28/2014  14:41:00        6.383       22.563       12.020       28.771       38.758       31.764      827.743     1502.182     1008.921        0.202        0.167       23.448       16.536        0.497      340.457       14.492      865.919
04/28/2014  14:42:00       -7.377        3.793        6.584       54.258       68.851       35.616     2943.962     4740.411     1268.469        0.453        0.448        8.295       26.640       10.315      340.772       15.024      865.911
04/28/2014  14:43:00      143.146       83.774       72.730      114.678       89.054       65.698    13151.155     7930.588     4316.264        2.909        1.270      165.858       50.583        0.093      340.689       14.882      865.919
04/28/2014  14:44:00      254.893      133.034       74.309      134.648       78.891       84.872    18130.021     6223.727     7203.300        5.987        1.578      287.521       54.003        0.035      340.519       14.593      865.900
04/28/2014  14:45:00      178.603      164.557      103.682      125.704       76.644       68.810    15801.610     5874.248     4734.804        4.806        1.321      242.854       41.556        0.029      340.708       14.914      865.898
04/28/2014  14:46:00      114.039      130.879      133.082      101.174       89.099       62.948    10236.235     7938.598     3962.500        3.499        1.107      173.592       47.965        0.076      340.460       14.493      865.919
04/28/2014  14:47:00      131.742      112.129      126.623       99.104       97.659       75.281     9821.507     9537.241     5667.163        3.549        1.251      172.999       76.018        0.193      340.261       14.155      865.928
04/28/2014  14:48:00       81.713      -24.137       52.055       77.767       89.673       68.196     6047.755     8041.203     4650.713        1.435        0.937       85.203       58.500        0.471      340.821       15.104      865.914
04/28/2014  14:49:00       59.890      -14.198       50.044       76.376      103.479       66.249     5833.326    10707.865     4388.920        1.361        1.047       61.550       59.737        0.942      340.981       15.377      865.928
04/28/2014  14:50:00      121.298      105.772       85.691      100.992       93.895       73.659    10199.395     8816.233     5425.714        2.884        1.222      160.938       54.467        0.115      340.700       14.898      865.939
04/28/2014  14:51:00       25.857       26.342       89.419       72.563       75.024       48.391     5265.341     5628.563     2341.718        1.129        0.662       36.912       46.388        1.579      341.223       15.786      865.949
04/28/2014  14:52:00      107.146      -31.694       44.775       67.864      103.369       60.259     4605.457    10685.095     3631.088        1.670        0.946      111.735       63.744        0.325      340.871       15.190      865.962
04/28/2014  14:53:00      154.057       93.669       40.971       55.920       42.768       43.234     3127.053     1829.073     1869.196        2.050        0.341      180.298       15.166        0.007      340.475       14.520      865.980
04/28/2014  14:54:00      118.638      110.618       65.250       94.259       72.715       58.999     8884.681     5287.519     3480.837        2.411        0.883      162.208       38.758        0.057      340.583       14.701      865.990
04/28/2014  14:55:00       18.210       29.968       38.723       33.425       50.471       48.043     1117.251     2547.339     2308.163        0.435        0.299       35.067       33.937        0.937      340.762       15.006      865.995
04/28/2014  14:56:00      -36.728       63.585      -22.020       58.119       63.246       39.327     3377.863     4000.003     1546.646        0.740        0.446       73.430        6.832        0.009      340.580       14.699      865.986
04/28/2014  14:57:00       -7.742      139.942      -28.214       35.586       49.249       28.760     1266.355     2425.512      827.121        1.248        0.226      140.156       12.507        0.008      340.317       14.253      866.002
04/28/2014  14:58:00       -4.230       99.867      -10.216       34.598       37.576       29.565     1196.993     1411.919      874.104        0.679        0.174       99.957       17.291        0.030      340.414       14.417      866.022
04/28/2014  14:59:00       18.609      118.310      -14.239       30.342       28.577       27.944      920.611      816.621      780.874        0.853        0.126      119.764       21.444        0.032      340.455       14.487      866.033
04/28/2014  15:00:00       -7.187      174.510      -16.238       57.213       78.943       33.716     3273.323     6231.979     1136.766        2.070        0.532      174.658       35.728        0.042      340.797       15.064      866.042
04/28/2014  15:01:00      -24.220       88.074      -14.864       27.897       57.454       34.650      778.245     3300.918     1200.644        0.692        0.264       91.344       29.939        0.107      340.503       14.567      866.036
04/28/2014  15:02:00       21.049       46.434        9.006       48.170       41.854       28.793     2320.392     1751.752      829.033        0.379        0.245       50.982       24.309        0.227      340.711       14.920      866.010
04/28/2014  15:03:00       22.921       74.659      -17.379       36.794       59.965       25.473     1353.772     3595.823      648.848        0.600        0.280       78.099       19.014        0.059      340.512       14.583      865.997
04/28/2014  15:04:00      124.034       31.538       33.209      101.601       60.552       54.434    10322.792     3666.505     2963.026        1.721        0.848      127.981       31.223        0.060      340.577       14.692      865.984
04/28/2014  15:05:00      160.874      147.161       44.321      113.661       92.668       90.575    12918.835     8587.344     8203.784        3.960        1.485      218.029       66.497        0.093      340.602       14.733      865.951
04/28/2014  15:06:00      171.052      124.232       72.881       85.433       58.872       70.272     7298.873     3465.952     4938.199        3.285        0.785      211.405       56.808        0.072      340.685       14.874      865.947
04/28/2014  15:07:00       70.494       14.180       36.778       43.672       54.976       37.593     1907.226     3022.411     1413.204        0.643        0.317       71.906       36.992        0.265      340.738       14.967      865.951
04/28/2014  15:08:00       41.110      -38.224       39.970       62.970       76.651       48.190     3965.164     5875.413     2322.257        0.845        0.608       56.134       44.983        0.642      340.944       15.314      865.929
04/28/2014  15:09:00       96.615     -100.852        7.868       43.292      101.383       41.873     1874.172    10278.493     1753.359        1.673        0.695      139.662       48.940        0.123      340.701       14.903      865.910
04/28/2014  15:10:00       44.494       32.818       39.444       72.733       61.761       52.369     5290.133     3814.420     2742.525        0.823        0.592       55.288       44.219        0.640      341.053       15.498      865.919
04/28/2014  15:11:00       65.335       48.001       38.663       56.000       50.269       45.754     3136.000     2526.976     2093.459        0.791        0.388       81.073       25.406        0.098      340.725       14.944      865.933
04/28/2014  15:12:00       -1.098      -42.873       18.025       38.493       39.106       31.751     1481.705     1529.299     1008.116        0.309        0.201       42.887       21.814        0.259      340.779       15.037      865.936
04/28/2014  15:13:00      101.012       80.585       33.251       56.922       50.091       38.388     3240.160     2509.150     1473.653        1.251        0.361      129.219       21.735        0.028      340.523       14.602      865.929
04/28/2014  15:14:00       22.246       85.650      -18.006       42.171       47.248       28.282     1778.431     2232.327      799.850        0.648        0.241       88.492       24.610        0.077      340.573       14.687      865.922
04/28/2014  15:15:00       -6.519       -4.079       -3.748       34.798       71.097       26.305     1210.905     5054.817      691.954        0.351        0.348        7.690       30.363       15.590      341.193       15.737      865.915
04/28/2014  15:16:00       86.117      -62.309       38.862       76.222       72.008       58.867     5809.737     5185.152     3465.272        1.363        0.723      106.295       45.500        0.183      341.140       15.645      865.910
04/28/2014  15:17:00      156.910     -172.812      -14.866       65.218       90.935       56.089     4253.449     8269.150     3146.022        3.518        0.783      233.420       64.424        0.076      340.612       14.749      865.928
04/28/2014  15:18:00       48.300       11.944       45.616       44.121       35.852       43.936     1946.628     1285.351     1930.414        0.486        0.258       49.755       27.636        0.309      340.815       15.096      865.975
04/28/2014  15:19:00      -30.427      -27.970        1.852       64.373       62.421       25.881     4143.929     3896.331      669.846        0.521        0.436       41.329       27.112        0.430      340.826       15.114      866.010
04/28/2014  15:20:00      133.798      125.261        2.360       89.881       69.531       60.871     8078.576     4834.526     3705.301        2.510        0.831      183.281       48.660        0.070      340.604       14.737      865.990
04/28/2014  15:21:00      162.870       75.297       13.592       66.104       63.408       40.551     4369.782     4020.627     1644.372        2.121        0.502      179.433       38.083        0.045      340.499       14.558      865.973
04/28/2014  15:22:00      141.795      135.218       18.709      155.147       71.948       55.905    24070.552     5176.562     3125.360        3.555        1.619      195.933       56.560        0.083      340.678       14.862      865.965
04/28/2014  15:23:00      333.239      167.025       21.197      123.946      103.009       72.743    15362.599    10610.815     5291.569        8.532        1.563      372.754       56.737        0.023      340.606       14.739      865.965
04/28/2014  15:24:00      174.751      123.938       23.950       73.110       86.368       65.521     5345.004     7459.435     4293.040        3.178        0.855      214.239       42.318        0.039      340.652       14.818      865.983
04/28/2014  15:25:00      127.850       81.412       44.469       56.302       39.045       44.968     3169.870     1524.520     2022.157        1.583        0.336      151.570       30.324        0.040      341.096       15.573      865.974
04/28/2014  15:26:00      106.799      134.003      100.504       95.153       70.563       72.213     9054.027     4979.137     5214.769        2.935        0.962      171.356       72.297        0.178      340.528       14.606      865.988
04/28/2014  15:27:00       37.417       31.166       43.310       41.597       49.673       33.744     1730.318     2467.435     1138.653        0.479        0.267       48.697       26.328        0.292      340.662       14.838      866.005
04/28/2014  15:28:00       22.635      -19.901       24.975       38.872       54.240       21.241     1511.069     2942.008      451.182        0.322        0.245       30.139       29.691        0.970      341.030       15.459      865.974
04/28/2014  15:29:00       81.857      -82.630       -4.377       68.847       78.409       52.450     4739.977     6148.002     2751.002        1.359        0.682      116.311       45.365        0.152      340.944       15.313      865.938
04/28/2014  15:30:00       22.928       29.093       19.942       42.236       74.694       37.887     1783.918     5579.134     1435.460        0.528        0.440       37.042       30.758        0.690      340.684       14.874      865.949
04/28/2014  15:31:00      117.342       51.959       15.105       65.894       36.413       29.586     4342.083     1325.920      875.319        1.162        0.327      128.331       16.467        0.016      340.845       15.147      865.963
04/28/2014  15:32:00       60.656       99.723       12.579       91.413       92.305       47.549     8356.320     8520.286     2260.865        1.646        0.957      116.721       54.991        0.222      340.979       15.372      865.972
04/28/2014  15:33:00       65.667      194.616      -10.176       88.179      158.603       77.510     7775.489    25154.867     6007.828        4.061        1.947      205.396       81.861        0.159      341.041       15.475      865.954
04/28/2014  15:34:00      -29.172      297.824      -47.646       58.120       88.101       31.687     3377.877     7761.787     1004.049        5.198        0.607      299.250       31.464        0.011      340.742       14.970      865.944
04/28/2014  15:35:00       59.143      197.410       -1.939      182.885      108.827       58.320    33446.961    11843.227     3401.189        4.557        2.435      206.079       55.233        0.072      341.061       15.508      865.928
04/28/2014  15:36:00      227.380      161.671       99.993       98.399       96.039       82.647     9682.370     9223.458     6830.504        5.678        1.287      278.997       48.355        0.030      341.030       15.457      865.916
04/28/2014  15:37:00      275.177      212.803       13.478      113.361       82.053       65.058    12850.737     6732.698     4232.479        7.250        1.191      347.861       53.498        0.024      340.716       14.925      865.953
04/28/2014  15:38:00      108.624       81.758       13.456       92.063       77.412       57.162     8475.585     5992.679     3267.534        1.820        0.887      135.954       40.111        0.087      340.833       15.126      865.972
04/28/2014  15:39:00      112.723       86.259       53.813       82.787       61.104       65.402     6853.666     3733.750     4277.424        1.895        0.743      141.940       41.191        0.084      340.775       15.028      865.969
04/28/2014  15:40:00      152.451       67.046       55.299       92.207       62.643       50.271     8502.144     3924.134     2527.210        2.287        0.748      166.543       34.854        0.044      340.857       15.165      865.968
04/28/2014  15:41:00      105.097       66.908       14.447       70.700       72.084       51.720     4998.525     5196.043     2674.976        1.430        0.643      124.587       32.639        0.069      340.778       15.033      865.956
04/28/2014  15:42:00       29.376       52.148       -0.521       39.254       57.930       22.690     1540.886     3355.879      514.827        0.450        0.271       59.853       19.450        0.106      340.858       15.170      865.939
04/28/2014  15:43:00       54.592       34.293       41.858       49.379       47.327       39.169     2438.324     2239.824     1534.197        0.606        0.311       64.469       31.730        0.242      340.921       15.276      865.919
04/28/2014  15:44:00       76.850       -5.872       19.290       75.437       91.061       48.747     5690.713     8292.143     2376.289        1.133        0.818       77.074       42.618        0.306      340.868       15.186      865.914
04/28/2014  15:45:00      144.730       79.257       52.029       60.543       70.131       47.951     3665.416     4918.372     2299.251        2.041        0.544      165.010       39.059        0.056      340.967       15.352      865.907
04/28/2014  15:46:00      133.067      112.210        6.330       92.243       63.711       56.514     8508.796     4059.106     3193.872        2.305        0.788      174.063       32.280        0.034      341.176       15.705      865.887
04/28/2014  15:47:00       89.048       79.869        9.725       72.076       63.583       41.959     5195.002     4042.743     1760.547        1.270        0.550      119.619       36.605        0.094      340.988       15.389      865.883
04/28/2014  15:48:00      123.144       96.038       11.032       69.851       64.597       45.914     4879.144     4172.718     2108.135        1.783        0.558      156.165       32.066        0.042      341.043       15.480      865.872
04/28/2014  15:49:00       58.566      167.661       -3.593       67.204      103.906       66.866     4516.427    10796.540     4471.077        2.566        0.989      177.595       64.898        0.134      340.920       15.272      865.864
04/28/2014  15:50:00       30.059      188.709       -9.604       56.651      127.281       51.530     3209.340    16200.511     2655.331        2.933        1.103      191.088       64.986        0.116      341.016       15.434      865.859
04/28/2014  15:51:00      147.254      108.459       61.473       66.809       45.781       51.541     4463.398     2095.865     2656.488        2.322        0.461      182.885       37.329        0.042      341.091       15.560      865.872
04/28/2014  15:52:00      119.373       63.059      -15.660       75.170       60.057       43.292     5650.484     3606.788     1874.195        1.480        0.557      135.006       32.530        0.058      340.739       14.968      865.883
04/28/2014  15:53:00       98.230      -45.585       44.350       90.421       90.513       59.948     8175.988     8192.682     3593.792        1.682        0.998      108.292       67.843        0.392      340.816       15.096      865.891
04/28/2014  15:54:00       90.750       44.310       33.573       83.512       81.145       40.966     6974.335     6584.488     1678.190        1.328        0.762      100.990       42.793        0.180      340.940       15.307      865.886
04/28/2014  15:55:00       74.861       39.275       -9.384       83.019       61.922       47.809     6892.129     3834.321     2285.654        1.012        0.651       84.538       44.235        0.274      340.858       15.168      865.883
04/28/2014  15:56:00       48.081     -105.985       -0.140       59.789      109.825       49.465     3574.729    12061.608     2446.834        1.581        0.904      116.381       45.499        0.153      340.930       15.289      865.876
04/28/2014  15:57:00       65.157      -71.268        6.847       25.422       70.801       23.447      646.286     5012.719      549.764        0.779        0.310       96.564       14.033        0.021      340.708       14.915      865.880
04/28/2014  15:58:00      116.483     -176.347      -22.304       84.148      117.648       51.534     7080.941    13841.119     2655.756        3.437        1.179      211.344       50.155        0.056      341.141       15.644      865.854
04/28/2014  15:59:00      214.506     -237.600        8.610      109.990      201.584       82.407    12097.802    40636.241     6790.974        8.102        2.976      320.104       88.241        0.076      340.819       15.099      865.853
04/28/2014  16:00:00       18.474      -12.776      -18.515       42.735      110.532       37.648     1826.253    12217.227     1417.341        0.815        0.773       22.462       37.175        2.739      341.029       15.458      865.873
04/28/2014  16:01:00       59.867     -168.741      -21.121       64.495       80.770       37.053     4159.651     6523.731     1372.926        2.228        0.603      179.047       43.034        0.058      341.277       15.876      865.852
04/28/2014  16:02:00      121.273     -208.585      -22.760       59.812       52.708       31.690     3577.499     2778.133     1004.279        3.304        0.368      241.277       26.383        0.012      340.907       15.247      865.855
04/28/2014  16:03:00       -6.035      -75.330       31.306       62.720      104.621       59.992     3933.800    10945.544     3599.067        1.258        0.924       75.571       70.766        0.877      341.597       16.419      865.852
04/28/2014  16:04:00       26.798     -108.454       40.650       48.187       74.796       62.652     2322.035     5594.454     3925.210        1.298        0.592      111.715       52.055        0.217      340.884       15.212      865.876
04/28/2014  16:05:00       -6.436       29.899      -15.227       38.841       25.904       27.196     1508.631      671.031      739.645        0.204        0.146       30.584       27.050        0.782      340.799       15.070      865.859
04/28/2014  16:06:00       10.086        5.552       25.947       27.339       26.804       33.913      747.419      718.431     1150.102        0.171        0.131       11.513       21.272        3.414      341.125       15.621      865.846
04/28/2014  16:07:00       40.734      -40.191       33.594       69.749       64.269       46.662     4864.968     4130.507     2177.304        0.779        0.559       57.224       41.200        0.518      341.200       15.747      865.834
04/28/2014  16:08:00       67.739     -183.458      -28.544       57.271       92.827       48.685     3279.927     8616.925     2370.228        2.666        0.713      195.564       44.745        0.052      340.979       15.370      865.836
04/28/2014  16:09:00       83.952      -46.627       34.220       81.936       85.029       67.210     6713.556     7229.947     4517.140        1.442        0.923       96.032       62.176        0.419      341.076       15.537      865.836
04/28/2014  16:10:00       89.265       71.737      113.564       84.928      108.943       69.426     7212.685    11868.653     4820.019        2.495        1.195      114.518       67.728        0.350      341.193       15.734      865.843
04/28/2014  16:11:00      263.958      134.275       75.494      125.632      133.428       97.158    15783.477    17803.030     9439.751        6.821        2.151      296.148       80.801        0.074      341.140       15.644      865.828
04/28/2014  16:12:00      192.822       82.677       68.416      132.724       82.691       71.063    17615.529     6837.824     5049.955        3.909        1.475      209.799       61.461        0.086      341.175       15.703      865.829
04/28/2014  16:13:00      189.151      105.193       60.462       93.470       70.187       63.409     8736.704     4926.241     4020.694        3.409        0.884      216.434       57.750        0.071      340.885       15.212      865.842
04/28/2014  16:14:00       49.489      -22.671       23.776       54.346       85.650       41.523     2953.485     7335.994     1724.170        0.777        0.601       54.435       43.092        0.627      341.236       15.808      865.817
04/28/2014  16:15:00       71.297      -80.953       47.063       66.955      166.336       72.523     4483.018    27667.804     5259.555        2.562        1.871      107.874       99.621        0.853      341.221       15.781      865.796
04/28/2014  16:16:00      120.910      121.327      107.552       95.019      121.882       70.771     9028.668    14855.190     5008.579        3.489        1.445      171.287       70.433        0.169      341.212       15.765      865.789
04/28/2014  16:17:00      100.995       88.311       63.158      112.073       76.095       72.582    12560.253     5790.454     5268.202        2.280        1.181      134.159       70.881        0.279      341.112       15.596      865.777
04/28/2014  16:18:00       99.276       55.798       13.900       78.988       62.314       38.915     6239.102     3883.072     1514.400        1.240        0.582      113.883       39.342        0.119      341.107       15.591      865.767
04/28/2014  16:19:00      143.762       97.514       15.390       65.147       48.934       46.986     4244.190     2394.568     2207.726        1.963        0.442      173.714       27.391        0.025      341.236       15.807      865.771
04/28/2014  16:20:00      152.463      151.401       12.575      105.131      125.643       75.647    11052.623    15786.087     5722.527        3.944        1.628      214.866       72.860        0.115      341.435       16.142      865.755
04/28/2014  16:21:00       71.130      236.434      -24.993       94.058      124.837       87.035     8846.814    15584.366     7575.135        4.679        1.600      246.902       80.823        0.107      341.377       16.043      865.756
04/28/2014  16:22:00      120.903      170.584        1.326       97.599      103.817       75.319     9525.632    10777.968     5673.015        3.484        1.299      209.085       64.599        0.095      341.232       15.798      865.774
04/28/2014  16:23:00      203.557      149.846       18.371      106.827       76.700       60.103    11411.956     5882.935     3612.325        4.256        1.045      252.764       32.116        0.016      341.178       15.707      865.780
04/28/2014  16:24:00      167.668      179.034        0.924      147.043       81.119       68.080    21621.735     6580.308     4634.829        4.650        1.642      245.287       46.822        0.036      341.037       15.469      865.794
04/28/2014  16:25:00      -10.397      148.783      -12.241       81.650       79.669       45.610     6666.676     6347.186     2080.234        1.874        0.755      149.146       45.712        0.094      341.435       16.143      865.801
04/28/2014  16:26:00       -4.408      265.438      -31.659       77.743      124.734       52.311     6043.972    15558.628     2736.400        4.790        1.217      265.475       62.287        0.055      341.241       15.814      865.812
04/28/2014  16:27:00       21.631      296.760      -46.900       49.488       70.883       35.411     2449.061     5024.386     1253.910        4.973        0.436      297.547       30.567        0.011      341.099       15.573      865.809
04/28/2014  16:28:00       69.435       83.657       18.627       97.710       63.308       52.325     9547.160     4007.940     2737.951        1.423        0.815      108.719       38.220        0.124      341.321       15.951      865.808
04/28/2014  16:29:00       72.735       46.713        4.948       68.853       51.592       38.970     4740.717     2661.753     1518.661        0.821        0.446       86.444       25.458        0.087      341.461       16.190      865.811
04/28/2014  16:30:00      103.575       95.305       19.945       80.163       59.401       51.232     6426.145     3528.535     2624.683        1.639        0.629      140.751       34.478        0.060      341.337       15.978      865.803
04/28/2014  16:31:00       80.833       63.301       36.974       68.017       55.092       64.480     4626.345     3035.150     4157.623        1.186        0.591      102.669       33.716        0.108      341.325       15.958      865.793
04/28/2014  16:32:00       87.829       54.851       42.872       56.389       53.604       44.001     3179.768     2873.420     1936.050        1.027        0.399      103.550       27.387        0.070      341.070       15.527      865.784
04/28/2014  16:33:00       90.872       66.891       38.601       38.356       58.194       40.167     1471.158     3386.573     1613.418        1.035        0.324      112.837       32.301        0.082      341.311       15.934      865.774
04/28/2014  16:34:00       49.504       40.585       56.235      113.012       79.238       49.487    12771.764     6278.615     2448.919        1.438        1.075       64.014       41.647        0.423      341.748       16.674      865.772
04/28/2014  16:35:00       15.661      -95.849       -7.578       66.725       65.731       49.546     4452.196     4320.614     2454.809        1.036        0.561       97.120       39.027        0.161      341.587       16.402      865.778
04/28/2014  16:36:00      -30.874      -10.291        0.798       51.425       52.775       43.181     2644.536     2785.217     1864.575        0.418        0.365       32.543       37.951        1.360      341.753       16.686      865.786
04/28/2014  16:37:00       57.870     -126.984       10.329       60.879       97.402       45.838     3706.214     9487.155     2101.101        1.743        0.765      139.549       52.683        0.143      341.404       16.091      865.791
04/28/2014  16:38:00       76.121     -150.133      -33.076       58.587       56.715       41.113     3432.398     3216.561     1690.292        1.888        0.417      168.328       27.499        0.027      341.371       16.037      865.792
04/28/2014  16:39:00       91.676     -153.435      -11.821       51.395       57.845       41.061     2641.406     3346.028     1685.992        1.988        0.384      178.737       23.731        0.018      341.070       15.527      865.795
04/28/2014  16:40:00       59.225      -91.250       10.521       55.413       94.076       33.965     3070.552     8850.368     1153.592        1.251        0.654      108.785       40.464        0.138      341.244       15.820      865.799
04/28/2014  16:41:00       79.642      -85.319       10.544       49.007       63.853       43.591     2401.723     4077.241     1900.218        1.105        0.419      116.714       44.177        0.143      341.251       15.835      865.803
04/28/2014  16:42:00      108.645     -129.688       21.370       65.900       59.234       44.286     4342.788     3508.638     1961.290        1.944        0.491      169.182       41.626        0.061      341.289       15.896      865.799
04/28/2014  16:43:00      117.700     -126.752        2.818       62.680       82.803       49.374     3928.741     6856.348     2437.758        2.157        0.661      172.972       57.987        0.112      341.121       15.611      865.801
04/28/2014  16:44:00       97.924     -134.178       -6.798       62.683       45.844       43.493     3929.186     2101.685     1891.604        1.778        0.396      166.111       19.228        0.013      341.209       15.763      865.791
04/28/2014  16:45:00       67.242      -58.759        8.334       71.581       81.948       30.702     5123.876     6715.437      942.634        1.041        0.639       89.298       41.157        0.212      341.192       15.733      865.783
04/28/2014  16:46:00       98.612       51.850       -2.623       55.767       38.396       47.335     3109.925     1474.221     2240.612        0.962        0.341      111.412       24.839        0.050      341.030       15.461      865.790
04/28/2014  16:47:00       22.671      -17.307       14.153       29.537       48.401       23.859      872.406     2342.675      569.266        0.240        0.189       28.523       20.859        0.535      340.977       15.370      865.794
04/28/2014  16:48:00       40.408       37.810       50.841       56.976       45.264       32.446     3246.250     2048.838     1052.736        0.600        0.317       55.339       28.688        0.269      341.174       15.703      865.794
04/28/2014  16:49:00      146.519       88.606       32.462       58.452       52.297       49.203     3416.596     2734.928     2420.975        1.947        0.429      171.227       29.656        0.030      341.333       15.971      865.810
04/28/2014  16:50:00      242.054      152.823       95.126      130.375       89.932       93.007    16997.650     8087.809     8650.292        6.236        1.687      286.260       49.915        0.030      341.214       15.769      865.784
04/28/2014  16:51:00      316.823      182.781       59.072      129.146       93.774       82.542    16678.768     8793.633     6813.204        8.477        1.614      365.767       59.096        0.026      341.259       15.845      865.763
04/28/2014  16:52:00      157.657      107.353       50.898      109.212       74.868       71.131    11927.166     5605.175     5059.670        3.078        1.130      190.736       67.087        0.124      341.304       15.922      865.778
04/28/2014  16:53:00      126.902       68.070       78.026      173.043       95.172       69.834    29943.756     9057.713     4876.798        3.534        2.194      144.006       45.397        0.099      341.206       15.757      865.762
04/28/2014  16:54:00      175.775      129.451      131.447      178.360      128.287      110.816    31812.343    16457.576    12280.193        6.273        3.028      218.299      121.022        0.307      341.061       15.508      865.735
04/28/2014  16:55:00      203.974      102.163       23.012      104.761       85.135       67.831    10974.957     7248.053     4601.005        3.769        1.141      228.128       54.205        0.056      341.227       15.790      865.758
04/28/2014  16:56:00      197.677      115.238       78.417      121.009       79.633       83.573    14643.150     6341.487     6984.425        4.323        1.398      228.815       68.523        0.090      341.201       15.746      865.755
04/28/2014  16:57:00      153.379      144.219       72.383      100.245       77.783       66.601    10049.065     6050.221     4435.751        3.505        1.027      210.533       50.011        0.056      341.139       15.643      865.741
04/28/2014  16:58:00      197.473      146.764       59.041       79.153       55.617       72.766     6265.194     3093.244     5294.961        3.933        0.733      246.039       44.671        0.033      341.251       15.829      865.743
04/28/2014  16:59:00      164.678       87.074       43.784       74.687       87.637       53.796     5578.207     7680.219     2893.961        2.638        0.808      186.282       42.951        0.053      341.239       15.812      865.733
04/28/2014  17:00:00       26.617      -23.869       40.123       49.551       66.984       45.752     2455.315     4486.884     2093.206        0.596        0.452       35.752       26.264        0.540      341.445       16.163      865.714
04/28/2014  17:01:00      122.636      102.560       80.358      124.894       78.061       79.761    15598.617     6093.470     6361.786        3.003        1.403      159.869       67.330        0.177      341.368       16.032      865.703
04/28/2014  17:02:00      116.034       90.078       84.061      119.817      103.513       95.106    14356.083    10715.013     9045.224        3.137        1.706      146.894       84.337        0.330      341.019       15.439      865.704
04/28/2014  17:03:00       77.278      100.053       63.698       70.381       73.253       52.760     4953.419     5365.965     2783.611        1.657        0.655      126.422       48.181        0.145      340.957       15.334      865.708
04/28/2014  17:04:00       21.697       -1.641       52.217       50.430       66.807       33.578     2543.195     4463.151     1127.474        0.567        0.407       21.759       27.712        1.622      341.216       15.774      865.682
04/28/2014  17:05:00       89.774      -36.491       57.254      100.601      128.662       63.689    10120.579    16553.786     4056.225        2.169        1.537       96.907       63.355        0.427      341.358       16.015      865.658
04/28/2014  17:06:00      102.844       84.811      137.643      126.621      116.196       68.990    16032.870    13501.524     4759.572        3.550        1.715      133.303       80.614        0.366      341.298       15.912      865.623
04/28/2014  17:07:00      130.511       82.615       89.202      143.743       96.518       66.790    20662.004     9315.728     4460.913        3.312        1.722      154.462       55.443        0.129      341.505       16.262      865.659
04/28/2014  17:08:00      285.427      187.217       57.457      117.704      102.157       78.040    13854.305    10436.014     6090.202        7.509        1.519      341.348       43.053        0.016      341.453       16.172      865.666
04/28/2014  17:09:00      190.570      166.565       19.062      134.824       93.815       77.588    18177.383     8801.202     6019.957        4.870        1.650      253.102       51.164        0.041      341.386       16.059      865.687
04/28/2014  17:10:00      236.280      142.418       42.573      102.510       94.518       88.633    10508.236     8933.738     7855.886        5.261        1.365      275.883       53.990        0.038      341.511       16.271      865.722
04/28/2014  17:11:00      222.363      129.056       25.999       95.022       67.067       50.358     9029.149     4498.041     2535.966        4.142        0.803      257.100       32.606        0.016      341.361       16.016      865.744
04/28/2014  17:12:00      158.953      117.738       60.237       93.844       85.470       67.244     8806.723     7305.052     4521.715        3.169        1.032      197.809       58.665        0.088      341.395       16.076      865.745
04/28/2014  17:13:00       99.202       97.594       73.434       93.831       72.173       64.369     8804.210     5208.995     4143.429        2.145        0.908      139.160       41.330        0.088      341.527       16.301      865.750
04/28/2014  17:14:00       89.059      111.503      130.212       94.070       83.260       73.795     8849.126     6932.230     5445.733        2.927        1.061      142.704       64.840        0.206      341.048       15.487      865.734
04/28/2014  17:15:00      121.794       36.940       39.209       66.484       77.081       54.577     4420.169     5941.452     2978.686        1.554        0.667      127.273       49.028        0.148      340.955       15.332      865.719
04/28/2014  17:16:00       42.948      -42.236       34.410       62.982       87.755       52.403     3966.761     7700.956     2746.048        0.961        0.721       60.236       56.706        0.886      341.461       16.189      865.710
04/28/2014  17:17:00       53.911      -22.390       17.840       47.767       52.347       30.794     2281.702     2740.233      948.245        0.485        0.299       58.376       30.721        0.277      341.467       16.200      865.711
04/28/2014  17:18:00      150.669       72.058       52.253      126.294       85.613       60.524    15950.226     7329.642     3663.213        2.878        1.347      167.013       34.638        0.043      341.306       15.927      865.701
04/28/2014  17:19:00      236.838      127.806       13.670       81.683       65.421       55.914     6672.063     4279.912     3126.378        4.334        0.704      269.121       30.296        0.013      341.305       15.923      865.688
04/28/2014  17:20:00      163.008       88.221       27.253       81.392       71.203       49.200     6624.720     5069.812     2420.613        2.460        0.706      185.350       35.155        0.036      341.297       15.908      865.691
04/28/2014  17:21:00      148.567      128.110       11.289       83.015       59.028       48.047     6891.555     3484.348     2308.526        2.565        0.634      196.174       37.617        0.037      341.517       16.284      865.684
04/28/2014  17:22:00      113.572       36.736       22.811       67.300       75.268       41.164     4529.238     5665.209     1694.500        1.333        0.594      119.365       31.964        0.072      341.722       16.632      865.693
04/28/2014  17:23:00       67.490       30.151        6.416       66.478       64.873       37.306     4419.305     4208.479     1391.758        0.776        0.501       73.919       21.202        0.082      341.699       16.593      865.691
04/28/2014  17:24:00       51.756      -99.793       18.243       57.524       80.506       52.518     3309.055     6481.220     2758.162        1.276        0.627      112.416       37.215        0.110      341.571       16.375      865.692
04/28/2014  17:25:00       79.926      -74.178       14.175       56.801       48.435       35.586     3226.359     2345.989     1266.352        0.946        0.342      109.044       28.306        0.067      341.168       15.694      865.722
04/28/2014  17:26:00      119.115       68.669       99.658       88.772       92.810       73.508     7880.522     8613.619     5403.389        2.536        1.095      137.491       67.836        0.243      341.256       15.841      865.728
04/28/2014  17:27:00      180.912       90.357      101.648      115.020      114.499       82.784    13229.557    13109.939     6853.244        4.220        1.660      202.222       77.702        0.148      341.160       15.678      865.724
04/28/2014  17:28:00      117.686       71.370       75.345      148.281      125.312       83.119    21987.260    15703.200     6908.845        3.460        2.230      137.636       71.211        0.268      341.386       16.061      865.742
04/28/2014  17:29:00       94.495       65.305       79.815       99.754       84.521       59.705     9950.848     7143.777     3564.714        2.011        1.033      114.865       50.773        0.195      341.347       15.994      865.776
04/28/2014  17:30:00       65.781       44.065       65.937      108.099       99.048       74.196    11685.299     9810.599     5505.084        1.880        1.350       79.176       63.784        0.649      341.498       16.250      865.784
04/28/2014  17:31:00       55.276      -37.563       48.964       67.803       90.772       50.930     4597.263     8239.585     2593.842        1.114        0.772       66.831       34.032        0.259      341.539       16.321      865.801
04/28/2014  17:32:00       63.586     -115.942       -8.408       72.517      121.900       62.348     5258.677    14859.700     3887.291        2.078        1.200      132.233       81.077        0.376      341.339       15.981      865.805
04/28/2014  17:33:00       21.628      -94.589       -9.626       57.153       85.095       37.348     3266.432     7241.185     1394.880        1.070        0.595       97.031       35.620        0.135      341.405       16.094      865.810
04/28/2014  17:34:00       71.577      -79.948        0.054       37.243       49.031       31.601     1387.069     2404.017      998.606        0.815        0.239      107.308       31.368        0.085      341.345       15.993      865.821
04/28/2014  17:35:00       77.260      -62.861       -4.150       31.634       46.426       28.183     1000.698     2155.420      794.283        0.694        0.198       99.602       24.360        0.060      341.325       15.959      865.822
04/28/2014  17:36:00       86.662       67.975       15.228       69.789       40.902       33.312     4870.563     1672.991     1109.721        1.001        0.383      110.141       17.223        0.024      341.316       15.943      865.832
04/28/2014  17:37:00      233.887      134.483       50.150       89.079       88.724       75.349     7935.152     7871.916     5677.450        4.839        1.074      269.794       28.182        0.011      341.527       16.298      865.853
04/28/2014  17:38:00      208.640      118.993       17.495      112.644      101.256       71.426    12688.633    10252.705     5101.712        4.301        1.402      240.188       43.231        0.032      341.339       15.980      865.848
04/28/2014  17:39:00      152.318       97.274       24.590      115.628       71.717       56.576    13369.855     5143.385     3200.867        2.749        1.086      180.729       34.878        0.037      341.541       16.323      865.854
04/28/2014  17:40:00      157.664      109.916       24.838       80.108       71.799       75.641     6417.317     5155.045     5721.519        2.742        0.865      192.196       47.621        0.061      341.614       16.447      865.868
04/28/2014  17:41:00       80.515      127.180       -2.451       87.896       90.217       66.464     7725.739     8139.167     4417.459        2.147        1.014      150.524       48.718        0.105      341.449       16.168      865.895
04/28/2014  17:42:00       67.122      132.536      -10.262       69.813       71.931       58.220     4873.809     5174.025     3389.526        1.780        0.672      148.563       45.250        0.093      341.558       16.352      865.898
04/28/2014  17:43:00       76.392      127.048       11.263       66.644       90.179       53.604     4441.375     8132.218     2873.358        1.877        0.772      148.246       46.722        0.099      341.651       16.509      865.907
04/28/2014  17:44:00      126.924       86.693       25.994       71.913       47.620       40.227     5171.534     2267.658     1618.202        1.668        0.453      153.706       31.518        0.042      341.730       16.645      865.926
04/28/2014  17:45:00      126.063      120.307       10.227       83.639       65.261       48.673     6995.559     4258.936     2369.017        2.204        0.681      174.258       44.133        0.064      341.519       16.285      865.940
04/28/2014  17:46:00      126.610       76.642       14.003       81.754       54.089       39.540     6683.737     2925.595     1563.376        1.663        0.559      148.000       23.560        0.025      341.435       16.144      865.944
04/28/2014  17:47:00      199.147      143.095       17.225       80.151       78.669       63.058     6424.165     6188.824     3976.280        3.851        0.829      245.226       44.448        0.033      341.341       15.984      865.918
04/28/2014  17:48:00       46.835      129.198       -2.298       52.682       89.211       47.688     2775.369     7958.636     2274.191        1.595        0.650      137.425       51.088        0.138      341.381       16.053      865.903
04/28/2014  17:49:00      112.177      105.135       16.404       91.517       75.099       63.392     8375.309     5639.913     4018.556        2.097        0.902      153.744       42.523        0.076      341.561       16.356      865.901
04/28/2014  17:50:00      311.416      184.313       40.977       96.271       86.179       78.557     9268.180     7426.872     6171.128        7.774        1.143      361.872       25.485        0.005      341.629       16.471      865.909
04/28/2014  17:51:00      325.227      202.743       -5.603      123.588       85.983       64.487    15273.877     7393.118     4158.634        8.686        1.341      383.246       42.615        0.012      341.298       15.911      865.925
04/28/2014  17:52:00       56.368      144.411      -12.760       67.925       83.973       47.409     4613.826     7051.447     2247.661        1.905        0.696      155.022       46.781        0.091      341.305       15.924      865.955
04/28/2014  17:53:00      102.042      129.465       16.848      108.585       77.481       66.425    11790.775     6003.318     4412.275        2.483        1.110      164.845       52.495        0.101      341.389       16.066      865.946
04/28/2014  17:54:00      161.272      102.784       25.687      107.837       79.867       48.132    11628.819     6378.809     2316.652        2.877        1.016      191.241       23.847        0.016      341.509       16.268      865.936
04/28/2014  17:55:00      198.274       99.241        8.996      102.256       71.978       64.150    10456.335     5180.872     4115.213        3.449        0.988      221.724       29.284        0.017      341.425       16.126      865.968
04/28/2014  17:56:00      210.963      135.352       30.399      109.059       80.409       72.019    11893.841     6465.610     5186.805        4.364        1.177      250.650       52.191        0.043      341.417       16.110      865.987
04/28/2014  17:57:00       89.616      239.687      -23.832       84.058      120.616       55.386     7065.792    14548.204     3067.634        4.536        1.234      255.893       59.308        0.054      341.435       16.141      866.001
04/28/2014  17:58:00      121.260      124.408       12.610       96.298      103.769       58.229     9273.259    10768.051     3390.572        2.688        1.172      173.728       46.769        0.072      341.512       16.272      865.977
04/28/2014  17:59:00      138.244      102.622       16.861       81.252       64.756       63.043     6601.869     4193.382     3974.424        2.235        0.738      172.171       43.914        0.065      341.608       16.437      865.959
04/28/2014  18:00:00      107.794       78.937       19.740       87.750       63.174       49.569     7700.126     3990.949     2457.074        1.619        0.707      133.606       30.767        0.053      341.632       16.480      865.961
04/28/2014  18:01:00      228.723      169.077       40.656      122.579       85.720       72.009    15025.723     7348.000     5185.349        5.505        1.378      284.432       54.935        0.037      341.453       16.173      865.954
04/28/2014  18:02:00      161.724       83.670       22.990       86.776       73.009       44.928     7530.008     5330.251     2018.527        2.428        0.744      182.086       27.197        0.022      341.465       16.195      865.952
04/28/2014  18:03:00      193.236      136.806       59.128      119.552       70.928       61.469    14292.707     5030.722     3778.463        4.132        1.155      236.761       43.904        0.034      341.457       16.180      865.950
04/28/2014  18:04:00      249.391      165.813       28.403      131.701      100.274       76.116    17345.127    10054.975     5793.698        6.184        1.660      299.482       22.185        0.005      341.424       16.124      865.936
04/28/2014  18:05:00      222.124      109.212       39.753      130.086       98.520       70.607    16922.333     9706.131     4985.325        4.722        1.581      247.520       74.379        0.090      341.602       16.425      865.940
04/28/2014  18:06:00      230.813      149.385       18.838      143.638       96.375       69.417    20631.940     9288.161     4818.721        5.534        1.737      274.937       58.774        0.046      341.413       16.107      865.960
04/28/2014  18:07:00      163.382      157.679       96.933      111.023       84.211       83.544    12326.198     7091.439     6979.642        4.367        1.320      227.060       50.064        0.049      341.366       16.026      865.955
04/28/2014  18:08:00      219.846      145.764       70.188       88.443       75.709       83.951     7822.205     5731.816     7047.794        4.755        1.030      263.779       46.773        0.031      341.302       15.916      865.975
04/28/2014  18:09:00      158.738      125.304       24.904       75.467       56.118       47.826     5695.279     3149.193     2287.346        2.632        0.557      202.234       24.703        0.015      341.289       15.896      866.000
04/28/2014  18:10:00      118.559       81.516       16.742       70.422       53.135       39.373     4959.311     2823.364     1550.211        1.516        0.467      143.879       22.718        0.025      341.330       15.965      865.989
04/28/2014  18:11:00      141.110       91.819       35.756       99.019       80.683       56.115     9804.742     6509.810     3148.940        2.454        0.973      168.353       28.639        0.029      341.345       15.991      865.985
04/28/2014  18:12:00       21.336        4.578       39.732       54.460       64.094       39.714     2965.902     4108.037     1577.209        0.535        0.433       21.822       29.250        1.797      341.129       15.627      865.971
04/28/2014  18:13:00       57.246       40.110       49.261       60.113       39.490       43.288     3613.589     1559.439     1873.823        0.718        0.352       69.899       28.813        0.170      341.281       15.885      866.000
04/28/2014  18:14:00      156.804       76.289       36.996       60.825       40.102       38.122     3699.733     1608.157     1453.295        1.927        0.338      174.377        9.163        0.003      341.417       16.113      866.017
04/28/2014  18:15:00       66.924      151.924       -3.883       61.111       80.408       48.874     3734.503     6465.407     2388.632        2.008        0.629      166.011       46.218        0.078      341.550       16.339      866.020
04/28/2014  18:16:00      223.890      163.569       10.576      138.761       80.256       76.405    19254.714     6441.073     5837.712        5.426        1.577      277.275       50.274        0.033      341.427       16.128      866.018
04/28/2014  18:17:00      146.294      145.027       35.064      110.180       79.031       68.854    12139.685     6245.832     4740.820        3.339        1.156      205.997       27.994        0.018      341.454       16.174      866.033
04/28/2014  18:18:00      156.354      173.511       -0.242      135.917       66.952       64.244    18473.385     4482.572     4127.299        4.081        1.354      233.565       41.277        0.031      341.372       16.037      866.063
04/28/2014  18:19:00       24.729      236.161      -33.263       58.650       74.241       48.916     3439.810     5511.661     2392.726        3.441        0.567      237.452       43.693        0.034      341.479       16.216      866.109
04/28/2014  18:20:00       -3.731      251.794      -31.789       65.035       76.364       42.703     4229.498     5831.430     1823.556        3.815        0.594      251.822       42.607        0.029      341.381       16.049      866.140
04/28/2014  18:21:00       87.704      149.300        8.593       99.422      121.221       61.797     9884.737    14694.413     3818.824        2.922        1.420      173.155       67.785        0.153      341.506       16.263      866.144
04/28/2014  18:22:00      122.122       90.121       11.101       80.687       64.010       41.185     6510.344     4097.231     1696.236        1.773        0.615      151.775       31.400        0.043      341.409       16.098      866.132
04/28/2014  18:23:00      106.948       85.245       11.277       52.079       67.980       53.443     2712.239     4621.246     2856.134        1.451        0.509      136.764       46.901        0.118      341.449       16.168      866.102
04/28/2014  18:24:00      122.073       76.785       37.707       74.207       51.393       49.136     5506.677     2641.201     2414.363        1.639        0.528      144.214       22.217        0.024      341.393       16.072      866.079
04/28/2014  18:25:00      107.758       84.612       13.229       45.771       39.548       47.538     2094.958     1564.058     2259.855        1.243        0.296      137.007       22.144        0.026      341.301       15.920      866.083
04/28/2014  18:26:00       91.110       72.669       14.905       59.294       34.239       34.212     3515.798     1172.280     1170.456        0.983        0.293      116.541       23.688        0.041      341.335       15.976      866.096
04/28/2014  18:27:00       60.172      116.987       -3.890       84.599       97.690       45.188     7156.936     9543.423     2041.928        1.803        0.937      131.555       47.926        0.133      341.484       16.226      866.105
04/28/2014  18:28:00      -16.271      171.339      -26.061       54.470       79.216       33.440     2966.994     6275.133     1118.202        2.033        0.518      172.110       28.384        0.027      341.484       16.226      866.097
04/28/2014  18:29:00       58.252      134.132        1.569       95.220       92.376       53.029     9066.875     8533.237     2812.035        2.090        1.021      146.235       50.611        0.120      341.451       16.169      866.080
04/28/2014  18:30:00      107.915       36.387       18.819      102.986       63.645       44.248    10606.103     4050.658     1957.864        1.497        0.831      113.884       36.061        0.100      341.462       16.189      866.081
04/28/2014  18:31:00      109.610       73.229       15.315       85.499       71.815       42.072     7310.072     5157.455     1770.048        1.592        0.712      131.821       27.923        0.045      341.422       16.123      866.073
04/28/2014  18:32:00      210.289      127.716       15.855       84.933       72.598       57.978     7213.659     5270.400     3361.423        3.831        0.792      246.034       30.281        0.015      341.320       15.946      866.067
04/28/2014  18:33:00      144.370      139.154        8.948      114.279       71.628       79.340    13059.623     5130.597     6294.777        3.238        1.224      200.516       50.835        0.064      341.440       16.152      866.075
04/28/2014  18:34:00      199.824      149.413       36.921      103.886       75.461       65.433    10792.228     5694.355     4281.454        4.219        1.038      249.507       45.706        0.034      341.449       16.166      866.093
04/28/2014  18:35:00      128.582      200.672      -27.145      110.453       81.989       55.502    12199.953     6722.275     3080.521        3.977        1.100      238.333       55.532        0.054      341.417       16.112      866.089
04/28/2014  18:36:00       32.883      261.745      -33.837       93.250      108.942       53.624     8695.533    11868.349     2875.523        4.708        1.172      263.802       50.216        0.036      341.395       16.074      866.085
04/28/2014  18:37:00       94.348      127.090       -5.521       72.985       78.778       57.082     5326.839     6205.932     3258.397        1.993        0.740      158.283       44.474        0.079      341.479       16.219      866.080
04/28/2014  18:38:00      215.398      198.417       25.752      123.267       96.407       92.587    15194.842     9294.392     8572.445        5.974        1.653      292.858       60.986        0.043      341.306       15.923      866.071
04/28/2014  18:39:00      282.812      172.693       19.969      151.550      109.519       89.992    22967.546    11994.416     8098.561        7.662        2.153      331.369       41.707        0.016      341.280       15.880      866.054
04/28/2014  18:40:00      210.673      169.629       30.842      145.407       96.693       70.248    21143.295     9349.597     4934.777        5.476        1.771      270.476       28.933        0.011      341.322       15.952      866.062
04/28/2014  18:41:00      101.119      187.457       -2.889      101.091      115.238       68.158    10219.348    13279.751     4645.451        3.675        1.407      212.991       59.730        0.079      341.314       15.938      866.092
04/28/2014  18:42:00      181.725      118.225       31.657       99.327       67.785       61.059     9865.783     4594.793     3728.145        3.309        0.909      216.798       22.538        0.011      341.301       15.915      866.116
04/28/2014  18:43:00       89.531       67.470        1.785       75.823       50.882       51.916     5749.124     2589.004     2695.300        1.180        0.552      112.107       29.283        0.068      341.298       15.912      866.124
04/28/2014  18:44:00       19.884      180.961      -15.822       63.773      128.742       50.366     4066.942    16574.603     2536.715        2.828        1.159      182.050       71.230        0.153      341.361       16.019      866.126
04/28/2014  18:45:00       65.257      151.242       -4.530      115.219       96.261       70.720    13275.439     9266.139     5001.260        2.734        1.377      164.720       53.617        0.106      341.345       15.992      866.136
04/28/2014  18:46:00       90.529      202.414       -0.676      101.609       96.586       79.224    10324.317     9328.950     6276.397        3.754        1.296      221.737       68.459        0.095      341.153       15.664      866.145
04/28/2014  18:47:00       53.037      169.098       -0.888       65.377      133.662       68.331     4274.207    17865.552     4669.149        2.910        1.340      177.221       73.753        0.173      341.270       15.865      866.153
04/28/2014  18:48:00       93.100      166.320       -8.979       99.462      106.047       63.656     9892.618    11245.868     4052.091        3.080        1.260      190.605       54.853        0.083      341.275       15.872      866.161
04/28/2014  18:49:00       37.606      221.012      -18.522       65.113      118.647       52.954     4239.713    14077.050     2804.149        3.586        1.056      224.189       55.704        0.062      341.198       15.740      866.163
04/28/2014  18:50:00       63.907      195.564      -10.141       90.847      111.919       71.646     8253.216    12525.787     5133.166        3.417        1.296      205.741       70.703        0.118      341.157       15.672      866.165
04/28/2014  18:51:00      137.677      146.236       18.347      112.657       81.420       60.510    12691.664     6629.232     3661.504        3.182        1.149      200.848       50.140        0.062      341.131       15.629      866.162
04/28/2014  18:52:00       36.321      228.630      -22.384       81.162      108.998       60.316     6587.315    11880.669     3637.974        3.809        1.105      231.497       65.822        0.081      341.163       15.681      866.174
04/28/2014  18:53:00      102.848      119.693       -1.038       83.603       90.859       61.414     6989.399     8255.287     3771.725        2.196        0.951      157.810       58.453        0.137      341.214       15.770      866.163
04/28/2014  18:54:00      125.534      104.041       23.170       92.156       55.539       45.473     8492.657     3084.586     2067.767        2.038        0.682      163.044       31.659        0.038      341.247       15.825      866.156
04/28/2014  18:55:00       85.272      173.995       -6.448       81.133      121.205       73.751     6582.514    14690.569     5439.274        3.214        1.336      193.767       76.316        0.155      341.213       15.767      866.161
04/28/2014  18:56:00      102.780      164.417        0.146       88.026       98.881       71.307     7748.646     9777.442     5084.651        3.010        1.131      193.898       67.650        0.122      341.157       15.671      866.177
04/28/2014  18:57:00      170.147      140.935       11.138      113.479       80.697       66.492    12877.474     6511.940     4421.248        3.637        1.191      220.936       53.149        0.058      341.121       15.610      866.184
04/28/2014  18:58:00       78.200      203.963      -20.374       78.450      154.312       63.108     6154.401    23812.258     3982.569        4.103        1.697      218.441       82.795        0.144      341.131       15.629      866.202
04/28/2014  18:59:00      148.441      157.862       13.695      128.370      121.014       85.702    16478.863    14644.279     7344.825        4.280        1.923      216.692       66.994        0.096      341.059       15.506      866.222
04/28/2014  19:00:00       39.864      383.875      -54.531       89.114      150.660       68.346     7941.267    22698.310     4671.212        9.361        1.766      385.939       70.917        0.034      340.994       15.395      866.233
04/28/2014  19:01:00       57.612      330.889      -39.983       83.990      169.245       75.077     7054.371    28643.724     5636.595        7.786        2.067      335.867       80.682        0.058      340.981       15.373      866.239
04/28/2014  19:02:00       68.282      264.125      -27.480       96.892      123.283       70.921     9387.993    15198.587     5029.764        5.239        1.481      272.808       67.034        0.060      340.969       15.354      866.254
04/28/2014  19:03:00       42.847      193.899      -11.781       87.469      131.045       80.490     7650.808    17172.703     6478.618        3.543        1.565      198.577       76.806        0.150      341.008       15.420      866.261
04/28/2014  19:04:00       51.487      133.856       -8.330       53.693       79.566       44.450     2882.937     6330.690     1975.821        1.591        0.559      143.417       45.424        0.100      341.043       15.482      866.274
04/28/2014  19:05:00       77.853      160.144       -5.723      107.026      110.334       73.538    11454.664    12173.506     5407.855        3.038        1.452      178.065       58.836        0.109      340.986       15.383      866.286
04/28/2014  19:06:00      117.384      127.712        2.563      145.019       65.372       57.001    21030.610     4273.438     3249.167        2.932        1.428      173.463       16.582        0.009      340.966       15.350      866.303
04/28/2014  19:07:00      123.672      243.688       -7.872      103.586      139.665       78.439    10729.966    19506.259     6152.621        5.556        1.819      273.273       80.918        0.088      340.920       15.271      866.316
04/28/2014  19:08:00      137.914      142.077       11.917      129.600      116.048       68.644    16796.070    13467.081     4712.066        3.715        1.749      198.006       61.600        0.097      340.886       15.213      866.323
04/28/2014  19:09:00      140.630      142.496       23.639      127.238      104.198       84.679    16189.577    10857.197     7170.569        3.742        1.711      200.205       52.183        0.068      340.838       15.133      866.325
04/28/2014  19:10:00       88.583      160.643      -21.414       81.675      107.078       54.665     6670.766    11465.644     2988.287        2.761        1.056      183.447       49.845        0.074      340.870       15.186      866.340
04/28/2014  19:11:00       96.294       78.969       17.451       97.619       55.381       44.789     9529.458     3067.012     2006.065        1.520        0.730      124.533       28.465        0.052      340.856       15.163      866.358
04/28/2014  19:12:00        5.224      185.941      -19.931       81.637       84.854       48.651     6664.523     7200.145     2366.924        2.561        0.812      186.015       35.355        0.036      340.907       15.251      866.382
04/28/2014  19:13:00       57.284      125.894        1.100       81.360       96.829       57.249     6619.391     9375.834     3277.487        1.920        0.964      138.314       59.538        0.185      340.871       15.188      866.394
04/28/2014  19:14:00       80.236      361.144      -50.149       78.124      116.522       76.515     6103.411    13577.401     5854.576        8.245        1.277      369.950       71.189        0.037      340.832       15.123      866.408
04/28/2014  19:15:00       46.320      232.677      -27.004       87.439       75.866       43.638     7645.548     5755.629     1904.274        3.616        0.765      237.243       39.875        0.028      340.833       15.122      866.428
04/28/2014  19:16:00       63.699      213.885       -3.936       84.086      122.405       64.565     7070.498    14983.000     4168.630        3.802        1.311      223.169       68.957        0.095      340.813       15.090      866.438
04/28/2014  19:17:00       59.075      217.390      -19.016       64.934       95.954       51.392     4216.465     9207.234     2641.117        3.358        0.803      225.274       58.992        0.069      340.798       15.065      866.442
04/28/2014  19:18:00       61.970      177.190       -1.769       94.827      164.991       77.015     8992.185    27221.981     5931.314        3.868        2.107      187.714       89.386        0.227      340.738       14.964      866.466
04/28/2014  19:19:00       78.015      128.391       37.121      105.052      121.219       86.506    11035.827    14694.108     7483.281        2.857        1.661      150.235       77.165        0.264      340.681       14.868      866.482
04/28/2014  19:20:00       73.617      155.885       -0.460       98.294      108.640       67.372     9661.799    11802.567     4538.987        2.786        1.300      172.394       61.344        0.127      340.669       14.848      866.491
04/28/2014  19:21:00       61.685      186.642       -6.282       94.292      105.521       83.405     8891.060    11134.772     6956.391        3.283        1.349      196.571       65.510        0.111      340.658       14.828      866.514
04/28/2014  19:22:00       59.780      115.260       10.828       81.413       83.620       64.459     6628.143     6992.336     4154.966        1.737        0.889      129.841       57.401        0.195      340.655       14.825      866.507
04/28/2014  19:23:00       71.717      154.658       -7.340       69.515       87.315       61.756     4832.310     7623.938     3813.776        2.269        0.814      170.477       50.636        0.088      340.623       14.769      866.518
04/28/2014  19:24:00       78.684      226.471      -22.770       76.717      122.487       66.806     5885.509    15003.184     4463.010        4.167        1.268      239.750       72.546        0.092      340.600       14.730      866.524
04/28/2014  19:25:00       63.729       93.432       20.662       83.625       68.009       63.885     6993.175     4625.254     4081.272        1.446        0.785      113.097       43.376        0.147      340.574       14.688      866.529
04/28/2014  19:26:00      110.947      131.652       -1.416       80.592       86.387       58.110     6495.080     7462.768     3376.825        2.349        0.867      172.167       53.771        0.098      340.538       14.627      866.541
04/28/2014  19:27:00       80.023      186.750      -10.070      113.322      118.634       67.571    12841.949    14074.017     4565.784        3.642        1.574      203.173       64.514        0.101      340.538       14.625      866.548
04/28/2014  19:28:00       79.539      164.239      -11.441       70.455       92.399       71.548     4963.936     8537.632     5119.176        2.602        0.931      182.486       62.142        0.116      340.536       14.622      866.560
04/28/2014  19:29:00       16.616      148.790       -8.513       45.633       56.666       41.694     2082.358     3211.035     1738.386        1.476        0.352      149.715       38.174        0.065      340.543       14.636      866.594
04/28/2014  19:30:00       78.203      115.116        6.156       75.144       62.161       60.316     5646.564     3864.031     3637.986        1.627        0.657      139.167       48.426        0.121      340.521       14.598      866.602
04/28/2014  19:31:00       69.667      130.012        3.399       59.888       69.647       57.408     3586.530     4850.640     3295.697        1.675        0.587      147.501       47.334        0.103      340.536       14.622      866.619
04/28/2014  19:32:00       61.484      145.305        6.022       73.769       76.747       52.451     5441.802     5890.123     2751.131        1.950        0.704      157.778       49.896        0.100      340.517       14.591      866.609
04/28/2014  19:33:00       57.024      183.857      -14.102       50.446      114.997       58.826     2544.830    13224.407     3460.444        2.824        0.961      192.497       69.577        0.131      340.504       14.566      866.616
04/28/2014  19:34:00      141.151      106.943       11.864       75.741       50.941       51.002     5736.702     2594.988     2601.168        2.121        0.547      177.088       28.709        0.026      340.495       14.552      866.639
04/28/2014  19:35:00       85.884       93.393       22.023       90.292       62.564       56.984     8152.661     3914.264     3247.214        1.595        0.766      126.879       39.696        0.098      340.478       14.525      866.646
04/28/2014  19:36:00      115.811      103.048       13.152       77.702       53.303       47.011     6037.567     2841.190     2210.039        1.764        0.554      155.019       37.720        0.059      340.471       14.512      866.657
04/28/2014  19:37:00       75.309      127.853        2.027       67.906       91.062       53.199     4611.224     8292.303     2830.174        1.887        0.787      148.384       52.551        0.125      340.455       14.486      866.671
04/28/2014  19:38:00       85.532      209.297      -16.122       78.928      102.537       67.127     6229.648    10513.812     4505.978        3.631        1.062      226.099       70.141        0.096      340.455       14.484      866.681
04/28/2014  19:39:00       92.408       90.158       16.616       70.420       58.501       49.041     4959.023     3422.328     2405.050        1.386        0.539      129.103       40.717        0.099      340.439       14.460      866.691
04/28/2014  19:40:00       72.195      102.955       17.548       88.884       55.946       49.310     7900.404     3129.982     2431.459        1.479        0.673      125.746       43.480        0.120      340.403       14.398      866.710
04/28/2014  19:41:00       47.130      168.631      -16.308       66.960       99.795       49.359     4483.620     9959.088     2436.285        2.390        0.844      175.094       48.148        0.076      340.380       14.360      866.725
04/28/2014  19:42:00       53.976      125.672       -5.994       59.496       70.728       49.725     3539.728     5002.404     2472.570        1.488        0.551      136.774       51.467        0.142      340.384       14.367      866.738
04/28/2014  19:43:00       29.591       53.273       14.500       60.503       69.257       49.260     3660.587     4796.528     2426.539        0.740        0.544       60.939       37.856        0.386      340.338       14.290      866.748
04/28/2014  19:44:00      117.579      163.300       -2.966      111.349      115.882       59.175    12398.519    13428.692     3501.622        3.491        1.466      201.226       62.646        0.097      340.338       14.287      866.762
04/28/2014  19:45:00      101.775      229.575      -27.049       89.636      113.635       78.465     8034.587    12912.822     6156.697        4.544        1.355      251.123       74.322        0.088      340.320       14.256      866.771
04/28/2014  19:46:00       75.954      181.557      -21.944       77.748      101.253       55.759     6044.707    10252.121     3109.083        2.931        0.970      196.804       50.393        0.066      340.319       14.256      866.774
04/28/2014  19:47:00       54.691      165.939      -14.334       68.304       85.108       53.887     4665.503     7243.302     2903.763        2.277        0.741      174.719       54.440        0.097      340.290       14.207      866.783
04/28/2014  19:48:00       85.732      229.033      -24.738       82.661      130.049       65.931     6832.815    16912.753     4346.903        4.425        1.405      244.553       78.113        0.102      340.279       14.186      866.792
04/28/2014  19:49:00       56.651      177.438      -17.720       79.472      114.953       56.920     6315.878    13214.275     3239.834        2.888        1.138      186.262       55.347        0.088      340.262       14.159      866.795
04/28/2014  19:50:00       44.033      158.784      -15.294       55.747       76.036       46.653     3107.714     5781.504     2176.457        1.922        0.553      164.776       42.587        0.067      340.243       14.128      866.796
04/28/2014  19:51:00       35.739      168.908      -28.332       49.270       98.558       35.702     2427.554     9713.740     1274.650        2.201        0.671      172.648       40.595        0.055      340.237       14.116      866.802
04/28/2014  19:52:00       46.584      188.288      -24.266       72.753      102.869       50.973     5293.058    10581.975     2598.211        2.834        0.924      193.965       56.360        0.084      340.228       14.101      866.814
04/28/2014  19:53:00       57.954      203.843      -12.322       91.911      120.713       68.674     8447.654    14571.708     4716.183        3.639        1.387      211.922       72.464        0.117      340.217       14.082      866.817
04/28/2014  19:54:00       62.493      261.997      -28.496       68.460      120.289       60.313     4686.834    14469.339     3637.664        4.807        1.140      269.347       63.756        0.056      340.214       14.076      866.833
04/28/2014  19:55:00       42.802      193.444      -26.454       51.905       92.924       47.866     2694.101     8634.804     2291.151        2.678        0.681      198.123       53.855        0.074      340.178       14.014      866.852
04/28/2014  19:56:00       44.792       99.469        7.020       46.479       65.084       49.494     2160.275     4235.906     2449.699        1.040        0.442      109.089       45.458        0.174      340.145       13.962      866.870
04/28/2014  19:57:00       49.271      175.195      -14.048       75.945       90.013       53.418     5767.626     8102.383     2853.490        2.502        0.836      181.992       45.872        0.064      340.160       13.986      866.873
04/28/2014  19:58:00       54.765      229.813      -31.787       63.599      102.018       55.081     4044.866    10407.603     3033.881        3.715        0.874      236.248       62.266        0.069      340.162       13.989      866.895
04/28/2014  19:59:00       60.804      187.789      -21.299       86.907       99.174       60.044     7552.891     9835.549     3605.225        3.020        1.050      197.387       60.704        0.095      340.116       13.913      866.904
04/28/2014  20:00:00      109.524      179.009       -9.019       99.590       97.857       63.169     9918.261     9576.003     3990.270        3.380        1.174      209.856       63.693        0.092      340.106       13.895      866.910
04/28/2014  20:01:00       53.948      150.607      -15.518       74.592       91.128       42.947     5563.895     8304.262     1844.421        2.077        0.786      159.978       47.013        0.086      340.071       13.838      866.924
04/28/2014  20:02:00       35.869      118.213      -15.964       77.909       82.660       47.893     6069.798     6832.607     2293.731        1.535        0.760      123.535       40.671        0.108      340.064       13.825      866.942
04/28/2014  20:03:00       81.276      167.624      -25.718       59.194       86.399       43.727     3503.924     7464.839     1912.061        2.412        0.644      186.289       42.030        0.051      340.033       13.772      866.955
04/28/2014  20:04:00       72.736      167.944       -8.592       68.082       95.561       67.616     4635.158     9131.841     4571.987        2.595        0.917      183.019       60.488        0.109      340.014       13.741      866.956
04/28/2014  20:05:00       97.697      234.681       -5.501       78.281      120.832       80.922     6127.904    14600.380     6548.409        4.596        1.364      254.205       82.498        0.105      340.029       13.765      866.958
04/28/2014  20:06:00       75.736      187.933      -28.649       82.369       96.682       56.130     6784.601     9347.455     3150.552        3.058        0.964      202.620       52.653        0.068      340.003       13.721      866.965
04/28/2014  20:07:00       72.601      216.613      -14.459       64.919      121.181       68.543     4214.472    14684.862     4698.114        3.799        1.180      228.456       68.046        0.089      339.994       13.705      866.972
04/28/2014  20:08:00       79.206      131.651        8.295       79.283       92.038       65.315     6285.794     8470.903     4266.003        2.134        0.951      153.641       61.013        0.158      339.980       13.684      866.979
04/28/2014  20:09:00       45.108      125.722       -6.671       63.065      104.864       43.298     3977.141    10996.560     1874.691        1.736        0.842      133.569       54.757        0.168      339.959       13.647      866.998
04/28/2014  20:10:00       46.554      143.613      -14.983       43.244       82.137       42.899     1870.008     6746.495     1840.351        1.673        0.523      150.970       49.929        0.109      339.959       13.649      867.004
04/28/2014  20:11:00       89.627      164.496      -16.491       75.972       82.218       52.161     5771.670     6759.854     2720.736        2.530        0.763      187.328       47.743        0.065      339.960       13.651      867.006
04/28/2014  20:12:00       66.068      181.380      -21.417       64.117       88.390       50.302     4110.935     7812.831     2530.296        2.609        0.723      193.038       55.012        0.081      339.951       13.633      867.010
04/28/2014  20:13:00       84.392      103.540        9.457       81.767       60.407       56.564     6685.911     3649.036     3199.462        1.573        0.677      133.576       38.444        0.083      339.929       13.598      867.013
04/28/2014  20:14:00       66.894       76.900        4.745       82.411       65.863       48.978     6791.595     4337.996     2398.849        1.197        0.676      101.924       36.221        0.126      339.901       13.551      867.020
04/28/2014  20:15:00       48.119       72.238        4.408       65.833       59.668       43.885     4334.045     3560.272     1925.933        0.868        0.491       86.797       35.296        0.165      339.825       13.426      867.038
04/28/2014  20:16:00       97.154      146.183      -12.684       74.065       89.922       50.320     5485.618     8085.915     2532.148        2.353        0.805      175.523       47.084        0.072      339.871       13.499      867.054
04/28/2014  20:17:00       85.442      180.583        2.337       87.320      115.969       73.178     7624.770    13448.840     5355.086        3.317        1.321      199.776       68.315        0.117      339.910       13.564      867.066
04/28/2014  20:18:00       89.605      153.409      -12.435       82.136      118.634       56.002     6746.301    14074.000     3136.261        2.783        1.198      177.661       59.119        0.111      339.896       13.541      867.084
04/28/2014  20:19:00      120.460      177.274       -9.062       91.881      161.834       69.017     8442.123    26190.237     4763.334        4.270        1.970      214.328       80.777        0.142      339.902       13.552      867.090
04/28/2014  20:20:00       89.004      219.658      -15.018       74.564      109.421       67.693     5559.816    11972.863     4582.391        3.925        1.106      237.005       67.959        0.082      339.917       13.575      867.110
04/28/2014  20:21:00       95.963      133.424        6.620       94.545       94.064       78.623     8938.680     8848.101     6181.559        2.551        1.198      164.350       54.110        0.108      339.903       13.554      867.128
04/28/2014  20:22:00      109.851      129.568       -4.010       96.933       65.345       49.771     9395.993     4270.028     2477.170        2.250        0.807      169.868       28.140        0.027      339.898       13.544      867.152
04/28/2014  20:23:00      117.739      171.236       -7.404       99.251       92.705       63.292     9850.855     8594.159     4005.822        3.284        1.123      207.808       52.966        0.065      339.900       13.547      867.177
04/28/2014  20:24:00       57.708      237.854      -33.356       70.093       88.391       50.324     4912.990     7812.920     2532.536        3.813        0.763      244.754       44.879        0.034      339.909       13.561      867.195
04/28/2014  20:25:00       91.052      158.681       -3.895       70.575      101.065       57.795     4980.786    10214.151     3340.229        2.601        0.927      182.948       59.897        0.107      339.885       13.523      867.225
04/28/2014  20:26:00       99.788      135.158       -4.394       86.178       91.082       61.512     7426.661     8295.871     3783.708        2.387        0.975      168.004       55.857        0.111      339.870       13.498      867.249
04/28/2014  20:27:00       35.708       36.476       -5.612       56.291       49.867       33.284     3168.721     2486.719     1107.812        0.470        0.338       51.045       34.127        0.447      339.806       13.393      867.268
04/28/2014  20:28:00       73.008       60.946        1.707       41.358       32.829       27.655     1710.513     1077.718      764.791        0.630        0.178       95.103       16.657        0.031      339.803       13.387      867.303
04/28/2014  20:29:00       75.891       95.791       -5.884       52.516       61.714       43.808     2757.981     3808.638     1919.177        1.173        0.424      122.210       39.830        0.106      339.802       13.384      867.334
04/28/2014  20:30:00       63.286      118.116      -11.283       50.147       64.085       34.985     2514.724     4106.873     1223.926        1.296        0.392      134.002       31.478        0.055      339.803       13.387      867.361
04/28/2014  20:31:00       64.314      134.601      -21.749       52.381       70.540       38.505     2743.786     4975.919     1482.645        1.596        0.460      149.177       38.934        0.068      339.779       13.346      867.396
04/28/2014  20:32:00       52.270      151.046      -23.956       43.080       66.546       33.928     1855.904     4428.411     1151.140        1.678        0.372      159.835       32.889        0.042      339.770       13.332      867.427
04/28/2014  20:33:00       36.009      109.914      -12.136       38.562       45.509       33.323     1487.022     2071.097     1110.444        0.910        0.233      115.662       28.717        0.062      339.741       13.283      867.452
04/28/2014  20:34:00       35.246      116.247      -23.940       36.520       39.983       24.669     1333.740     1598.622      608.560        0.943        0.177      121.473       21.910        0.033      339.721       13.249      867.471
04/28/2014  20:35:00       39.383      113.922      -24.861       34.322       52.220       23.273     1177.977     2726.967      541.638        0.980        0.222      120.537       26.673        0.049      339.702       13.216      867.497
04/28/2014  20:36:00       46.490      142.758      -27.104       29.185       50.590       21.320      851.744     2559.339      454.561        1.357        0.193      150.137       24.125        0.026      339.695       13.205      867.515
04/28/2014  20:37:00       10.788      134.947      -26.384       28.771       29.308       13.204      827.773      858.984      174.348        1.044        0.093      135.377        8.820        0.004      339.673       13.167      867.546
04/28/2014  20:38:00       11.067      147.390      -25.302       30.365       43.864       17.806      922.023     1924.079      317.046        1.282        0.158      147.805       21.009        0.020      339.687       13.191      867.564
04/28/2014  20:39:00        5.881      119.810      -26.061       24.894       33.009       10.233      619.727     1089.583      104.714        0.844        0.091      119.954        9.728        0.007      339.638       13.109      867.582
04/28/2014  20:40:00        0.072      120.906      -25.761       25.140       24.792       13.507      632.033      614.661      182.434        0.836        0.071      120.907       11.741        0.009      339.686       13.190      867.588
04/28/2014  20:41:00      -23.006      114.164      -22.122       28.700       34.015       19.929      823.680     1157.001      397.150        0.821        0.119      116.459       20.380        0.031      339.755       13.305      867.604
04/28/2014  20:42:00      -20.223      136.484      -23.591       29.501       46.839       19.184      870.283     2193.919      368.018        1.151        0.172      137.975       19.622        0.020      339.709       13.228      867.613
04/28/2014  20:43:00        3.333      149.676      -29.633       34.076       30.055       17.229     1161.165      903.282      296.833        1.283        0.118      149.713       10.013        0.004      339.697       13.209      867.633
04/28/2014  20:44:00      -26.930      176.208      -37.156       33.361       28.029       16.231     1112.980      785.619      263.460        1.766        0.108      178.254       14.740        0.007      339.735       13.273      867.648
04/28/2014  20:45:00      -59.216      108.334      -22.238       36.827       35.030       18.186     1356.236     1227.071      330.724        0.933        0.146      123.462       18.083        0.021      339.773       13.337      867.655
04/28/2014  20:46:00      -35.662       82.643      -13.630       34.761       54.121       24.681     1208.311     2929.036      609.130        0.652        0.237       90.009       24.286        0.073      339.864       13.490      867.671
04/28/2014  20:47:00      -31.859       47.462       -3.798       30.194       33.121       16.435      911.648     1097.012      270.104        0.278        0.114       57.163        8.165        0.020      339.842       13.453      867.684
04/28/2014  20:48:00      -18.488      129.316      -10.748       54.405       75.897       34.746     2959.855     5760.428     1207.293        1.355        0.496      130.631       41.067        0.099      339.855       13.473      867.693
04/28/2014  20:49:00     -113.865       79.688      -17.501       38.606       40.217       27.748     1490.418     1617.428      769.936        1.175        0.194      138.980       23.532        0.029      339.997       13.714      867.714
04/28/2014  20:50:00      -59.834       50.062       -7.229       42.414       53.072       29.343     1798.960     2816.639      860.987        0.581        0.274       78.015       27.776        0.127      339.965       13.660      867.721
04/28/2014  20:51:00      -50.164      165.471      -22.417       56.332       73.786       33.924     3173.298     5444.407     1150.815        2.008        0.488      172.908       33.424        0.037      339.853       13.469      867.741
04/28/2014  20:52:00     -127.852      149.204      -37.171       42.327       46.613       24.571     1791.551     2172.757      603.716        2.228        0.228      196.489       18.590        0.009      339.870       13.497      867.759
04/28/2014  20:53:00     -113.502      159.489      -28.355       49.893       67.417       33.142     2489.333     4545.060     1098.417        2.363        0.407      195.753       28.487        0.021      339.814       13.403      867.778
04/28/2014  20:54:00      -57.013      104.227      -15.696       64.053       59.025       34.870     4102.795     3483.902     1215.925        1.158        0.440      118.801       33.038        0.077      339.842       13.452      867.794
04/28/2014  20:55:00      -83.211      166.009      -36.384       47.893       56.406       31.389     2293.782     3181.586      985.277        2.113        0.323      185.696       26.175        0.020      339.827       13.425      867.804
04/28/2014  20:56:00      -54.882      120.310      -17.637       40.645       66.398       26.675     1652.013     4408.740      711.555        1.228        0.339      132.237       24.290        0.034      339.842       13.452      867.810
04/28/2014  20:57:00      -50.018       85.835      -14.816       63.719       73.447       25.461     4060.142     5394.486      648.283        1.009        0.505       99.345       26.006        0.069      339.870       13.500      867.826
04/28/2014  20:58:00      -79.042       47.282       -5.424       37.541       27.871       27.227     1409.299      776.785      741.305        0.572        0.146       92.105       18.658        0.041      339.863       13.488      867.828
04/28/2014  20:59:00      -87.950       94.245      -13.432       55.845       58.740       31.618     3118.705     3450.358      999.672        1.218        0.378      128.908       31.464        0.060      339.753       13.301      867.840
04/28/2014  21:00:00     -113.288      174.570      -33.945       42.839       50.801       30.865     1835.143     2580.747      952.620        2.491        0.268      208.108       24.554        0.014      339.653       13.130      867.870
04/28/2014  21:01:00      -74.475      105.256      -21.731       29.574       43.099       27.725      874.634     1857.534      768.676        1.030        0.175      128.939       21.779        0.029      339.667       13.159      867.880
04/28/2014  21:02:00      -59.568      149.002      -25.756       51.530       65.652       33.206     2655.299     4310.221     1102.631        1.724        0.403      160.468       35.221        0.048      339.625       13.086      867.890
04/28/2014  21:03:00      -76.040       99.219      -18.125       43.215       47.280       26.798     1867.518     2235.373      718.137        1.039        0.241      125.005       24.897        0.040      339.665       13.155      867.897
04/28/2014  21:04:00     -125.296      157.329      -34.374       66.921       53.907       36.829     4478.363     2905.974     1356.379        2.519        0.437      201.126       37.095        0.034      339.610       13.059      867.909
04/28/2014  21:05:00      -98.914       93.680       -9.759       52.409       52.503       35.715     2746.666     2756.580     1275.589        1.272        0.339      136.235       34.472        0.064      339.616       13.071      867.909
04/28/2014  21:06:00     -130.415       84.656      -22.167       56.351       54.986       30.574     3175.444     3023.501      934.783        1.590        0.357      155.482       31.016        0.040      339.691       13.199      867.930
04/28/2014  21:07:00     -124.171      111.931      -29.988       57.120       58.248       35.641     3262.663     3392.817     1270.306        1.838        0.396      167.173       34.238        0.042      339.665       13.152      867.946
04/28/2014  21:08:00     -120.238      154.224      -27.800       52.880       96.559       41.392     2796.339     9323.571     1713.270        2.642        0.692      195.556       40.460        0.043      339.699       13.209      867.966
04/28/2014  21:09:00     -136.277      117.277      -20.393       76.603       57.083       36.215     5868.080     3258.447     1311.516        2.159        0.522      179.792       32.439        0.033      339.612       13.062      867.986
04/28/2014  21:10:00      -62.310      109.275      -11.782       47.769       79.930       30.799     2281.858     6388.846      948.583        1.279        0.481      125.792       36.420        0.084      339.645       13.119      868.003
04/28/2014  21:11:00     -123.664      124.375      -29.902       49.428       65.608       31.787     2443.080     4304.425     1010.394        1.971        0.388      175.391       31.516        0.032      339.626       13.086      868.023
04/28/2014  21:12:00      -95.288      157.093      -27.382       50.424       81.470       29.684     2542.535     6637.287      881.131        2.228        0.503      183.734       26.003        0.020      339.592       13.030      868.055
04/28/2014  21:13:00      -69.646      154.504      -24.706       55.508      107.595       36.261     3081.148    11576.585     1314.884        2.265        0.799      169.476       40.410        0.057      339.710       13.228      868.074
04/28/2014  21:14:00      -92.149      163.246      -27.046       58.434       52.757       27.821     3414.493     2783.310      773.992        2.142        0.349      187.459       22.836        0.015      339.634       13.100      868.098
04/28/2014  21:15:00      -75.084       75.885      -16.418       39.241       38.574       24.983     1539.852     1487.987      624.143        0.766        0.183      106.753       22.915        0.046      339.677       13.175      868.119
04/28/2014  21:16:00      -86.023      136.351      -26.316       45.932       51.049       32.119     2109.718     2605.953     1031.639        1.621        0.287      161.219       24.524        0.023      339.690       13.197      868.142
04/28/2014  21:17:00      -90.650       25.235       -3.000       36.016       35.087       22.756     1297.164     1231.125      517.838        0.595        0.152       94.096       20.223        0.046      339.846       13.459      868.166
04/28/2014  21:18:00      -87.164       50.314      -17.306       40.484       49.836       24.180     1638.978     2483.602      584.673        0.757        0.235      100.643       21.845        0.047      339.725       13.254      868.207
04/28/2014  21:19:00      -96.886       62.289      -20.084       23.282       33.819       21.465      542.072     1143.697      460.746        0.791        0.107      115.182       13.832        0.014      339.764       13.322      868.248
04/28/2014  21:20:00      -50.069       -1.411        8.686       48.427       19.608       14.515     2345.194      384.473      210.674        0.276        0.147       50.088       21.858        0.190      339.761       13.317      868.278
04/28/2014  21:21:00      -30.724       -6.959       -9.250       23.074       31.964       15.209      532.418     1021.696      231.307        0.143        0.089       31.502       11.850        0.141      339.721       13.248      868.319
04/28/2014  21:22:00      -10.665      -21.243      -11.870       48.976       24.376       14.838     2398.682      594.204      220.174        0.196        0.161       23.770       11.533        0.235      339.794       13.372      868.337
04/28/2014  21:23:00      -87.058       -7.269      -12.150       67.521       48.189       24.621     4559.061     2322.216      606.179        0.763        0.374       87.361       20.347        0.054      339.770       13.331      868.357
04/28/2014  21:24:00      -51.762       -8.928      -15.400       33.162       40.044       15.731     1099.714     1603.497      247.461        0.297        0.148       52.526       14.241        0.074      339.744       13.289      868.367
04/28/2014  21:25:00     -137.255      -59.438       -2.428       43.860       44.402       20.980     1923.663     1971.542      440.181        1.336        0.217      149.572       10.881        0.005      339.640       13.111      868.382
04/28/2014  21:26:00      -69.608      -66.815       -2.083       45.477       46.566       24.804     2068.201     2168.375      615.240        0.708        0.243       96.486       17.360        0.032      339.499       12.873      868.392
04/28/2014  21:27:00      -64.483     -143.223       -8.571       53.579       41.831       23.293     2870.717     1749.799      542.577        1.495        0.258      157.070       13.287        0.007      339.453       12.797      868.405
04/28/2014  21:28:00      -91.721      -51.014       -9.838       29.397       40.853       28.409      864.201     1668.985      807.094        0.723        0.167      104.953       18.441        0.031      339.405       12.717      868.431
04/28/2014  21:29:00      -90.565     -101.524       -3.549       39.884       32.297       22.682     1590.702     1043.110      514.468        1.083        0.157      136.049       19.719        0.021      339.345       12.614      868.446
04/28/2014  21:30:00      -68.967      -57.047       11.364       67.303       43.140       30.347     4529.636     1861.022      920.932        0.772        0.366       89.503       40.683        0.207      339.373       12.663      868.455
04/28/2014  21:31:00      -63.113      -85.929        8.424       46.331       52.733       26.485     2146.595     2780.785      701.465        0.853        0.281      106.616       30.756        0.083      339.319       12.570      868.470
04/28/2014  21:32:00      -86.549      -57.390       -5.035       33.499       40.055       24.242     1122.208     1604.428      587.681        0.706        0.166      103.848       16.781        0.026      339.324       12.578      868.496
04/28/2014  21:33:00      -34.024      -26.790       16.314       44.192       34.833       31.614     1952.947     1213.323      999.458        0.315        0.208       43.306       28.715        0.440      339.269       12.487      868.519
04/28/2014  21:34:00      -71.023      -56.681        1.387       42.533       26.812       24.944     1809.074      718.908      622.217        0.570        0.158       90.868       21.335        0.055      339.256       12.464      868.522
04/28/2014  21:35:00      -38.402      -42.395       -0.648       42.988       29.565       17.343     1847.981      874.073      300.776        0.315        0.151       57.202       11.450        0.040      339.305       12.548      868.524
04/28/2014  21:36:00      -73.806      -55.352        5.752       48.077       33.038       21.616     2311.412     1091.517      467.255        0.621        0.194       92.256       25.063        0.074      339.231       12.424      868.533
04/28/2014  21:37:00      -44.607      -47.038        5.385       43.604       33.053       19.758     1901.323     1092.501      390.386        0.381        0.169       64.826       19.907        0.094      339.248       12.451      868.555
04/28/2014  21:38:00      -57.069      -92.588       -6.178       40.688       35.016       21.043     1655.504     1226.115      442.816        0.760        0.166      108.763       15.169        0.019      339.232       12.424      868.591
04/28/2014  21:39:00      -57.134      -87.890       -2.695       33.906       23.527       22.283     1149.603      553.503      496.554        0.660        0.110      104.828       18.202        0.030      339.285       12.513      868.609
04/28/2014  21:40:00      -55.980      -39.351       -0.002       31.553       33.930       14.143      995.568     1151.247      200.038        0.351        0.117       68.427       18.677        0.075      339.250       12.453      868.620
04/28/2014  21:41:00      -76.244      -61.557       -4.992       28.668       28.733       18.189      821.865      825.576      330.857        0.580        0.099       97.992       15.049        0.024      339.350       12.623      868.628
04/28/2014  21:42:00      -56.864      -50.931        5.765       49.444       28.315       18.513     2444.683      801.747      342.742        0.472        0.179       76.338       27.602        0.131      339.371       12.659      868.630
04/28/2014  21:43:00      -36.868      -23.768        3.565       31.806       18.590       15.919     1011.609      345.591      253.430        0.177        0.081       43.865       16.786        0.146      339.261       12.473      868.635
04/28/2014  21:44:00      -45.557      -41.321        1.597       22.155       21.301       12.684      490.859      453.730      160.893        0.245        0.055       61.505       11.051        0.032      339.398       12.704      868.635
04/28/2014  21:45:00      -45.321      -31.300        6.390       35.568       19.832       15.186     1265.088      393.322      230.615        0.248        0.094       55.079       16.208        0.087      339.294       12.528      868.639
04/28/2014  21:46:00      -87.821      -48.609        0.727       29.616       24.075       20.111      877.103      579.605      404.443        0.597        0.093      100.376       16.659        0.028      339.387       12.687      868.645
04/28/2014  21:47:00      -85.230      -38.038        3.554       42.102       25.644       18.180     1772.597      657.601      330.497        0.574        0.138       93.333       20.362        0.048      339.356       12.632      868.648
04/28/2014  21:48:00      -83.277      -33.389        2.845       35.963       27.461       16.087     1293.332      754.109      258.785        0.518        0.115       89.721       10.675        0.014      339.399       12.705      868.661
04/28/2014  21:49:00      -11.201      -41.832        7.110       21.592       18.204       15.428      466.219      331.403      238.027        0.148        0.052       43.305       13.130        0.092      339.413       12.729      868.683
04/28/2014  21:50:00      -16.622      -24.937        3.935       37.150       19.240       16.805     1380.145      370.163      282.414        0.147        0.102       29.969       17.515        0.342      339.497       12.871      868.700
04/28/2014  21:51:00      -71.701        2.277       -3.141       30.080       30.201       20.298      904.828      912.101      411.998        0.369        0.111       71.737       15.599        0.047      339.685       13.186      868.713
04/28/2014  21:52:00      -57.597      -23.106        3.076       36.112       36.734       24.625     1304.091     1349.398      606.402        0.356        0.163       62.059       22.255        0.129      339.579       13.007      868.728
04/28/2014  21:53:00      -60.688       24.644       -0.157       52.299       34.239       22.262     2735.148     1172.302      495.575        0.435        0.220       65.501       18.187        0.077      339.466       12.819      868.747
04/28/2014  21:54:00      -87.109      -11.959       -2.365       53.542       27.235       19.679     2866.775      741.772      387.249        0.587        0.200       87.926       24.189        0.076      339.455       12.800      868.761
04/28/2014  21:55:00      -31.278      -13.153       -0.580       23.936       22.056       15.090      572.923      486.463      227.715        0.122        0.064       33.931       12.826        0.143      339.255       12.462      868.780
04/28/2014  21:56:00      -56.900      -29.273        3.271       46.324       24.988       12.725     2145.886      624.410      161.914        0.352        0.147       63.988       19.835        0.096      339.261       12.472      868.795
04/28/2014  21:57:00      -92.062       -8.007      -17.890       31.300       25.096       21.695      979.684      629.789      470.683        0.547        0.104       92.410       23.030        0.062      339.473       12.830      868.801
04/28/2014  21:58:00     -106.981      -43.960      -17.641       26.183       24.639       11.993      685.574      607.084      143.832        0.756        0.072      115.661        7.834        0.005      339.399       12.706      868.794
04/28/2014  21:59:00     -104.990      -14.048       -9.001       31.423       24.252       18.035      987.381      588.171      325.262        0.660        0.095      105.926       15.651        0.022      339.406       12.716      868.802
04/28/2014  22:00:00     -103.995      -16.612       -8.767       44.523       32.701       23.801     1982.263     1069.357      566.496        0.739        0.181      105.313       21.208        0.041      339.490       12.859      868.808
04/28/2014  22:01:00     -131.728      -11.980       -7.211       43.023       34.867       25.690     1850.983     1215.684      659.963        1.064        0.186      132.272       24.830        0.035      339.196       12.364      868.814
04/28/2014  22:02:00     -161.151       23.481      -12.267       34.052       30.238       21.926     1159.556      914.349      480.730        1.461        0.128      162.853       17.512        0.012      339.377       12.668      868.824
04/28/2014  22:03:00     -167.120       19.442      -25.365       32.409       31.417       19.973     1050.330      987.008      398.922        1.569        0.122      168.247       13.457        0.006      339.151       12.287      868.830
04/28/2014  22:04:00      -98.852      -12.801      -11.937       46.958       39.820       24.977     2205.047     1585.633      623.857        0.725        0.221       99.678       23.834        0.057      339.050       12.118      868.828
04/28/2014  22:05:00     -120.089      -28.273      -11.006       30.664       33.227       19.168      940.276     1104.017      367.408        0.888        0.121      123.372       11.290        0.008      339.200       12.370      868.821
04/28/2014  22:06:00     -127.856      -18.175       -7.942       39.039       23.089       23.172     1524.031      533.098      536.939        0.967        0.130      129.141       21.412        0.027      339.063       12.139      868.816
04/28/2014  22:07:00      -92.200       25.207       -8.345       38.682       31.828       17.664     1496.329     1013.015      312.019        0.601        0.141       95.583       19.480        0.042      339.151       12.288      868.812
04/28/2014  22:08:00     -102.602       19.779       -8.793       22.990       21.912       17.932      528.560      480.138      321.570        0.616        0.067      104.491       14.812        0.020      339.173       12.326      868.813
04/28/2014  22:09:00     -120.724       -7.474      -14.741       33.008       29.545       21.755     1089.506      872.882      473.283        0.864        0.122      120.955       18.883        0.024      339.286       12.516      868.819
04/28/2014  22:10:00     -161.559       20.319      -12.776       19.107       18.767       14.029      365.086      352.214      196.802        1.380        0.046      162.832        8.896        0.003      339.176       12.330      868.837
04/28/2014  22:11:00     -132.589       -7.174      -15.113       29.006       37.515       23.082      841.325     1407.375      532.777        1.032        0.139      132.782       16.688        0.016      339.023       12.071      868.851
04/28/2014  22:12:00     -115.434      -15.253       -3.267       51.851       33.384       26.377     2688.509     1114.524      695.745        0.903        0.225      116.437       27.663        0.056      339.043       12.106      868.859
04/28/2014  22:13:00     -163.276      -64.045      -10.148       38.089       48.973       22.694     1450.756     2398.376      515.040        1.761        0.218      175.388       21.023        0.014      338.665       11.470      868.857
04/28/2014  22:14:00     -180.222      -14.469      -26.790       31.942       32.267       19.749     1020.305     1041.154      390.010        1.793        0.123      180.802       13.744        0.006      338.657       11.458      868.849
04/28/2014  22:15:00     -170.669       14.067      -15.672       52.107       43.809       23.372     2715.161     1919.194      546.228        1.737        0.259      171.248       27.742        0.026      338.718       11.558      868.847
04/28/2014  22:16:00     -169.532       10.511      -13.047       27.548       34.741       21.525      758.879     1206.937      463.331        1.572        0.121      169.857       12.348        0.005      338.812       11.719      868.861
04/28/2014  22:17:00     -129.937      -39.739      -12.707       31.754       34.306       20.135     1008.297     1176.910      405.422        1.061        0.130      135.878       13.492        0.010      338.596       11.355      868.870
04/28/2014  22:18:00      -98.205      -60.109       -4.460       35.799       33.004       22.018     1281.600     1089.238      484.797        0.807        0.143      115.141       18.451        0.026      338.543       11.266      868.875
04/28/2014  22:19:00     -148.166      -28.059      -12.472       39.053       39.899       22.690     1525.171     1591.897      514.854        1.326        0.182      150.799       22.373        0.022      338.508       11.208      868.876
04/28/2014  22:20:00     -151.453      -62.505      -15.376       29.653       40.026       23.401      879.315     1602.104      547.617        1.505        0.151      163.844       18.013        0.012      338.579       11.325      868.875
04/28/2014  22:21:00     -129.292      -19.972       -7.076       47.315       41.796       25.198     2238.687     1746.930      634.937        1.089        0.231      130.825       22.774        0.030      338.554       11.285      868.879
04/28/2014  22:22:00      -80.871      -27.982        0.064       34.306       35.074       23.054     1176.888     1230.183      531.496        0.513        0.147       85.575       21.164        0.061      338.614       11.385      868.886
04/28/2014  22:23:00     -135.108        1.001      -15.013       36.068       37.985       23.234     1300.925     1442.897      539.808        1.088        0.164      135.112       20.998        0.024      338.546       11.271      868.894
04/28/2014  22:24:00     -101.603       -7.146      -11.128       65.256       38.312       27.052     4258.396     1467.844      731.836        0.848        0.323      101.854       31.631        0.096      338.656       11.455      868.912
04/28/2014  22:25:00     -102.077      -40.521      -13.796       38.183       32.273       23.128     1457.913     1041.571      534.925        0.764        0.152      109.826       20.047        0.033      338.325       10.899      868.913
04/28/2014  22:26:00     -113.421      -26.125       -9.807       27.264       39.735       17.887      743.313     1578.887      319.927        0.814        0.132      116.391       12.390        0.011      338.513       11.215      868.909
04/28/2014  22:27:00     -121.949      -56.142      -16.706       38.087       22.469       22.589     1450.646      504.864      510.256        1.038        0.123      134.251       15.637        0.014      338.338       10.922      868.918
04/28/2014  22:28:00     -114.240      -46.408       -7.250       25.811       28.359       18.762      666.186      804.249      352.000        0.854        0.091      123.307       10.123        0.007      338.364       10.965      868.914
04/28/2014  22:29:00     -124.235      -20.193       -8.409       37.168       29.576       20.942     1381.468      874.742      438.550        0.930        0.135      125.865       19.137        0.023      338.399       11.024      868.904
04/28/2014  22:30:00     -134.631        2.972       -9.378       39.650       39.270       30.406     1572.086     1542.110      924.532        1.113        0.202      134.664       28.281        0.044      338.548       11.274      868.895
04/28/2014  22:31:00     -124.941        6.356       -7.433       50.860       38.434       21.710     2586.776     1477.196      471.340        1.012        0.227      125.103       21.733        0.030      338.514       11.218      868.898
04/28/2014  22:32:00      -77.040      -26.315       -6.761       34.542       33.114       13.742     1193.131     1096.521      188.836        0.458        0.124       81.410       12.765        0.025      338.459       11.126      868.908
04/28/2014  22:33:00      -71.701      -35.325       -3.503       41.986       26.843       22.070     1762.803      720.563      487.097        0.469        0.149       79.930       22.101        0.076      338.393       11.015      868.921
04/28/2014  22:34:00      -63.948      -41.587       -5.369       45.991       28.484       16.628     2115.177      811.358      276.476        0.452        0.160       76.281       12.749        0.028      338.286       10.834      868.930
04/28/2014  22:35:00       -9.484      -30.533       12.217       33.101       20.376       18.218     1095.694      415.190      331.900        0.151        0.092       31.972       11.485        0.129      338.232       10.744      868.931
04/28/2014  22:36:00     -103.115      -63.916       -1.814       39.958       29.336       20.783     1596.657      860.598      431.944        0.880        0.144      121.318       18.221        0.023      338.139       10.588      868.937
04/28/2014  22:37:00     -137.795      -43.647      -11.795       18.097       20.701       13.110      327.498      428.515      171.878        1.098        0.046      144.543        9.144        0.004      338.054       10.444      868.958
04/28/2014  22:38:00      -76.684      -50.152      -11.221       40.057       24.238       14.188     1604.524      587.462      201.305        0.546        0.120       91.627        9.451        0.011      338.054       10.443      868.967
04/28/2014  22:39:00      -62.547      -40.729      -10.607       40.266       29.190       20.526     1621.372      852.056      421.320        0.429        0.145       74.639       20.575        0.076      338.098       10.519      868.978
04/28/2014  22:40:00      -48.990      -35.384       -7.309       35.263       18.837       20.410     1243.499      354.820      416.562        0.286        0.101       60.432       18.603        0.095      338.086       10.499      869.002
04/28/2014  22:41:00      -71.891      -38.056      -10.951       17.925       18.300       13.278      321.315      334.896      176.304        0.378        0.042       81.342       10.403        0.016      338.050       10.439      869.015
04/28/2014  22:42:00      -62.969      -26.807       -7.162       18.913       16.420       12.527      357.718      269.611      156.928        0.276        0.039       68.438        9.199        0.018      338.002       10.358      869.022
04/28/2014  22:43:00      -22.296      -27.481      -12.400       20.332       18.915       13.376      413.405      357.786      178.912        0.118        0.048       35.388        6.282        0.032      338.033       10.410      869.029
04/28/2014  22:44:00        4.151      -12.636       -5.000        7.846       12.648       10.044       61.566      159.974      100.883        0.026        0.016       13.300        8.112        0.372      338.091       10.508      869.054
04/28/2014  22:45:00        0.234       -4.897        0.227        8.661       13.303        9.020       75.019      176.972       81.364        0.018        0.017        4.903        4.717        0.926      338.118       10.553      869.066
04/28/2014  22:46:00        1.435      -20.570        2.159       11.730       14.189       13.468      137.600      201.335      181.392        0.047        0.026       20.620        6.840        0.110      338.226       10.733      869.074
04/28/2014  22:47:00        2.314       -1.242       14.119        9.148       13.163        8.489       83.690      173.259       72.056        0.027        0.016        2.626        5.763        4.816      338.064       10.462      869.075
04/28/2014  22:48:00       -4.486      -18.600       -0.551        9.637       15.254        9.278       92.869      232.689       86.085        0.039        0.021       19.133        9.109        0.227      338.251       10.775      869.087
04/28/2014  22:49:00      -41.043      -20.785       -1.110       18.618        9.934        9.692      346.625       98.690       93.943        0.133        0.027       46.006        3.289        0.005      338.044       10.429      869.102
04/28/2014  22:50:00      -46.992      -23.178       -1.820       22.499       13.012        7.919      506.207      169.311       62.713        0.174        0.037       52.397        5.782        0.012      338.049       10.435      869.106
04/28/2014  22:51:00      -75.649      -41.846       -3.568       26.071       14.430       13.845      679.692      208.230      191.684        0.428        0.054       86.452        8.286        0.009      337.999       10.353      869.092
04/28/2014  22:52:00     -136.493      -50.449       -7.165       15.196       12.147       11.144      230.916      147.544      124.189        1.086        0.025      145.518        5.988        0.002      337.931       10.238      869.084
04/28/2014  22:53:00     -121.863      -47.674        1.713       33.733       25.993       16.530     1137.892      675.639      273.257        0.961        0.104      130.857       19.031        0.021      337.942       10.256      869.062
04/28/2014  22:54:00     -106.537      -45.974        4.482       33.861       27.289       20.692     1146.597      744.692      428.174        0.790        0.116      116.034       21.039        0.033      337.882       10.157      869.034
04/28/2014  22:55:00     -110.303      -39.354        2.687       26.428       20.209       14.765      698.414      408.393      218.017        0.752        0.066      117.113       12.029        0.011      337.905       10.194      869.026
04/28/2014  22:56:00      -96.351      -37.057       -1.369       26.673       19.003       17.738      711.444      361.124      314.627        0.602        0.069      103.231       14.143        0.019      337.943       10.259      869.033
04/28/2014  22:57:00     -109.621      -18.304       -3.586       27.414       21.932       14.972      751.503      481.006      224.155        0.691        0.073      111.139       14.292        0.017      337.937       10.248      869.044
04/28/2014  22:58:00     -101.050       -5.853       -5.688       32.939       22.931       19.407     1084.958      525.837      376.636        0.613        0.099      101.219       19.546        0.037      337.967       10.299      869.055
04/28/2014  22:59:00     -108.396       -1.701      -13.999       19.723       14.560       13.804      388.991      211.991      190.560        0.637        0.040      108.409       10.502        0.009      337.855       10.110      869.071
04/28/2014  23:00:00     -108.685      -10.666       -8.926       22.686       16.703       15.140      514.659      279.005      229.222        0.651        0.051      109.208       11.086        0.010      337.868       10.133      869.083
04/28/2014  23:01:00      -91.069      -30.760       -9.220       15.336       15.524       13.465      235.189      240.981      181.314        0.499        0.033       96.124        5.876        0.004      337.845       10.094      869.095
04/28/2014  23:02:00      -77.861      -36.076      -13.004       21.213       24.454       11.831      449.986      598.011      139.980        0.436        0.059       85.813        6.905        0.006      337.806       10.029      869.110
04/28/2014  23:03:00      -98.808      -17.451      -12.962       17.311       16.968       13.518      299.687      287.924      182.740        0.550        0.039      100.338        6.725        0.004      337.854       10.110      869.121
04/28/2014  23:04:00      -86.348       -3.881       -7.259       18.378       13.609       10.390      337.761      185.212      107.950        0.408        0.032       86.435        7.355        0.007      338.012       10.376      869.126
04/28/2014  23:05:00      -89.227      -23.637      -16.573       21.040       17.462       13.257      442.681      304.914      175.735        0.486        0.046       92.305       14.366        0.024      337.911       10.205      869.143
04/28/2014  23:06:00      -79.685      -30.852       -1.344       16.553       13.352       14.147      274.002      178.272      200.147        0.398        0.033       85.449       11.207        0.017      337.802       10.022      869.159
04/28/2014  23:07:00      -74.042      -39.447       -6.069       14.106       17.409       10.929      198.981      303.064      119.452        0.385        0.031       83.894        6.937        0.007      337.742        9.921      869.171
04/28/2014  23:08:00      -92.076      -37.583      -11.780       18.062       15.079       13.422      326.224      227.368      180.148        0.538        0.037       99.450        8.963        0.008      337.671        9.803      869.195
04/28/2014  23:09:00      -85.872      -21.996       -9.157       23.923       24.357       13.215      572.309      593.264      174.636        0.464        0.067       88.645       14.039        0.025      337.631        9.734      869.228
04/28/2014  23:10:00      -85.849      -16.804      -12.385       19.537       28.583       17.610      381.708      816.984      310.126        0.466        0.075       87.478        8.731        0.010      337.616        9.711      869.245
04/28/2014  23:11:00      -57.933        6.521       -6.238       26.324       20.216       16.473      692.941      408.676      271.361        0.241        0.069       58.298       13.773        0.056      337.797       10.014      869.251
04/28/2014  23:12:00      -48.451       13.757      -19.079       19.732       24.166       18.753      389.360      584.004      351.666        0.211        0.066       50.366       16.010        0.101      337.944       10.262      869.257
04/28/2014  23:13:00      -39.739      -11.600       -9.384       17.225       25.544       12.111      296.711      652.481      146.674        0.145        0.055       41.397        8.781        0.045      337.910       10.205      869.263
04/28/2014  23:14:00      -87.520      -22.521      -17.339       14.431       14.113        9.881      208.260      199.178       97.644        0.449        0.025       90.371        8.276        0.008      337.564        9.623      869.286
04/28/2014  23:15:00      -74.550      -19.108      -14.256       18.311       23.058       14.006      335.284      531.682      196.182        0.359        0.053       76.960        7.924        0.011      337.582        9.653      869.308
04/28/2014  23:16:00      -48.916      -35.947       -8.656       16.699       19.376       17.403      278.857      375.448      302.871        0.236        0.048       60.704        9.582        0.025      337.617        9.713      869.320
04/28/2014  23:17:00      -67.844      -26.036      -14.630       23.819       21.521       16.004      567.350      463.161      256.121        0.339        0.064       72.668       13.471        0.034      337.609        9.699      869.330
04/28/2014  23:18:00      -24.482      -44.078       -7.938       35.451       25.695       21.636     1256.747      660.240      468.134        0.249        0.119       50.420       21.543        0.183      337.509        9.531      869.349
04/28/2014  23:19:00      -46.660      -64.127      -21.059       27.663       26.634       19.619      765.251      709.373      384.899        0.430        0.093       79.306       10.124        0.016      337.451        9.434      869.368
04/28/2014  23:20:00      -87.804      -37.286      -17.087       25.495       26.033       13.764      650.013      677.727      189.460        0.545        0.076       95.392        5.066        0.003      337.446        9.426      869.377
04/28/2014  23:21:00      -82.584      -28.468      -17.966       28.895       22.911       12.339      834.903      524.894      152.257        0.473        0.076       87.353        8.052        0.008      337.463        9.456      869.392
04/28/2014  23:22:00      -87.497      -46.899      -19.010       38.126       33.992       18.563     1453.619     1155.425      344.571        0.658        0.148       99.273        5.291        0.003      337.485        9.489      869.403
04/28/2014  23:23:00     -108.681       -3.285      -15.838       29.191       33.063       22.177      852.095     1093.192      491.841        0.725        0.122      108.731       16.246        0.022      337.393        9.338      869.416
04/28/2014  23:24:00      -87.270       -6.315      -11.553       39.048       26.943       21.502     1524.715      725.928      462.318        0.525        0.136       87.498       14.997        0.029      337.356        9.276      869.417
04/28/2014  23:25:00        3.035        1.996        1.923       18.042       16.833       11.889      325.513      283.365      141.355        0.038        0.038        3.633        9.923        7.462      337.464        9.455      869.415
04/28/2014  23:26:00      -32.433      -23.076       -1.954       21.423       18.019       14.281      458.931      324.679      203.946        0.129        0.049       39.805       10.335        0.067      337.567        9.628      869.414
04/28/2014  23:27:00      -54.437      -23.723       -4.967       27.958       16.004       13.797      781.673      256.142      190.354        0.239        0.061       59.382       14.576        0.060      337.488        9.496      869.427
04/28/2014  23:28:00      -88.178      -26.670       -9.356       22.682       16.865       10.938      514.455      284.432      119.639        0.475        0.046       92.123        8.607        0.009      337.356        9.273      869.438
04/28/2014  23:29:00      -83.858      -21.690      -15.681       17.685       19.367       12.805      312.767      375.081      163.964        0.430        0.043       86.618        8.513        0.010      337.395        9.339      869.460
04/28/2014  23:30:00      -79.609      -21.832       -8.743       17.755       28.846       14.589      315.257      832.082      212.849        0.413        0.068       82.549       14.532        0.031      337.452        9.436      869.499
04/28/2014  23:31:00      -84.297      -15.879       -8.426       20.969       13.429       13.582      439.699      180.340      184.470        0.412        0.040       85.780        8.092        0.009      337.446        9.424      869.527
04/28/2014  23:32:00      -77.953      -28.754       -8.037       22.519       18.440       15.933      507.110      340.033      253.859        0.403        0.055       83.087       14.181        0.029      337.389        9.330      869.530
04/28/2014  23:33:00      -50.206      -30.946       -6.339       40.343       18.210       21.051     1627.589      331.588      443.165        0.296        0.120       58.977       24.102        0.167      337.461        9.450      869.541
04/28/2014  23:34:00      -23.661      -30.413       -1.850       23.779       21.626       18.272      565.444      467.681      333.856        0.143        0.068       38.533       15.126        0.154      337.411        9.367      869.548
04/28/2014  23:35:00      -50.381      -46.019       -0.986       34.907       16.723       19.075     1218.515      279.666      363.848        0.326        0.093       68.235       16.728        0.060      337.343        9.253      869.549
04/28/2014  23:36:00     -107.485      -40.332      -12.391       17.489       10.533       11.513      305.881      110.953      132.539        0.694        0.027      114.803        6.054        0.003      337.228        9.061      869.540
04/28/2014  23:37:00     -105.004      -29.954       -8.604       17.436       21.695       11.737      304.009      470.655      137.747        0.645        0.046      109.193        6.869        0.004      337.307        9.193      869.524
04/28/2014  23:38:00      -85.357      -14.135      -12.680       21.370       14.248        9.884      456.695      202.995       97.699        0.420        0.038       86.520        8.813        0.010      337.280        9.148      869.528
04/28/2014  23:39:00      -98.854       -9.538      -16.160       21.219       19.587       13.165      450.261      383.634      173.318        0.557        0.050       99.313       10.527        0.011      337.347        9.258      869.527
04/28/2014  23:40:00      -91.736      -14.488      -11.424       16.930       14.450       11.965      286.614      208.789      143.152        0.470        0.032       92.873        7.692        0.007      337.258        9.111      869.509
04/28/2014  23:41:00      -82.201      -37.037       -9.881       25.345       18.122       16.856      642.394      328.389      284.140        0.474        0.063       90.159       14.839        0.027      337.213        9.035      869.496
04/28/2014  23:42:00     -116.460      -21.111      -18.949       14.532       18.479       15.057      211.182      341.465      226.728        0.757        0.039      118.357       11.480        0.009      337.126        8.889      869.494
04/28/2014  23:43:00      -94.846      -16.214      -16.114       22.114       19.834       14.352      489.017      393.377      205.987        0.530        0.054       96.222       15.082        0.025      337.135        8.904      869.484
04/28/2014  23:44:00      -81.867      -10.473      -15.412       21.202       19.729       14.526      449.512      389.232      211.011        0.405        0.052       82.534        9.188        0.012      337.289        9.164      869.482
04/28/2014  23:45:00      -40.366      -35.762       -2.946       14.882       12.388       11.929      221.472      153.455      142.290        0.172        0.026       53.929        6.468        0.014      337.284        9.153      869.490
04/28/2014  23:46:00      -42.536      -23.998       -9.656       15.475       16.219       15.681      239.473      263.063      245.894        0.161        0.037       48.839        9.969        0.042      337.394        9.338      869.502
04/28/2014  23:47:00      -79.293      -43.109       -9.620       26.167       22.013       12.865      684.727      484.572      165.516        0.479        0.067       90.254        7.899        0.008      337.273        9.136      869.506
04/28/2014  23:48:00      -95.090      -34.096      -15.074       12.976       15.503       15.119      168.367      240.343      228.597        0.553        0.032      101.018        8.887        0.008      337.171        8.965      869.497
04/28/2014  23:49:00      -86.031      -17.909      -21.700       24.823       17.368       14.432      616.201      301.655      208.280        0.466        0.056       87.875       13.505        0.024      337.178        8.977      869.497
04/28/2014  23:50:00      -73.350        1.240       -6.243       27.026       15.064       14.384      730.392      226.926      206.889        0.329        0.058       73.360       12.095        0.027      337.238        9.077      869.514
04/28/2014  23:51:00      -15.115        9.177        6.391       17.605       13.834        9.470      309.951      191.393       89.683        0.047        0.030       17.683       11.275        0.407      337.622        9.721      869.538
04/28/2014  23:52:00      -37.518      -22.640       -8.262       14.964       15.512        8.927      223.918      240.619       79.691        0.127        0.027       43.820        7.653        0.031      337.394        9.338      869.539
04/28/2014  23:53:00      -47.817      -31.763       -7.674       17.699       13.622        9.826      313.239      185.556       96.541        0.197        0.030       57.405        7.173        0.016      337.195        9.006      869.533
04/28/2014  23:54:00      -47.288      -17.189      -10.137       11.473        9.269        9.299      131.638       85.922       86.470        0.147        0.015       50.315        6.402        0.016      337.203        9.021      869.545
04/28/2014  23:55:00      -52.170      -15.585       -7.790       17.610       12.237       10.235      310.129      149.755      104.747        0.179        0.028       54.448        6.628        0.015      337.239        9.080      869.553
04/28/2014  23:56:00      -24.504       -7.280       -9.526       10.395        6.913        7.081      108.063       47.785       50.135        0.048        0.010       25.562        2.719        0.011      337.323        9.220      869.557
04/28/2014  23:57:00      -26.461      -13.434       -7.455       18.136        7.536        6.512      328.922       56.784       42.407        0.068        0.021       29.676        5.442        0.034      337.490        9.499      869.549
04/28/2014  23:58:00      -72.353       -5.813      -11.353       16.425        9.486        9.859      269.773       89.979       97.205        0.293        0.023       72.586        7.613        0.011      337.133        8.901      869.544
04/28/2014  23:59:00      -76.019       -6.351      -18.045       19.074       13.347       11.429      363.831      178.148      130.611        0.341        0.034       76.284        5.403        0.005      337.196        9.006      869.540
